GFSSGP_con_mlcape_000.txt.gz
CAPE
894 580 869 953 150 4 0 2 2 60 27 92 59 31 45 54 3 0 0 33 78 108 270 310 988 788 624 580 515 563 610 1363 1396 1500 1440 1043 994 1056 1016 1402 1730 1681 1581 1749 1870 1815 1960 2033 1821
463 891 1083 801 5 0 0 0 0 12 108 148 156 145 136 47 76 33 42 99 147 204 295 541 759 1028 825 928 922 705 874 1280 1150 1324 1516 1419 1472 1361 1641 1939 1721 1631 1710 1715 1747 1802 1735 1766 1762
874 644 865 517 0 0 0 0 0 168 284 213 98 178 97 62 120 77 94 202 294 304 402 675 1037 1257 1309 1517 1507 1470 1292 1302 1415 1754 1898 1934 2102 2186 1930 1735 1643 1674 1599 1445 1528 1608 1678 1436 1723
576 566 377 25 0 0 17 0 116 397 367 269 83 44 258 240 146 139 236 381 389 426 627 1026 1313 1412 1582 1648 1595 1677 1827 1541 1620 1981 1962 1993 2012 1737 1728 1582 1681 1699 1475 1490 1503 1471 1550 1544 1627
304 72 0 0 16 61 45 38 164 210 426 290 168 122 150 368 239 153 396 552 524 641 1141 1257 1426 1664 1633 1643 1650 1865 1926 1540 1483 1811 2054 1949 1870 1879 1788 1763 1809 1659 1607 1606 1635 1698 1670 1687 1758
16 2 0 0 27 135 78 51 185 412 345 319 197 227 319 425 57 209 454 452 923 1000 1170 1424 1791 1802 1947 1979 1775 1679 1572 1542 1457 1507 1599 1532 1663 1736 1687 1616 1533 1495 1443 1622 1581 1660 1755 1907 2071
36 0 0 0 72 169 115 148 291 404 256 248 261 199 458 350 258 330 424 660 1102 1120 1365 1630 1913 2088 2087 1901 1689 1694 1406 1524 1309 1090 1403 1316 1439 1881 1795 1569 1562 1624 1586 1686 1799 1754 1806 1947 2061
4 0 0 0 47 124 210 282 530 358 327 447 303 129 222 456 539 403 420 682 1056 1210 1384 1561 1890 1927 1882 2014 1474 1613 1440 1173 1166 1408 1333 1367 1529 1635 1550 1365 1336 1834 1951 2123 1934 1144 1228 1161 1122
3 4 1 1 26 73 224 384 483 673 446 318 355 210 419 729 736 619 422 527 716 1011 1172 1596 1600 1730 1685 1776 1667 1382 1494 1410 1501 1475 1495 1326 1244 1291 1470 1395 1255 1133 1353 1303 1475 1174 1113 1314 1002
12 16 8 2 0 45 166 317 425 385 245 269 413 411 703 895 826 600 414 423 561 634 1004 1325 1485 1629 1743 1730 1929 1598 1545 1478 1385 1341 1260 1094 1053 1085 718 745 1098 935 699 1176 1310 1054 1212 976 929
0 0 0 0 0 44 117 243 443 152 90 142 238 318 805 951 888 754 572 368 472 771 1212 1275 1362 1673 1575 1650 1595 1518 1366 1144 1069 1140 1196 1196 808 692 922 600 470 173 844 1022 887 857 835 772 731
0 0 0 0 0 39 57 171 301 68 47 288 360 435 861 847 906 857 598 582 692 923 1149 1450 1560 1570 1499 1340 1192 1271 997 1115 926 970 1067 1002 747 671 611 538 671 876 904 827 605 636 667 619 430
0 0 0 2 0 0 10 116 208 29 329 484 443 552 667 803 884 902 675 877 926 733 834 1130 1451 1607 1548 1330 1447 1316 1186 1192 1210 979 843 869 787 586 537 597 789 705 665 670 651 603 543 323 186
0 0 1 12 0 0 26 176 223 190 442 451 351 448 648 695 877 966 1088 1171 1023 821 574 843 1021 1273 1576 1323 1306 1115 891 1106 1026 851 876 861 824 842 697 709 671 583 553 464 587 535 333 70 77
0 0 0 11 13 58 145 141 142 295 412 431 537 643 758 893 1166 1064 1120 1149 1091 1058 965 1079 1273 1594 1311 1357 1044 949 1052 963 1088 1037 948 1120 1124 955 898 687 583 490 312 313 277 296 122 129 64
0 0 12 13 26 130 94 17 282 360 314 383 641 803 816 1017 1145 1190 1185 1140 1103 1174 1148 1200 1499 1562 1323 1374 1317 1196 1198 1257 1203 1175 1123 1146 1111 1098 929 650 392 378 297 276 308 203 160 124 54
0 0 11 13 4 58 52 40 315 323 272 342 536 697 781 883 1038 1120 1161 1141 1077 1106 1050 1075 1472 1554 1455 1162 1381 1462 1426 1280 1178 1085 967 935 895 830 754 544 450 382 336 348 246 173 170 78 52
0 0 8 25 28 34 37 72 248 250 223 227 298 393 604 624 735 824 796 976 993 1018 1139 1195 1363 1553 1425 1259 1273 1334 1284 1114 1018 1004 824 776 806 766 623 545 447 454 348 252 152 167 128 115 115
0 17 22 21 25 27 32 68 136 204 177 166 150 138 228 344 460 492 529 702 725 786 1028 1225 1406 1589 1544 1412 1299 1397 1177 1178 1154 1072 928 836 686 748 710 535 427 242 213 146 173 145 123 84 66
0 0 1 3 0 43 51 72 121 217 142 128 98 90 104 177 253 257 331 515 433 508 897 1084 1429 1553 1558 1509 1334 1345 1263 1259 1211 1117 1053 877 825 754 582 311 175 173 138 57 13 35 53 79 144
0 0 0 0 0 6 32 20 63 173 200 153 102 61 52 67 104 146 155 278 417 398 706 840 1084 1444 1536 1412 1287 1354 1315 1444 1336 1329 1090 1181 899 605 467 301 53 16 0 0 0 0 19 87 117
0 0 0 0 0 0 26 0 22 77 99 140 122 94 71 81 108 113 115 154 298 334 483 608 813 1114 1344 1341 1418 1457 1394 1227 1078 932 1138 1283 802 551 233 0 0 0 0 0 0 21 70 80 16
0 0 0 0 0 0 8 0 0 40 46 83 114 105 97 81 107 130 126 135 141 254 377 456 624 764 1076 1270 1351 1503 1438 1287 690 332 435 872 381 187 0 0 0 0 0 0 0 0 0 0 5
0 0 0 0 0 0 0 0 0 0 35 69 134 142 136 106 102 105 90 88 150 175 287 392 487 568 911 1040 1241 1434 1443 1143 812 250 77 415 307 0 0 0 0 0 0 0 0 0 0 0 12
0 0 0 0 0 0 0 0 0 0 24 51 96 141 179 183 188 163 124 138 212 279 346 430 467 610 854 1097 1354 1522 1490 1172 904 226 21 192 36 0 0 0 0 0 0 0 0 0 0 0 0
0 0 0 0 0 0 0 0 0 0 1 44 61 113 132 201 301 335 258 238 299 362 420 493 583 703 856 1247 1438 1618 1649 1373 1147 394 38 98 0 0 0 0 0 0 0 0 0 0 0 0 0
0 0 0 0 0 0 0 0 0 0 0 0 14 77 103 141 288 440 389 351 419 469 573 606 682 877 908 1154 1414 1325 1592 1420 1375 99 0 0 0 0 0 0 0 0 0 0 0 0 0 0 0
0 0 0 0 0 0 0 0 0 0 0 0 0 9 56 90 249 368 526 558 609 620 706 797 768 859 944 1090 1023 1069 1293 1318 474 0 0 0 0 0 0 0 0 0 0 0 0 0 0 0 0
0 0 0 0 0 0 0 0 0 0 0 0 0 0 4 33 118 274 581 725 778 731 741 933 890 1063 1085 1001 851 710 920 786 1 0 0 0 0 0 0 0 0 0 0 0 0 0 0 0 0
0 0 0 0 0 0 0 0 0 0 0 0 0 0 0 11 79 146 485 728 840 805 801 984 1070 1109 1191 1049 801 539 535 305 0 0 0 0 0 0 0 0 0 0 0 0 0 0 0 0 0

GFSSGP_con_mlcape_006.txt.gz
CAPE
1258 1406 1753 1876 653 72 39 67 73 137 191 111 16 43 61 56 75 82 126 277 228 314 394 272 328 243 371 460 578 724 718 690 898 930 1034 1102 1574 1767 2062 2169 2094 1954 1977 1995 1783 1590 1587 1612 1615
1565 1527 1558 1051 41 46 89 115 150 172 147 179 160 123 108 71 80 80 195 249 242 194 246 211 519 550 401 431 798 864 819 1026 1029 995 1017 1240 1567 1682 2122 2055 1959 2040 1897 1835 1736 1609 1597 1600 1700
957 1292 1167 15 0 55 77 180 246 231 126 142 257 201 136 94 113 155 180 203 250 263 227 374 546 525 491 539 948 1456 1389 1484 1652 1322 1233 1393 1612 2175 2227 1999 1978 1942 1858 1694 1532 1423 1552 1701 1837
1126 987 528 11 0 0 48 229 382 367 258 177 171 164 167 153 216 252 285 309 321 436 490 231 343 436 572 735 1179 1298 1611 1686 1776 1476 1481 1723 2136 2057 1865 1851 1973 1864 1712 1639 1640 1711 1709 1677 1881
742 168 9 0 0 0 6 279 391 378 290 171 151 156 185 408 269 323 471 511 581 554 749 400 691 841 595 908 1337 1620 1397 1739 1752 1846 1751 2107 1888 1906 1725 2054 2096 1840 1700 1720 1692 1802 1859 1941 1995
242 54 46 8 0 0 14 258 392 461 456 319 203 337 426 354 378 556 715 721 695 750 765 987 1065 1035 1278 1563 1777 1519 1743 1901 1982 1975 1988 1959 1912 1933 1915 1744 1479 1823 1739 1745 1868 1831 1733 1715 1756
128 71 62 62 0 0 2 119 210 423 493 252 204 413 570 329 591 858 962 837 705 864 1039 1140 1133 1445 1848 1872 1964 1792 1793 1728 1569 1765 1803 1631 1807 1744 1234 1234 1097 1743 1907 2037 1737 1487 1318 1426 1347
134 63 38 65 76 5 4 91 189 124 364 278 276 342 453 311 588 818 891 880 920 1020 1165 1375 1509 1532 1377 1457 2021 2018 1744 1277 1434 1710 1714 1838 1560 1145 1023 751 1630 1514 1477 1597 1683 1386 1358 1213 1124
70 93 56 50 79 28 46 77 268 250 363 383 391 245 282 246 478 689 873 836 1040 1019 1125 1244 1400 1505 1518 979 1113 1417 1452 1589 1537 1437 1526 700 1115 1371 1282 1013 949 1473 1369 1431 1406 1232 1183 1019 1201
5 108 68 17 50 125 91 101 352 404 351 336 497 339 246 250 515 671 840 1011 1032 1030 1128 1010 1291 1366 1381 1088 1262 1341 992 742 730 786 1018 937 1232 1442 888 1198 905 1166 1146 1128 975 901 1127 1297 979
0 48 48 30 15 132 114 175 312 142 226 219 446 444 306 308 531 660 776 897 924 1044 1077 1363 1097 1485 1420 1256 1238 1189 1041 953 1005 1398 1333 1073 1182 1113 1389 1378 1279 1026 866 1442 1317 1315 1174 1250 1020
0 0 0 15 11 81 206 202 251 128 100 155 324 479 434 449 458 544 680 780 816 889 932 1082 1206 1264 1275 1537 1307 1151 961 960 876 937 1345 1358 1172 1295 1584 1407 1507 1479 1238 1323 1322 1091 1269 1195 910
0 0 0 0 0 7 219 258 228 192 216 295 477 605 493 491 433 471 495 603 676 862 925 1020 1197 1456 1521 1677 1118 1068 941 908 773 852 1148 1046 907 1278 1482 1437 1316 1274 1333 1186 1112 1175 1204 1099 871
0 0 0 0 0 20 254 382 383 244 135 598 606 655 574 579 568 604 527 551 630 720 799 996 1121 1397 1517 1475 1314 1095 1069 950 927 805 788 1165 967 1139 1073 1194 1064 1152 1355 1091 1092 1232 1145 1001 722
0 0 0 0 0 148 242 449 352 368 386 845 737 692 614 636 680 729 676 666 734 791 779 988 1263 1400 1778 1810 1609 1439 1145 1047 939 879 1238 1405 1412 1420 1270 1166 1041 1026 1211 1514 1263 1298 1152 669 339
0 0 3 1 90 282 268 95 315 493 504 905 756 670 580 652 691 759 800 787 791 887 940 1066 1077 1228 1622 1564 1482 1309 1097 1099 1085 963 1261 1616 1512 1379 1338 1194 986 1002 960 1089 1124 1004 714 293 122
0 0 1 97 153 368 292 103 382 574 537 659 662 476 517 645 781 898 894 822 819 1070 1186 1206 1106 1043 1280 1512 1490 1428 1333 1592 1517 1509 1487 1215 1465 1225 1386 1163 1059 1187 930 989 788 681 375 43 7
0 0 11 11 136 273 252 137 448 616 532 375 710 512 454 487 637 856 917 961 1035 1156 1432 1450 1265 1299 1614 1660 1729 1373 1426 1307 1212 1271 1612 1805 1612 1364 1338 1193 1080 1172 964 845 728 521 151 103 11
0 9 23 25 135 211 134 116 202 626 520 419 577 652 535 365 487 713 1000 1103 1102 1289 1583 1763 1620 1763 2026 1373 1075 1102 947 1097 1216 1143 1848 1732 1573 1497 1577 1135 1157 1217 1077 633 313 65 13 0 30
0 0 14 57 100 96 78 110 128 211 536 355 354 579 780 587 491 801 1040 1009 1012 1305 1651 1858 1928 1939 2066 1527 1282 1110 1219 1045 1333 1422 1662 1728 1761 1805 1479 1381 1291 1188 194 318 45 14 2 7 20
0 0 3 56 90 90 69 82 39 47 331 416 310 272 590 664 583 663 792 939 986 1178 1670 1886 2088 2227 2256 1478 1437 1776 1728 1756 1556 1646 1831 2069 2099 2006 1876 1728 838 651 9 1 35 31 9 3 75
0 0 0 25 52 41 53 38 21 52 247 353 485 328 211 593 652 715 719 835 933 1063 1433 1894 2236 2453 2380 2168 1590 1565 1472 965 684 990 936 1594 2058 1863 1775 1335 747 21 0 2 32 7 1 18 11
0 0 0 0 33 53 92 50 26 31 44 195 430 482 213 106 422 617 722 644 896 1015 1273 1668 2225 2472 2513 2381 2412 2073 1946 940 802 911 1469 1712 1518 1684 1002 1164 233 0 0 64 37 8 18 8 0
0 0 0 0 7 24 44 32 0 2 4 18 126 326 384 112 109 324 492 540 719 903 1120 1351 1887 2476 2640 2662 2639 2470 1819 1461 815 1298 1030 563 622 980 1026 1116 307 0 0 51 26 0 0 0 1
0 0 0 0 4 9 24 19 0 0 0 0 0 72 365 216 81 121 318 503 697 840 994 1257 1638 2239 2505 2578 2481 2578 2470 2178 1839 1727 1013 327 279 369 685 1221 413 49 126 72 0 0 0 0 2
0 0 0 0 1 3 0 0 0 0 0 0 0 24 171 337 113 97 218 394 676 820 979 1210 1455 2062 2386 2401 2505 2689 2710 2443 2130 1899 972 481 240 124 208 1190 354 110 62 66 0 0 0 9 8
0 0 0 3 13 1 0 0 0 0 0 0 4 45 97 276 256 99 217 367 574 784 1056 1340 1676 2014 2182 2237 2425 2669 2814 2616 1843 1651 1843 954 672 170 630 715 351 69 106 12 0 0 1 0 0
0 0 0 0 0 4 0 0 0 0 0 0 1 41 115 238 310 185 221 348 531 776 976 1317 1597 1893 2080 2081 2237 2329 2480 2659 2459 2232 1989 1274 1144 952 521 488 147 47 57 4 12 0 0 0 0
0 0 0 0 0 0 1 0 0 0 0 0 0 39 83 174 421 405 323 353 622 691 827 1192 1555 1799 2024 2057 2135 2111 2137 2278 2612 2549 2678 2408 2015 1147 660 489 151 105 70 12 9 6 0 0 0
0 0 0 0 0 0 0 0 0 0 0 0 0 0 0 107 373 578 577 616 643 828 747 886 1173 1587 1903 2009 2273 2165 2132 2178 2390 2826 2611 2120 2210 813 633 387 187 112 77 45 90 26 0 0 0

GFSSGP_con_mlcape_009.txt.gz
CAPE
708 982 1362 1134 384 0 44 151 93 140 158 31 46 100 85 59 191 113 123 342 206 124 57 163 223 342 358 373 585 858 748 1104 1193 1328 1419 1615 1877 2119 2040 1941 1964 1933 1885 1644 1570 1551 1541 1588 1507
1166 1428 1837 1691 402 22 40 86 98 118 36 52 149 126 121 121 142 261 199 177 173 97 86 208 288 318 508 829 863 888 924 1011 1082 1159 1333 1413 1716 2018 1885 1801 1855 1754 1728 1638 1500 1448 1560 1674 1809
1871 1432 1139 916 7 40 95 169 161 173 224 174 183 164 176 113 175 318 281 201 141 138 191 257 543 604 674 1172 1127 1081 1101 1206 1235 1240 1267 1443 1795 2037 1767 1794 1829 1771 1701 1550 1496 1598 1642 1698 1906
1331 1203 871 15 14 111 182 124 124 140 152 223 238 203 146 192 256 145 201 176 238 196 490 374 622 653 814 1194 1603 1513 1581 1806 1555 1252 1368 1813 2072 1790 1619 1888 1773 1640 1596 1579 1601 1615 1707 1854 1944
1156 642 278 0 1 50 232 176 175 207 207 272 287 278 253 378 261 239 290 199 375 567 338 229 545 730 919 1262 1638 1749 1626 1698 1588 1452 1717 2105 1812 1740 1828 1912 1596 1463 1491 1688 1749 1811 1795 1693 1888
768 79 29 8 0 3 83 192 178 220 290 262 379 289 576 444 366 356 481 362 418 595 446 406 749 846 1062 1419 1748 1316 1682 1720 2007 1866 1952 1881 1868 1822 1886 1455 1440 1554 1673 1832 1917 1484 1407 1558 1536
499 251 37 17 0 0 11 45 111 145 220 310 443 577 519 515 523 506 611 461 486 698 787 831 905 1235 1640 1754 1602 1695 1790 1934 1974 1961 1909 1657 1689 1620 1333 1110 1038 1572 1907 1849 1809 1428 1375 1434 1248
124 23 43 92 10 0 0 34 0 71 226 267 559 587 488 689 618 689 712 682 590 903 949 804 1021 1134 1317 1433 1800 1607 1712 1525 1404 1743 1527 1292 1334 981 554 854 1595 1388 1369 1576 1550 1198 1043 946 1025
0 33 90 41 17 2 0 2 3 63 94 147 302 476 553 661 747 778 819 718 727 901 908 932 946 1315 1414 1506 1657 1802 1625 1160 1385 1364 1404 729 1198 1232 1458 1379 672 1231 1335 1248 1175 993 795 1072 1372
6 10 23 21 29 48 16 15 1 0 42 135 183 520 608 722 737 836 748 946 779 805 871 893 1159 1000 984 755 1218 913 614 545 655 745 877 992 1153 1384 858 1231 786 965 927 995 917 798 1013 1519 1649
0 26 25 42 33 50 24 39 18 30 0 81 186 385 515 728 760 834 726 795 640 572 846 1009 1303 1300 952 993 775 967 896 827 804 1057 1300 955 1162 1186 1104 1382 1558 1630 1003 1521 1412 1325 1454 990 930
0 0 8 56 5 77 39 55 29 0 33 8 179 305 415 690 750 741 784 774 808 707 809 846 1420 1382 971 1070 758 899 760 679 715 887 1326 1425 1301 1037 1062 1396 1278 1509 1282 1297 1295 1191 1029 1039 1033
0 0 1 1 3 15 122 82 24 5 2 11 234 234 311 586 736 693 652 662 749 799 888 825 950 1076 1343 1533 804 812 716 557 652 816 1123 1190 976 1296 1382 1533 1168 1412 1167 1132 951 944 995 845 1018
0 0 0 0 2 2 74 53 73 13 0 77 309 243 288 440 599 684 632 590 620 618 665 794 1094 1363 1370 1368 1600 1151 846 882 571 716 800 1388 1251 1190 1341 1477 1219 1083 1082 1209 1123 1387 1064 951 713
0 0 0 0 0 0 13 22 0 16 98 107 304 313 246 363 398 556 588 618 596 667 720 798 927 1291 1450 1491 1486 1189 881 661 781 610 1010 1155 1336 1334 1639 1249 1213 878 1094 1677 1324 1033 1090 824 137
0 0 3 36 0 2 0 16 20 76 47 69 195 347 267 296 331 477 515 536 597 651 728 819 809 921 1293 1583 1627 1283 887 1137 745 861 897 1378 1676 1843 1788 1181 1118 1118 1322 1138 1251 1249 596 31 9
0 0 0 5 0 22 1 8 80 208 6 98 48 213 289 319 404 521 546 548 594 763 855 896 959 894 1211 1901 1615 1320 1299 1041 1290 1475 1048 1638 1796 1613 1633 1201 1051 1401 1118 1072 1170 969 615 5 1
0 0 43 112 1 82 12 95 175 306 186 1 15 41 175 242 373 543 646 646 700 813 1008 1192 1102 1194 1321 1501 1876 1377 1106 1532 1383 1360 970 1346 1731 1889 1675 1158 1505 1508 1046 1014 734 566 34 0 3
2 35 12 30 5 28 54 75 148 348 311 98 41 0 48 115 329 455 689 725 707 849 1096 1386 1514 1713 1595 1345 1438 1320 1037 1143 960 742 2033 2250 1875 1741 1578 1532 1394 1319 1094 758 161 27 3 5 22
0 6 32 15 13 3 79 119 182 452 289 307 149 61 28 31 110 434 694 718 714 926 1089 1552 1744 2039 1966 1753 1638 1567 926 884 675 888 1255 1541 1812 1708 1696 1726 998 1137 465 271 72 1 0 5 28
0 0 16 45 86 30 90 48 94 138 419 339 230 191 85 47 24 287 558 730 811 922 1187 1723 2214 2310 2459 2011 1947 1754 1598 1384 1429 1171 1726 1687 1873 1819 2046 1874 1665 1114 226 0 90 2 1 1 21
0 0 2 35 15 47 15 94 52 71 85 350 368 281 157 83 61 124 572 824 796 909 1242 1706 2363 2500 2579 2325 1841 1679 1210 870 373 443 505 1181 2008 1575 1803 1823 839 645 0 6 4 1 0 0 1
0 0 1 11 77 32 26 51 14 12 56 108 304 441 250 96 127 123 425 691 786 870 1146 1656 2409 2691 2678 2611 1976 1515 1259 693 765 379 842 1163 1975 1163 1035 895 630 153 0 4 74 1 1 56 0
0 0 4 6 29 40 91 63 38 4 40 113 128 300 489 293 125 337 292 550 675 815 1052 1545 2518 2939 2972 3044 2385 1967 1956 1092 596 517 909 1157 1000 1165 878 543 549 114 0 69 52 31 7 0 10
0 0 0 3 15 6 32 85 9 85 55 35 56 76 196 485 155 187 446 523 753 925 1164 1530 2363 3180 3144 2834 2759 2637 2516 2263 1592 1592 1200 942 315 585 1145 721 860 283 46 124 60 28 5 3 0
0 0 0 0 8 11 8 21 24 44 21 52 45 27 58 291 381 128 253 543 941 923 1367 1551 2044 3010 3262 2933 2886 2925 2824 1936 1459 1581 1411 771 479 426 1361 1124 784 380 73 153 94 8 0 3 0
0 0 0 2 27 20 17 13 11 15 48 43 26 9 23 78 299 231 153 314 613 782 1287 1566 1991 2642 2967 2592 3253 3151 3012 2698 1574 1508 1797 1433 753 410 292 967 680 422 54 151 37 0 24 5 2
0 0 0 0 2 18 22 20 9 16 4 0 17 1 6 14 196 342 213 254 425 687 1082 1532 1947 2511 2480 2576 2963 2993 2993 3206 2783 2752 2257 1748 1109 750 611 966 719 316 90 201 72 10 0 1 0
0 0 0 0 1 4 20 25 20 21 4 0 0 0 13 23 108 389 332 287 371 495 757 1258 1623 2090 2471 2551 2541 2655 2712 2851 3084 2888 2530 2514 1627 1634 880 1137 732 167 145 143 106 79 6 13 24
0 0 0 0 0 0 7 27 12 0 0 2 0 0 1 10 71 277 424 382 418 502 509 782 1045 1324 2062 2338 2711 2793 2772 2783 2773 3107 3019 2759 2148 2041 1333 1018 806 182 88 53 118 100 37 0 0

GFSSGP_con_mlcape_012.txt.gz
CAPE
394 660 735 853 87 14 45 179 70 64 20 45 17 51 145 306 254 0 118 127 76 101 96 229 346 463 439 679 927 1226 1344 1339 1373 1594 1765 1829 1978 1879 1849 1863 1877 1837 1723 1599 1509 1549 1631 1670 1406
490 951 1187 72 38 38 78 141 115 1 16 128 107 98 178 207 108 154 158 107 79 45 58 181 496 518 521 808 729 863 1147 1280 1287 1401 1504 1871 1935 1761 1705 1700 1640 1645 1548 1407 1412 1527 1578 1712 1645
799 1201 728 806 112 41 179 217 136 151 87 230 68 143 200 286 345 319 132 119 19 115 235 406 553 811 878 895 895 1067 1194 1235 1313 1309 1447 1815 1841 1614 1629 1679 1627 1557 1466 1448 1470 1538 1561 1607 1739
1634 438 1294 675 172 154 116 103 176 191 284 229 177 66 203 285 234 117 254 156 59 371 273 556 718 952 1296 1206 1077 1286 1430 1369 1252 1257 1560 1799 1612 1461 1742 1661 1439 1367 1365 1461 1610 1548 1573 1559 1674
597 806 775 172 203 177 87 169 117 100 283 246 178 317 262 149 167 213 178 183 248 485 291 479 847 1018 1395 1619 1537 1721 1816 1632 1311 1424 1789 1589 1550 1462 1806 1440 1288 1306 1529 1669 1753 1341 1436 1271 1298
428 376 170 1 0 56 58 192 132 239 245 259 214 285 218 147 338 222 295 288 409 329 172 427 866 1091 1439 1660 1789 1633 1662 1662 1526 1570 1718 1532 1525 1607 1557 1245 1237 1423 1625 1828 1645 1307 1245 1160 879
11 218 94 33 0 6 19 56 51 165 338 264 446 325 243 358 410 277 334 469 363 282 515 709 822 1172 1497 1761 1434 1651 1705 1893 1691 1597 1515 1255 1345 1374 1350 1157 1044 1328 1466 1531 1502 1009 881 960 743
190 119 27 25 0 0 0 17 34 27 367 233 369 214 356 444 595 512 378 474 632 689 705 909 1084 1139 1292 1436 1541 1569 1553 1507 1535 1399 1070 885 1237 1319 1127 962 1301 1011 899 1053 1034 700 654 787 930
36 12 35 5 1 0 0 0 58 117 150 427 405 268 409 459 649 608 422 595 712 780 735 866 1039 1495 1446 1261 1221 1654 1553 1165 1194 1014 798 944 1126 1221 1409 1340 1121 884 877 827 727 578 895 1157 1296
48 1 2 1 3 0 7 0 0 0 4 188 432 400 429 565 740 580 527 496 796 531 915 943 1065 1382 1359 1000 1398 1417 1051 527 681 847 764 589 995 1205 1426 1389 1109 1012 1237 183 654 944 995 1121 1732
3 0 0 5 2 4 2 1 0 0 1 10 546 487 442 740 808 772 659 592 450 778 780 1021 978 1320 996 1570 1069 1147 789 733 793 1169 1145 1181 961 1500 815 544 286 1151 637 0 749 1290 1159 1127 726
4 0 8 5 60 42 5 14 3 1 9 15 534 644 562 601 772 536 638 464 604 854 1037 1257 1034 1107 1641 998 567 1075 983 1011 998 1354 1224 1038 1690 1062 887 597 911 501 188 820 1109 1223 1009 910 872
0 6 8 5 6 26 14 4 17 13 20 1 151 553 635 558 467 504 304 518 578 812 1082 1224 1378 1222 1648 1120 889 747 1032 618 771 1148 1240 957 1243 1466 840 1525 1503 1236 1045 1165 1193 1000 1183 989 899
0 0 0 0 0 3 95 42 0 2 10 9 60 252 548 599 389 513 481 408 682 336 1018 1420 1453 1616 1375 1121 1324 1627 465 817 547 752 1772 1199 1396 1311 1557 1585 1148 867 1181 1289 1304 1381 936 1150 1077
0 0 0 0 0 16 6 14 21 1 0 9 24 104 278 521 514 414 393 490 722 661 932 1313 1449 1158 1168 1786 1398 1720 1021 675 535 680 1397 1537 1320 1343 1732 1372 1415 1363 1032 1482 1257 796 977 742 714
0 0 0 0 0 0 0 63 0 6 0 2 51 46 113 241 449 515 384 439 466 530 710 1059 869 1501 909 1676 1660 924 771 824 678 1249 843 1460 1567 1768 1794 1854 1086 1121 1143 1197 1097 1315 882 258 77
0 0 0 0 0 0 4 26 122 104 9 2 19 59 51 177 281 457 461 545 503 727 1012 913 919 1472 1556 1592 1347 1546 1392 1120 951 1009 968 828 1642 1754 1430 1472 1340 1390 1265 938 1223 817 547 51 0
0 0 0 6 18 16 23 51 61 44 58 41 0 24 64 96 138 341 415 436 602 752 1054 956 1070 1259 1675 1708 1175 2008 1086 1180 1114 1625 884 1454 1565 1606 1486 1543 1393 1561 1196 808 599 437 62 0 0
0 0 0 0 27 2 98 45 0 0 121 9 27 0 31 78 151 324 426 435 480 885 1293 1195 1059 1245 2313 2224 1376 1383 1636 1137 1241 1101 1372 2075 2023 1979 1564 1683 1368 1509 966 587 205 40 0 0 5
0 0 1 5 17 19 111 94 13 69 209 48 15 4 2 1 78 280 522 498 581 894 1085 1518 1416 1741 1577 1858 1737 1404 1312 1307 1138 1366 1704 1937 2095 1925 1259 1340 1461 1393 1081 677 117 1 0 1 15
0 0 0 0 7 3 31 52 254 159 119 142 40 23 0 7 8 242 510 543 714 882 1338 1611 1933 1999 1982 1938 1720 1615 1485 1560 1545 1276 1761 1769 2053 1562 1442 1820 1619 1282 180 88 95 40 10 0 126
0 0 0 0 10 8 10 2 5 16 278 121 108 65 46 7 6 133 480 730 772 905 1397 1790 2029 2014 2492 1793 2026 1579 1374 1539 1179 1193 1278 1709 1972 1775 1703 1575 1700 868 79 384 48 13 0 51 11
0 0 0 0 3 8 132 55 62 78 287 301 119 126 121 61 23 20 429 668 755 967 1461 1801 2371 2332 2459 2324 1875 1920 1578 1134 1073 434 724 2005 1811 1533 2005 1636 1003 539 0 121 158 39 1 124 2
0 0 0 0 0 0 17 10 0 52 19 6 181 178 180 195 92 69 327 570 807 979 1550 1566 2587 2713 2626 2915 1965 2180 1574 1188 1375 1136 1572 1737 2033 1449 1194 1087 873 283 1 308 143 73 88 0 38
0 0 0 0 0 0 8 31 27 32 27 0 0 23 243 294 192 167 237 702 924 1050 1370 1777 2503 2783 2804 2802 2799 1873 2146 1309 1451 1717 1061 1328 1255 1665 1297 848 763 406 43 393 146 280 166 71 0
0 0 0 0 0 0 0 1 33 35 19 18 1 15 160 415 317 292 359 621 1031 1030 1313 1754 2409 2735 3113 2676 3267 2668 2045 2571 1935 1572 1492 1514 948 644 1256 828 859 688 225 158 250 254 59 65 37
0 0 0 0 0 1 1 5 3 42 46 1 0 7 110 364 423 233 543 589 1041 1106 1244 1644 2505 2959 3337 3254 3250 3114 2509 2638 2731 1710 1662 2015 999 1225 1202 968 1413 626 556 360 371 104 61 70 101
0 0 0 0 0 0 0 0 6 8 116 0 2 9 11 8 457 471 332 810 1003 1238 1283 1710 2102 3041 3562 3481 3324 3305 3439 2628 2202 1895 1824 1470 1760 771 1446 1302 1155 876 421 301 368 73 183 64 27
0 0 0 0 0 0 0 0 24 61 141 75 9 4 0 0 89 410 465 491 948 1344 1395 1705 1960 2867 3449 3524 3349 3318 3298 3275 2437 2900 2184 2539 1505 1335 1413 1332 1195 934 604 359 300 53 21 49 51
0 0 0 0 0 0 0 0 0 38 26 85 9 5 2 0 19 124 548 484 722 1035 1274 1627 2021 2511 3129 3339 3233 3304 3367 3378 3283 2499 3087 2561 2755 2048 1092 1289 1276 1045 503 350 243 5 10 168 95

GFSSGP_con_mlcape_015.txt.gz
CAPE
425 441 469 339 38 7 13 76 103 16 20 12 23 58 82 115 1 0 22 6 24 52 99 180 499 919 1114 1212 1319 1293 1335 1624 1656 1537 1438 1525 1600 1761 1958 1930 1827 1713 1631 1528 1568 1630 1729 1549 1297
404 475 0 1 10 11 19 63 13 32 22 5 203 230 63 12 0 6 20 36 40 32 81 351 786 793 1076 1270 1326 1297 1281 1451 1445 1558 1545 1627 1680 1813 1723 1679 1672 1574 1504 1499 1607 1583 1638 1732 1538
667 810 254 22 54 101 43 45 6 174 95 111 131 209 125 25 31 37 10 12 6 33 111 486 623 601 882 827 1155 1204 1285 1255 1278 1365 1831 1805 1704 1710 1631 1603 1554 1467 1502 1563 1603 1656 1653 1684 1561
682 289 418 247 49 229 166 101 144 103 157 130 132 34 135 277 178 38 34 0 5 86 297 776 596 633 845 985 1089 1122 1089 1226 1191 1386 1811 1676 1480 1637 1425 1389 1360 1329 1511 1714 1694 1621 1483 1513 1542
258 72 372 108 138 123 174 240 372 242 195 195 201 193 210 21 50 136 36 142 117 132 430 840 1137 1238 1173 974 1218 1206 1220 1189 1223 1513 1681 1627 1430 1614 1363 1269 1133 1270 1544 1756 1624 1218 1356 847 1042
58 283 163 82 148 152 123 306 227 182 355 203 163 136 62 175 161 55 67 258 161 122 379 743 1137 1413 1379 1269 1449 1569 1611 1301 1233 1623 1487 1449 1295 1268 1158 1033 1109 1379 1628 1632 1366 1105 1023 865 669
9 50 29 37 25 236 191 309 263 225 291 256 123 212 179 144 89 145 121 318 184 148 261 722 1024 1376 1485 1717 1687 1653 1685 1453 1484 1614 1456 1234 1107 1235 999 947 910 1065 1128 1212 1222 965 930 917 906
103 111 0 30 65 65 115 200 431 231 391 265 116 235 200 227 144 223 258 291 65 246 394 477 918 1239 1555 1449 1558 1582 1708 1741 1583 1602 1331 795 906 996 1127 966 1116 937 623 818 1121 1084 970 951 1187
234 75 3 23 44 1 38 326 398 490 386 242 294 210 355 263 227 249 348 301 398 520 567 657 761 1028 1264 1039 1445 1550 1496 1266 1346 1249 802 449 833 1054 1009 686 1136 1251 1059 1263 814 1053 851 1122 1427
10 3 16 12 37 0 62 226 327 582 470 306 267 408 393 436 356 246 299 456 592 635 763 835 851 870 1012 1070 1434 1120 913 557 509 460 281 465 419 765 1223 769 552 843 748 373 23 761 977 1272 1165
1 0 9 3 7 19 6 0 7 376 449 301 284 617 605 531 362 279 298 465 697 583 751 949 1111 1145 882 886 635 763 636 312 376 654 830 561 864 860 746 283 683 592 0 1 481 681 1158 1095 716
0 13 5 13 61 15 11 0 0 0 227 393 349 584 590 411 491 332 224 435 549 567 827 833 1044 1043 997 1056 618 472 669 389 446 672 961 1456 975 615 335 420 731 570 4 246 560 504 875 1205 647
0 5 35 30 58 50 31 13 1 7 346 537 478 444 668 571 397 340 329 258 389 720 814 821 1134 837 1280 956 307 664 677 623 659 797 1126 905 926 706 368 623 795 521 89 652 746 935 898 776 930
0 0 15 16 107 73 46 50 25 75 629 575 526 346 670 703 515 524 517 404 295 857 837 780 658 683 1085 921 863 893 1012 884 926 1169 1174 831 1291 1230 1190 1294 1063 1062 930 1182 1228 750 619 652 610
0 0 0 0 0 114 41 1 0 51 264 632 620 531 472 555 608 275 428 489 579 839 910 864 662 1043 872 1048 956 1238 688 333 175 863 1125 1008 1263 1023 1366 1102 1318 843 1289 1278 836 918 906 194 203
0 0 0 0 0 3 74 24 21 4 110 370 481 545 572 521 365 285 289 419 534 812 1022 1125 958 974 694 993 1497 1258 882 747 604 1165 1215 1114 1146 1283 1438 1118 869 813 895 792 996 923 864 153 0
0 0 0 0 0 0 6 0 0 1 13 88 213 296 452 483 452 407 420 486 368 606 1036 1094 1025 813 793 934 1421 1005 645 912 803 1018 1042 1679 1435 1301 712 1178 1164 768 1085 866 859 505 279 4 0
0 0 0 0 0 0 0 7 0 0 0 32 88 77 145 261 399 412 196 355 497 761 980 1016 1204 972 682 840 989 879 530 843 1086 1019 731 899 1213 1384 1014 1065 1239 1186 1103 663 352 206 9 0 0
0 0 0 0 0 17 2 1 3 0 0 0 63 20 52 59 139 374 365 339 518 659 702 822 946 1270 1019 916 1009 572 666 1052 896 807 941 925 1040 1114 1349 1240 1033 1333 953 482 234 16 0 0 0
0 0 0 0 1 31 1 3 4 3 0 0 57 49 33 71 58 261 332 336 484 690 704 600 615 1657 1412 1246 1004 777 1445 1501 976 487 606 1161 1114 1533 1209 769 766 996 1071 356 10 0 0 0 1
0 0 0 0 0 7 22 6 0 0 1 15 32 22 22 48 79 152 227 316 329 610 781 709 540 1162 1726 1561 1158 1044 1138 1325 1589 1113 1527 1554 1733 1365 1039 1138 1010 924 349 182 0 0 0 0 8
0 0 0 0 0 41 29 14 13 22 110 96 61 0 12 38 77 124 273 319 325 610 901 916 845 902 1476 1772 1430 1106 791 524 990 1277 1145 1496 1681 1398 1216 1335 1209 737 41 0 0 23 0 9 0
0 0 0 0 0 2 0 0 12 104 2 0 46 0 0 0 25 90 362 331 424 553 798 1184 1078 1087 1307 1546 1414 1196 863 590 1058 1253 1385 1623 1812 1519 1484 1291 1208 499 2 89 58 20 1 41 11
0 0 0 0 0 0 0 0 5 9 1 0 51 4 0 1 0 43 236 422 398 748 1050 1359 1420 1314 1649 1428 1609 1301 1071 1027 1088 912 1040 1280 1538 1049 1294 1217 837 316 0 34 62 63 23 58 21
0 0 0 0 0 0 0 0 0 75 13 52 96 45 101 33 5 0 171 507 514 806 1128 1472 1559 1597 1871 1668 1340 1683 1612 1347 1066 633 1202 1375 1457 1254 1619 1288 500 250 1 108 93 63 54 60 9
0 0 0 0 0 0 0 0 0 20 14 56 172 92 15 2 29 4 106 389 662 740 1156 1624 1754 1650 1852 1968 1709 1317 1955 1575 1101 981 1852 1370 1265 1331 1125 880 462 245 23 319 148 148 61 80 0
0 0 0 0 0 0 0 0 0 2 41 78 44 106 55 16 6 40 89 324 649 737 1235 1449 2167 2004 2098 2210 2190 1881 1592 1891 1690 1356 1342 1598 1269 1362 1248 818 518 262 138 8 282 178 45 115 17
0 0 0 0 0 0 0 0 0 0 31 63 57 40 15 5 12 60 84 319 620 767 1132 1428 2111 2203 2298 2113 2457 2258 1940 1804 1701 2020 1534 1427 1310 1100 996 992 633 520 252 120 185 139 84 0 81
0 0 0 0 0 0 0 0 0 0 77 57 23 30 43 36 47 95 141 358 709 908 1174 1442 1894 2398 2463 2567 2379 2618 2212 2247 1820 1912 2117 1272 1599 1124 925 1016 867 614 430 227 202 136 57 24 4
0 0 0 0 0 0 0 0 0 0 36 116 61 38 31 3 51 137 279 380 877 1042 1076 1408 2171 2388 2579 2710 2716 2705 2627 2591 2305 1854 2091 1775 1394 1515 1269 1005 998 848 548 296 194 124 91 3 81

GFSSGP_con_mlcape_018.txt.gz
CAPE
396 287 201 125 61 16 9 68 65 36 11 20 5 18 0 9 0 0 0 0 0 5 24 69 443 964 1252 1370 1321 1439 1386 1143 1661 1666 1385 1639 1669 1900 1887 1775 1752 1714 1597 1574 1627 1903 1706 1498 1309
543 262 30 18 54 35 14 78 73 46 42 62 61 23 10 2 0 1 0 0 3 5 143 444 898 1036 1240 1279 1413 1614 1503 1519 1600 1520 1633 1607 1805 1827 1697 1692 1614 1563 1588 1663 1650 1649 1808 1778 1430
468 0 0 32 70 54 0 69 52 20 205 163 187 9 2 3 0 0 0 11 1 24 336 731 1069 1076 1216 1357 1497 1544 1453 1391 1637 1659 1363 1469 1667 1681 1621 1546 1485 1539 1610 1640 1689 1691 1705 1749 1470
808 58 27 414 64 113 43 75 99 137 149 45 7 6 14 34 20 4 1 0 0 48 369 887 1052 987 1146 1354 1466 1366 1203 1157 1590 1818 1466 1634 1772 1626 1451 1370 1344 1498 1684 1756 1560 1469 1252 1406 1563
463 224 93 39 154 146 64 136 242 162 221 133 5 43 11 60 12 15 0 10 0 92 544 766 900 903 1140 1313 1360 1316 1065 1113 1443 1688 1584 1519 1721 1550 1380 1139 1152 1413 1555 1765 1391 1166 1239 1006 1238
89 277 64 1 2 140 170 275 263 240 246 93 30 19 17 18 15 0 0 42 37 129 711 870 932 1044 1183 1210 1337 1183 1080 1118 1514 1465 1605 1414 1622 1398 1105 1080 1188 1413 1714 1602 1307 1102 1118 1235 968
29 18 4 0 178 198 288 248 292 269 151 80 16 3 48 75 87 48 74 127 47 331 665 1123 1268 1129 1138 1489 1474 1359 1244 1213 1270 1453 1351 1336 1250 1141 990 894 1063 1248 1429 1464 1255 980 998 983 709
72 24 0 0 0 183 311 358 293 206 253 219 93 21 111 166 70 135 161 198 80 263 530 831 1210 1301 1481 1580 1776 1772 1552 1352 1219 1343 1219 1131 1032 905 1122 1068 1155 1280 1105 1214 1189 987 980 980 1146
417 16 0 0 3 211 255 322 396 337 207 215 275 62 127 137 117 185 221 148 108 165 381 624 974 1309 1345 1413 1524 1610 1693 1529 1284 1193 1012 571 637 976 1017 861 992 1159 1177 337 198 790 989 1129 1191
389 13 1 0 19 92 263 340 501 217 198 288 231 205 170 191 206 251 210 245 163 201 248 473 794 981 1183 1177 1273 1275 1231 1183 891 695 399 535 595 789 1165 963 563 881 716 230 328 829 1319 1123 629
8 0 0 0 35 110 388 432 434 281 238 307 169 269 220 250 260 347 292 248 326 384 400 436 561 855 824 564 974 754 557 268 179 127 112 252 722 913 814 581 661 495 0 0 375 615 735 995 777
0 0 0 47 21 14 324 537 519 368 364 284 337 361 269 265 307 324 379 381 492 531 613 555 482 457 401 228 633 280 149 34 45 252 591 509 659 704 604 267 451 542 73 355 416 542 810 921 562
0 0 2 54 51 35 51 355 458 486 423 455 426 415 340 281 163 188 331 419 540 593 698 686 743 502 320 209 156 119 166 125 156 295 595 783 756 528 344 521 642 557 290 330 584 822 923 959 854
0 0 0 2 20 32 1 25 164 316 413 684 514 501 459 371 210 167 212 436 502 586 651 792 777 792 595 751 389 75 313 341 290 407 608 864 781 607 366 543 858 758 668 328 1012 787 565 525 214
0 0 0 0 0 2 28 9 43 496 485 739 644 580 552 424 311 191 162 266 493 588 708 737 816 836 779 926 708 187 513 660 561 588 846 981 1052 921 914 1032 980 830 1039 1125 628 801 682 50 5
0 0 0 0 0 13 13 21 284 664 594 575 761 661 513 457 409 294 220 138 284 569 681 717 914 832 877 903 439 1115 986 473 551 761 945 975 1005 1065 999 907 524 787 786 823 725 683 623 62 1
0 0 0 0 0 40 31 24 28 695 632 541 492 693 678 660 508 397 400 287 263 606 691 659 829 661 584 729 890 947 781 677 832 906 916 916 881 1087 1095 755 686 715 878 675 723 493 272 2 0
0 0 0 0 0 26 44 26 5 733 688 599 547 456 493 551 698 431 258 352 356 614 731 757 535 484 613 708 1214 772 771 579 784 766 867 1001 1121 1187 686 754 906 699 877 731 466 156 0 0 0
0 0 0 0 0 0 3 16 6 291 580 577 592 524 375 464 462 369 203 268 455 584 707 858 692 580 642 567 927 673 502 502 591 924 720 1187 1257 1231 740 709 1084 1056 881 434 185 4 0 0 0
0 0 0 0 0 0 3 10 0 24 156 284 356 391 368 318 326 363 302 324 331 522 814 888 752 623 560 691 765 658 391 446 413 757 735 780 805 1023 819 898 958 922 681 257 19 0 0 0 0
0 0 0 0 0 0 4 37 0 0 0 29 135 159 228 206 209 257 272 366 371 561 650 785 801 769 641 669 663 635 581 636 862 964 790 762 851 1010 937 1092 732 612 771 457 27 0 0 0 0
0 0 0 0 0 0 4 1 34 0 0 0 16 33 105 119 63 141 279 199 368 487 608 645 913 1002 942 956 772 811 435 793 1094 1176 999 872 1085 1057 1228 806 755 284 413 169 0 0 0 0 0
0 0 0 0 0 0 0 0 0 11 0 0 0 34 67 61 43 20 167 228 210 431 507 543 698 1128 1148 1146 977 889 656 739 791 953 1167 1302 1345 1220 1142 938 865 377 105 0 0 0 0 9 0
0 0 0 0 0 0 0 0 0 0 6 6 0 55 24 32 42 1 83 147 173 320 535 522 489 1048 1228 1255 1177 945 831 761 602 424 802 1231 1421 1431 1146 1056 993 289 107 25 9 0 0 15 11
0 0 0 0 0 0 0 0 0 0 0 0 5 0 17 21 23 0 21 102 130 208 535 699 634 633 1171 1200 1176 1135 1015 904 699 252 758 1189 1393 1351 1296 1131 878 347 85 0 3 3 0 0 1
0 0 0 0 0 0 0 0 0 0 0 0 23 0 0 13 25 8 19 113 115 234 561 892 811 742 1046 1220 1212 1186 1143 990 725 487 768 1116 1141 1289 1169 975 707 425 125 0 0 5 0 0 0
0 0 0 0 0 0 0 0 0 0 0 0 9 3 0 4 0 0 9 86 183 258 635 844 994 952 1141 1155 1186 1243 1217 1089 891 923 1256 1257 1279 1173 1035 955 851 468 120 48 26 49 11 23 1
0 0 0 0 0 0 0 0 0 0 0 0 15 12 13 5 5 2 0 110 266 241 671 962 1181 1103 1243 1390 1292 1240 1334 1421 1195 1180 1167 1163 1389 1294 1047 1032 831 433 179 72 34 32 67 14 9
0 0 0 0 0 0 0 0 0 0 0 0 0 20 59 75 43 26 37 67 196 364 713 1141 1285 1291 1464 1646 1620 1516 1289 1259 1522 1468 1454 1267 1205 1223 1110 964 733 478 243 114 54 20 53 20 0
0 0 0 0 0 0 0 0 0 0 0 0 1 53 91 106 53 39 61 60 163 490 747 1097 1520 1479 1534 1715 1816 1767 1667 1600 1370 1365 1485 1556 1509 1143 1157 1062 835 585 408 229 118 89 50 19 0

GFSSGP_con_mlcape_021.txt.gz
CAPE
235 270 109 72 14 0 16 58 29 0 0 56 4 1 2 0 0 0 0 0 2 0 14 100 427 1043 1371 1422 1477 1310 1236 1195 1238 1259 1582 1626 1711 1752 1754 1715 1684 1628 1585 1623 1954 1764 1608 1412 1326
279 161 4 24 15 7 20 90 61 29 57 43 46 28 39 0 3 1 0 0 0 0 1 210 650 1143 1305 1397 1433 1382 1682 1590 1430 1555 1757 1751 1780 1685 1619 1577 1533 1599 1690 1688 1649 1737 1873 1454 1051
436 3 4 33 15 9 27 79 49 110 200 226 31 17 2 4 6 1 0 0 0 13 56 507 738 1161 1210 1436 1482 1699 1845 1590 1451 1596 1654 1730 1659 1567 1500 1479 1547 1662 1685 1735 1717 1695 1677 1080 1148
52 0 16 37 11 68 80 96 84 228 90 104 32 2 10 0 0 0 3 0 0 114 248 692 999 1206 1128 1368 1423 1542 1642 1741 1593 1452 1594 1646 1581 1517 1431 1405 1473 1651 1713 1724 1484 1565 1469 1208 959
378 154 31 38 0 114 58 139 175 179 153 21 48 3 0 32 4 8 22 0 8 247 656 894 1176 1236 1275 1280 1306 1234 1343 1519 1763 1504 1538 1706 1581 1498 1355 1242 1419 1514 1721 1693 1369 1389 1390 1098 1096
193 122 12 0 0 47 62 286 224 216 135 50 18 2 39 40 4 9 21 0 84 315 727 940 1123 1190 1288 1313 1325 1245 1147 1330 1584 1612 1572 1698 1606 1361 1293 1316 1436 1630 1592 1560 1322 1215 1118 738 912
60 9 2 2 183 197 218 259 266 145 56 19 19 12 63 36 43 21 30 29 98 384 551 917 935 998 1182 1263 1278 1277 1104 1151 1454 1514 1529 1513 1348 1212 1121 919 1151 1135 1359 1390 1231 1058 912 837 860
98 4 0 50 198 142 310 322 268 94 111 54 30 3 9 77 82 72 90 56 127 410 496 669 844 930 1138 1273 1326 1315 1190 1077 1328 1375 1313 1253 1042 1175 1364 976 1138 1267 975 954 1003 874 983 1018 1063
79 25 0 0 0 206 329 366 268 252 102 44 187 37 41 130 111 119 131 83 148 333 477 659 809 966 1136 1283 1449 1546 1415 1114 1224 1321 1115 987 899 965 1039 920 874 1183 1217 338 415 678 1032 945 973
578 11 8 0 0 232 388 413 314 251 124 169 170 102 150 178 179 160 178 142 142 214 463 728 924 996 956 1288 1430 1473 1406 1182 1079 919 784 743 549 802 1093 916 841 881 890 115 495 1042 1000 888 521
165 0 0 0 7 332 437 448 398 248 134 162 4 122 201 159 210 208 216 176 111 186 341 613 921 1121 864 1001 1072 1098 1086 960 724 475 389 461 550 472 1204 624 428 533 0 0 268 539 638 850 471
0 0 0 0 22 359 434 523 461 270 116 231 45 126 158 171 190 235 218 228 105 173 219 427 700 905 854 752 805 675 613 447 158 119 155 100 447 649 927 311 244 393 54 90 376 460 729 638 305
0 0 0 0 0 114 432 572 545 400 480 305 244 162 157 211 200 233 207 282 209 213 222 282 556 570 611 203 371 277 159 140 25 2 115 471 448 437 600 305 171 422 244 203 317 555 780 854 683
0 0 0 0 0 28 397 621 611 497 545 367 303 217 221 228 242 272 281 296 288 404 350 380 400 364 371 58 35 64 129 79 9 11 296 609 674 511 293 270 482 627 612 283 530 695 585 410 139
0 0 0 0 0 0 172 523 532 549 566 492 419 309 279 251 258 284 329 301 339 472 526 496 332 312 175 2 0 0 3 106 37 148 368 490 711 704 433 329 768 767 781 696 497 548 522 10 0
0 0 0 0 0 0 0 14 471 532 608 563 464 428 316 259 238 200 306 331 390 451 533 577 609 459 185 121 90 166 97 110 313 446 436 640 739 813 610 749 869 539 894 719 600 668 490 66 1
0 0 0 0 0 0 0 0 93 428 648 577 549 541 409 342 287 177 197 278 339 420 515 583 724 544 537 420 582 619 495 471 491 517 632 773 857 965 838 819 551 611 621 595 642 475 302 11 0
0 0 0 0 0 0 0 0 233 428 623 621 645 627 566 450 429 292 185 158 233 420 512 551 688 658 619 558 730 653 797 598 351 535 686 795 946 1027 939 812 635 571 736 635 505 394 0 0 0
0 0 0 0 0 0 0 0 121 409 476 707 703 671 610 486 458 359 266 199 130 344 484 467 627 670 635 589 703 511 552 621 651 690 737 841 899 897 919 572 766 574 708 654 356 92 0 0 0
0 0 0 0 0 0 0 0 0 273 266 489 592 702 610 599 519 465 316 280 205 223 375 461 507 551 617 485 677 713 628 605 563 634 658 851 948 990 943 597 734 827 877 483 204 1 0 0 0
0 0 0 0 0 0 0 0 0 306 408 491 484 475 495 511 387 508 376 214 302 281 403 472 479 513 463 406 547 702 651 560 510 392 676 609 973 1133 1053 762 708 850 670 435 87 3 0 0 0
0 0 0 0 0 0 0 0 0 2 367 449 483 474 427 326 295 274 343 215 237 312 407 494 539 529 418 343 443 435 500 404 378 380 480 744 756 761 857 866 849 698 566 335 149 1 0 0 0
0 0 0 0 0 0 0 0 0 0 2 108 243 341 375 302 193 225 236 254 227 251 424 566 573 521 492 367 447 436 418 274 323 397 534 898 871 655 799 837 855 398 406 491 149 4 0 0 0
0 0 0 0 0 0 0 0 0 0 0 0 6 72 121 154 169 184 201 188 265 255 423 570 568 563 559 460 489 512 527 363 348 391 724 979 1131 1104 1037 894 843 518 103 113 44 0 0 0 0
0 0 0 0 0 0 0 0 0 0 0 0 0 1 13 12 76 106 129 169 178 338 503 513 473 623 674 618 615 633 632 484 453 526 694 834 912 1145 1202 1061 894 633 224 93 4 0 0 0 0
0 0 0 0 0 0 0 0 0 0 0 0 0 0 0 0 3 21 55 64 148 185 429 512 470 679 847 817 797 751 741 594 530 504 543 490 692 1003 1252 1213 1024 738 209 82 46 0 0 0 0
0 0 0 0 0 0 0 0 0 0 0 0 0 0 0 0 0 9 26 13 72 108 228 454 439 539 971 973 945 839 759 697 636 621 652 679 532 1121 1178 1196 1080 734 371 98 38 0 0 0 0
0 0 0 0 0 0 0 0 0 0 0 0 0 0 0 0 1 5 5 28 43 100 112 398 493 458 646 999 997 894 803 817 787 760 786 653 527 1038 998 1121 1071 691 406 176 51 2 0 1 0
0 0 0 0 0 0 0 0 0 0 0 0 0 0 0 0 0 0 18 18 34 59 70 292 557 559 540 851 987 972 895 960 907 879 838 790 853 1084 1119 1070 1022 676 468 256 135 59 0 0 0
0 0 0 0 0 0 0 0 0 0 0 0 0 0 0 0 0 4 33 31 38 76 98 336 549 670 670 809 923 953 982 1086 1065 967 964 837 873 1078 1141 1124 971 719 604 394 248 146 35 2 0

GFSSGP_con_mlcape_024.txt.gz
CAPE
223 336 94 104 57 1 15 74 10 3 2 25 1 1 7 14 8 2 11 0 0 0 46 102 307 1139 1277 1370 1307 1259 1305 1358 1506 1509 1522 1578 1583 1634 1657 1617 1543 1444 1477 1558 1634 1530 1423 1146 1094
189 167 16 6 34 11 15 49 0 1 39 20 15 10 24 9 0 2 5 0 0 1 62 97 359 1252 1324 1281 1294 1420 1384 1422 1578 1564 1650 1737 1624 1566 1538 1494 1530 1557 1595 1593 1416 1380 1390 1088 1057
287 28 1 27 13 10 5 57 37 60 121 108 24 13 1 2 2 0 0 0 0 1 82 157 869 1189 1280 1240 1667 1773 1526 1512 1621 1681 1746 1609 1561 1476 1424 1494 1624 1604 1648 1666 1553 1525 1160 1253 938
146 5 53 19 9 32 55 52 94 129 80 64 8 0 0 3 0 0 5 2 0 6 126 703 1162 1286 1230 1401 1801 1784 1511 1380 1532 1576 1588 1608 1535 1417 1429 1515 1625 1742 1795 1522 1463 1411 1383 1150 973
365 184 47 26 10 94 43 73 183 86 47 44 20 0 0 21 4 7 15 15 0 72 325 894 1124 1232 1296 1457 1664 1647 1627 1559 1553 1576 1688 1647 1523 1412 1304 1365 1584 1781 1786 1534 1398 1382 1244 1126 1135
148 91 37 15 13 22 126 147 153 145 74 20 0 0 27 20 10 9 9 32 84 159 550 1040 1134 1230 1288 1335 1284 1369 1578 1747 1540 1420 1643 1638 1528 1409 1333 1346 1577 1714 1696 1537 1185 1151 1080 942 1114
66 51 31 7 140 154 124 185 183 132 70 26 13 8 34 23 37 37 8 77 189 485 580 850 1038 1278 1317 1283 1246 1152 1333 1581 1596 1526 1382 1585 1578 1310 1175 1098 1332 1330 1539 1332 1061 1098 933 920 1040
286 8 9 19 192 173 233 219 202 90 66 33 39 2 3 0 64 49 30 82 208 420 540 658 844 1037 1161 1281 1339 1210 1102 1294 1432 1478 1491 1568 1501 1390 1450 1001 1139 1288 1159 753 1035 913 906 908 1029
223 92 0 0 114 76 243 260 180 123 53 44 72 37 29 56 71 64 48 72 191 403 516 653 623 812 977 1025 1183 1316 1224 1145 1260 1410 1345 1279 1103 974 1091 1049 870 1185 1098 602 591 915 863 701 764
718 130 0 0 0 99 300 333 244 129 21 70 100 27 55 72 75 78 51 38 89 100 324 467 554 614 874 1025 1076 1221 1183 1146 1008 1059 1031 1188 720 754 1162 1123 981 963 1084 3 732 1125 981 802 454
521 0 0 0 0 92 371 388 283 171 26 77 104 1 77 83 101 93 60 39 38 81 244 445 498 688 766 861 994 1333 1127 1078 876 766 774 686 505 411 924 837 423 562 16 0 292 426 691 684 126
13 0 3 0 0 260 372 405 359 252 105 130 102 74 108 94 99 121 127 62 41 93 178 388 560 625 711 720 828 1044 895 867 604 457 431 228 428 596 847 576 306 270 130 44 390 497 761 586 251
0 0 0 0 0 30 293 379 406 374 298 270 122 125 110 139 157 175 173 155 70 108 212 370 634 723 690 419 670 693 547 532 323 208 158 94 125 279 576 560 172 297 309 204 275 558 714 871 608
0 0 0 0 0 0 0 200 468 438 343 210 140 124 160 141 189 188 189 212 115 90 152 282 434 654 752 517 417 236 282 232 153 61 0 96 440 474 446 333 279 412 496 384 396 601 602 398 31
0 0 0 0 0 0 0 236 271 465 367 270 177 154 162 134 196 185 200 233 165 95 103 170 256 400 481 432 184 8 101 94 48 1 0 168 525 616 568 235 292 651 664 664 329 553 635 0 0
0 0 0 0 0 0 26 0 238 505 446 418 225 164 153 172 168 190 206 213 223 187 175 200 187 265 268 148 66 0 0 0 0 9 72 313 408 518 670 482 493 758 676 707 466 564 632 172 3
0 0 0 0 0 0 3 0 91 497 508 484 347 215 184 187 193 188 235 241 246 258 340 352 321 264 187 68 0 0 0 0 0 74 210 390 481 614 607 601 682 637 648 599 589 476 268 21 0
0 0 0 0 0 0 1 0 0 447 532 489 467 312 249 183 161 187 217 258 235 242 338 414 456 316 210 78 0 0 45 220 187 160 337 517 627 715 752 740 732 432 616 506 424 362 13 0 0
0 0 0 0 0 0 0 0 13 250 466 513 507 409 320 254 213 152 104 197 191 224 312 374 464 438 405 175 63 41 364 557 658 424 388 520 619 733 840 725 687 484 503 588 393 124 0 0 0
0 0 0 0 0 0 0 0 0 159 183 249 377 461 382 346 308 250 127 100 143 194 258 338 377 481 506 336 355 370 492 492 662 458 542 628 647 775 831 693 647 523 561 548 301 64 0 0 0
0 0 0 0 0 0 0 0 0 68 279 431 453 468 438 407 372 307 252 142 65 108 210 279 356 436 523 477 425 397 420 396 431 561 566 521 691 801 818 685 653 600 672 622 326 56 0 0 0
0 0 0 0 0 0 0 0 0 0 76 290 415 513 497 468 441 324 290 207 119 39 89 209 261 391 435 478 404 306 359 378 357 552 505 512 638 775 822 878 790 641 703 480 285 29 0 0 0
0 0 0 0 0 0 0 0 0 0 8 165 306 343 485 476 439 417 340 243 188 95 48 120 175 241 334 413 438 327 331 426 352 416 427 406 470 617 883 991 840 727 691 471 201 75 0 0 0
0 0 0 0 0 0 0 0 0 0 0 39 229 304 339 294 344 396 290 296 173 123 117 170 231 236 316 341 420 321 245 225 245 324 302 279 413 575 675 695 690 701 518 365 265 131 0 0 0
0 0 0 0 0 0 0 0 0 0 0 0 4 94 244 315 288 261 217 129 190 126 142 208 306 335 342 316 322 322 233 228 199 257 317 176 393 697 809 771 764 751 481 284 160 60 0 0 0
0 0 0 0 0 0 0 0 0 0 0 0 0 0 14 72 193 251 229 109 116 146 158 246 326 337 374 332 306 320 284 268 251 249 283 224 318 763 925 997 972 811 605 364 121 4 0 0 0
0 0 0 0 0 0 0 0 0 0 0 0 0 0 0 0 0 42 177 126 56 101 140 231 342 365 401 417 360 322 349 343 318 310 346 395 542 647 844 844 952 880 680 504 203 49 17 0 0
0 0 0 0 0 0 0 0 0 0 0 0 0 0 0 0 0 0 4 28 37 50 119 206 322 335 410 494 491 452 447 453 433 403 430 438 518 673 702 735 1007 947 756 524 278 114 50 0 0
0 0 0 0 0 0 0 0 0 0 0 0 0 0 0 0 0 0 0 3 4 11 46 162 288 356 388 597 628 630 601 597 514 472 525 543 567 666 810 671 953 899 819 625 428 179 96 13 0
0 0 0 0 0 0 0 0 0 0 0 0 0 0 0 0 0 0 0 0 5 2 13 63 253 336 363 650 793 797 755 735 625 564 605 638 652 719 806 624 909 923 709 709 627 465 215 83 1

GFSSGP_con_mlcape_027.txt.gz
CAPE
229 325 166 27 84 13 21 43 12 10 8 27 11 19 26 28 8 10 7 3 0 28 87 156 479 1069 1262 1398 1461 1288 1371 1589 1444 1566 1697 1584 1588 1635 1630 1576 1439 1559 1695 1625 1576 1527 1444 1284 1193
420 216 75 5 36 22 17 79 4 13 64 25 14 23 42 3 9 18 6 2 1 40 47 207 894 1267 1367 1447 1365 1389 1452 1515 1454 1628 1584 1581 1606 1593 1520 1535 1544 1462 1236 1434 1462 1488 1289 1241 911
288 96 17 57 30 22 39 80 17 79 95 45 34 45 46 19 18 13 11 2 10 42 162 355 1137 1287 1313 1416 1444 1513 1545 1574 1661 1695 1656 1569 1480 1424 1479 1591 1453 1531 1706 1562 1638 1363 1287 1218 1015
205 9 36 51 31 95 96 103 174 129 113 72 36 10 0 15 7 19 18 3 25 68 176 808 1283 1239 1332 1563 1602 1563 1568 1628 1656 1725 1579 1508 1383 1417 1533 1615 1666 1647 1657 1481 1492 1478 1376 1115 1043
224 286 120 43 47 168 110 188 231 129 100 80 33 0 6 46 10 12 21 10 24 73 290 874 1266 1294 1468 1754 1674 1526 1458 1556 1681 1695 1659 1582 1415 1367 1412 1588 1712 1631 1625 1474 1421 1217 1114 1161 1091
351 113 49 59 41 159 198 264 232 206 97 27 0 1 29 50 18 29 27 1 77 126 380 768 1196 1284 1476 1673 1646 1558 1485 1575 1662 1746 1748 1642 1524 1438 1448 1575 1747 1720 1599 1354 1239 1066 897 1059 1176
157 90 62 45 133 191 211 274 269 220 81 26 26 31 27 70 72 78 68 36 113 220 413 554 849 1133 1383 1473 1479 1535 1602 1608 1624 1609 1742 1734 1503 1313 1194 1303 1431 1542 1530 1308 1188 1002 963 995 1269
325 74 67 60 234 214 312 313 258 169 74 25 33 23 12 101 89 110 137 137 207 328 439 524 606 746 806 980 1242 1301 1423 1562 1673 1544 1379 1505 1400 1444 1533 972 1364 1279 1081 1013 1160 966 737 812 1055
330 152 22 1 144 50 330 351 181 98 44 46 54 22 49 108 116 129 200 214 365 422 453 427 550 964 1160 1042 1046 1198 1191 1422 1551 1323 1216 1131 1383 1494 1429 1168 1072 1401 1019 953 822 879 873 818 772
776 168 12 0 7 25 338 431 284 130 60 85 118 62 76 120 126 128 195 229 286 338 474 398 373 651 869 753 1121 1222 994 698 900 1032 1398 1469 1488 1373 1508 1421 1178 1359 573 52 831 867 1027 937 619
774 12 19 0 0 52 401 405 354 207 40 112 125 80 110 121 117 87 124 151 142 154 233 389 428 709 675 529 816 1023 943 982 939 1283 1302 1309 1275 1050 1357 1479 1079 1234 104 248 968 1126 1288 1038 274
68 34 0 0 0 101 380 484 390 205 69 89 201 111 136 146 133 109 109 151 137 144 157 254 359 611 713 706 687 901 936 907 817 802 1132 1001 1006 1272 1381 1474 1036 976 867 703 1132 1243 1326 1167 845
28 2 0 0 0 0 349 289 413 333 229 275 240 134 106 124 138 147 115 129 130 118 132 273 428 641 753 854 728 861 1127 837 752 843 679 676 582 759 1133 1361 1004 868 1134 909 1025 705 1357 1256 798
0 0 0 0 0 0 25 148 470 528 387 306 202 129 109 104 138 150 145 107 121 120 152 287 470 604 752 739 796 843 1081 877 908 528 356 393 572 1015 1106 1095 986 969 1269 1281 1018 1249 1245 184 64
0 0 0 0 0 0 0 27 45 456 421 342 190 167 140 129 122 161 200 257 182 175 271 392 556 695 892 839 669 788 792 623 453 314 254 159 560 1151 1306 1150 856 1183 1484 1403 1006 1143 1096 280 3
0 0 0 0 0 0 0 0 35 498 506 480 211 139 184 171 190 234 307 353 368 239 286 437 426 593 810 896 847 680 517 393 234 208 154 149 358 1081 1248 1201 1107 1359 1384 1377 1169 697 652 795 9
0 0 0 0 0 0 0 0 2 490 540 562 327 181 203 216 224 314 325 338 381 391 295 297 453 471 632 778 719 618 334 252 165 216 246 310 497 997 1097 1271 1386 1486 1406 1387 1056 1127 861 228 6
0 0 0 0 0 0 0 0 1 457 508 565 471 294 256 222 162 214 300 314 379 440 496 388 432 460 562 617 571 406 243 34 100 123 209 603 864 1078 1194 1313 1426 1369 1095 1168 1103 942 397 0 3
0 0 0 0 0 0 0 0 18 337 532 615 565 425 339 294 259 232 228 324 366 432 528 558 589 600 562 481 278 123 5 47 288 597 644 764 1001 1182 1353 1337 1472 1340 1089 1232 1034 733 247 9 0
0 0 0 0 0 0 0 0 0 186 317 514 595 527 440 433 384 327 307 340 407 466 533 609 646 785 643 580 398 195 87 150 745 1169 1253 1108 1083 1207 1427 1393 1436 1332 1177 1024 1074 546 102 4 0
0 0 0 0 0 0 0 0 0 36 222 526 678 643 513 508 485 382 332 306 424 461 523 542 622 842 814 600 656 534 628 744 908 1188 1161 1002 1222 1307 1359 1506 1429 1372 1245 1298 1211 550 141 19 36
0 0 0 0 0 0 0 0 0 0 0 192 519 630 621 557 574 542 415 354 348 465 494 546 642 814 945 942 788 573 358 272 643 922 1158 1192 1200 1299 1385 1540 1395 1311 1360 1326 1228 522 196 8 2
0 0 0 0 0 0 0 0 0 0 0 31 329 552 581 573 640 593 552 426 391 359 394 501 606 739 854 1004 883 818 678 641 825 898 981 1164 1217 1230 1412 1557 1406 1402 1415 1374 1071 466 249 74 0
0 0 0 0 0 0 0 0 0 0 0 0 153 416 627 612 645 684 635 600 495 386 278 427 606 576 771 873 891 875 910 790 783 861 797 877 1085 1141 1191 1544 1618 1714 1482 1366 1230 631 445 179 6
0 0 0 0 0 0 0 0 0 0 0 0 0 38 396 607 654 673 684 604 587 517 428 313 502 516 627 666 783 863 826 909 748 753 829 901 922 971 1154 1268 1411 1454 1257 1311 1133 736 495 244 42
0 0 0 0 0 0 0 0 0 0 0 0 0 10 266 436 525 657 717 744 661 593 535 445 476 538 599 595 616 767 840 960 909 815 851 952 916 962 1139 1287 1403 1384 1289 1219 956 776 498 169 96
0 0 0 0 0 0 0 0 0 0 0 0 0 0 0 219 446 480 649 697 626 679 549 527 490 605 657 625 631 662 804 840 882 852 892 901 1049 1005 1256 1305 1418 1541 1481 1278 999 692 387 141 78
0 0 0 0 0 0 0 0 0 0 0 0 0 0 0 0 99 307 590 607 593 536 608 476 543 590 724 737 720 735 759 830 884 940 820 885 1032 1067 1096 1365 1554 1556 1418 1349 1139 923 508 243 152
0 0 0 0 0 0 0 0 0 0 0 0 0 0 0 0 0 0 251 584 638 500 504 526 575 672 771 809 821 798 813 875 901 945 932 921 1061 1117 1209 1341 1363 1475 1322 1353 1264 1146 745 434 370
0 0 0 0 0 0 0 0 0 0 0 0 0 0 0 0 0 0 29 187 362 523 441 521 597 729 790 866 932 909 928 956 923 909 946 994 1005 1123 1215 1356 1382 1445 1348 1385 1293 1261 966 696 548

GFSSGP_con_mlcape_030.txt.gz
CAPE
47 154 225 251 55 204 91 63 59 14 73 57 80 92 161 62 11 100 16 122 38 42 231 388 726 811 786 1509 1749 1807 1587 1671 1637 1656 1692 1590 1617 1655 1580 1425 1583 1718 1665 1632 1615 1539 1356 1300 1416
208 173 122 123 236 136 97 156 56 125 106 63 64 69 98 1 14 29 81 134 85 165 149 530 852 1074 1447 1622 1671 1647 1564 1580 1750 1762 1682 1699 1704 1595 1535 1576 1690 1327 1613 1575 1505 1415 1375 1338 1094
430 123 156 314 158 85 89 177 195 170 95 132 183 257 260 24 41 20 48 111 175 10 411 632 1064 1342 1634 1541 1562 1557 1499 1580 1753 1705 1668 1663 1558 1553 1545 1303 1601 1668 1616 1706 1556 1253 1321 1112 798
219 100 72 359 134 103 123 141 216 388 224 148 190 177 27 96 74 77 32 72 30 264 413 686 1465 1586 1502 1488 1567 1573 1572 1673 1775 1679 1573 1483 1481 1604 1613 1611 1561 1741 1517 1574 1502 1451 1343 1162 885
200 412 406 195 89 171 164 216 323 250 242 250 223 54 4 46 50 40 36 94 231 290 377 732 1298 1340 1440 1528 1562 1593 1671 1732 1766 1677 1628 1501 1449 1489 1616 1746 1744 1662 1516 1446 1367 1287 1269 1296 1214
808 286 236 63 55 178 261 316 302 344 354 207 139 67 103 90 78 27 74 118 185 325 251 466 1152 1350 1614 1659 1592 1550 1605 1737 1795 1798 1693 1611 1495 1517 1606 1754 1749 1659 1452 1377 1256 1130 1151 1310 1187
601 234 177 106 142 95 299 357 328 365 268 119 112 143 170 120 95 94 118 115 152 296 126 222 394 1121 1578 1637 1620 1581 1639 1721 1818 1852 1748 1562 1419 1372 1374 1527 1547 1618 1514 1500 1378 1235 1180 1242 1209
680 283 222 194 199 166 402 401 327 287 214 129 128 92 139 128 130 133 127 174 198 247 122 167 326 607 841 1058 1617 1679 1716 1752 1702 1649 1640 1563 1428 1431 1389 879 1277 1485 1221 1232 1265 1174 1083 1021 1130
787 446 151 101 170 204 470 454 330 152 125 135 147 151 208 232 172 169 162 200 206 235 94 145 262 462 655 563 863 1313 1522 1660 1539 1268 1352 1017 1562 1555 1419 771 1337 1307 1016 920 1002 1000 1043 799 839
579 337 91 20 0 27 420 503 450 250 146 178 221 227 250 324 238 237 236 299 326 286 120 80 166 296 496 354 550 610 380 259 606 696 1046 1513 1650 1662 1369 1274 1008 1261 112 454 608 585 752 539 83
367 183 37 1 0 19 426 560 570 246 104 195 367 313 347 316 427 412 357 383 490 402 150 86 185 370 411 300 582 557 460 415 705 1238 1530 1652 1519 1528 1565 1365 976 1063 85 900 1143 1178 1027 278 77
166 42 39 15 0 0 172 530 563 423 100 191 423 382 428 407 434 452 447 433 520 436 248 135 161 334 368 323 380 411 367 406 270 363 1241 1462 1391 1533 1667 1302 1149 1015 890 1213 1150 866 1010 675 437
105 3 0 0 0 0 0 261 394 498 368 281 453 393 421 474 481 436 422 391 374 356 331 298 259 409 388 429 210 165 363 364 203 406 746 1159 1229 1417 1519 1591 1259 1368 1279 1109 1050 775 969 874 768
0 0 0 0 0 0 0 47 217 337 538 495 453 403 406 431 423 348 287 268 250 242 209 235 307 465 546 541 594 514 658 471 452 225 230 935 1119 1513 1439 1307 1204 1263 1376 1380 1008 919 938 515 279
0 0 0 0 0 0 0 0 63 179 668 688 518 422 408 440 411 364 292 251 243 192 168 195 341 430 626 766 926 859 543 536 327 134 341 748 1173 1717 2031 1343 1240 1236 1681 1155 1168 887 800 352 43
0 0 0 0 0 0 0 2 17 151 622 761 695 451 332 361 325 333 269 202 179 166 185 298 342 427 682 758 922 617 507 480 166 32 219 695 932 1597 1943 1139 1063 1536 1489 1138 1207 791 536 204 48
0 0 0 0 0 0 0 0 1 106 474 671 760 514 397 356 358 274 193 176 193 253 342 532 569 541 764 994 968 805 591 439 70 29 241 575 967 1330 1856 1620 1485 1959 1435 1315 989 855 729 87 48
0 0 0 0 0 0 0 0 0 155 264 518 751 660 582 487 393 331 248 299 514 560 568 740 785 762 959 1019 1119 799 452 145 55 79 190 499 1051 1268 1857 1597 1266 1210 1255 1136 1064 687 568 185 27
0 0 0 0 0 0 0 0 0 38 235 397 774 720 691 627 494 356 385 423 510 622 714 775 808 901 1076 980 769 475 117 22 5 84 360 848 1439 1780 2107 1601 1354 1633 1279 1064 1037 883 694 86 48
0 0 0 0 0 0 0 0 0 7 239 352 666 777 799 773 600 449 400 411 410 557 659 901 888 1000 1163 1005 828 366 71 35 49 158 689 1386 1627 1977 2084 1800 1426 1579 1384 1449 1486 945 341 87 0
0 0 0 0 0 0 0 0 0 0 126 281 522 674 760 825 713 547 368 349 370 477 691 941 1237 1315 1468 985 883 648 244 172 219 388 1160 1715 1990 1982 2260 1629 1094 1682 1514 1262 1644 1287 728 49 0
0 0 0 0 0 0 0 0 0 0 9 45 222 556 662 853 810 725 483 414 394 520 729 895 1329 1573 1749 1405 825 810 232 86 189 438 902 1238 1754 1854 1988 1943 1772 2213 1599 1602 1631 1414 831 494 0
0 0 0 0 0 0 0 0 0 0 0 0 27 188 553 678 816 862 717 438 458 558 692 910 1310 1665 1710 1805 1121 1131 910 320 221 372 906 1693 1751 1861 1716 2020 2206 2205 2010 1767 2132 1564 1234 578 4
0 0 0 0 0 0 0 0 0 0 0 0 2 68 463 621 772 857 923 697 511 596 761 877 1332 1689 1732 1730 1682 1524 1451 1044 502 732 791 968 1096 1422 1691 1806 2161 2207 2072 2068 2162 1913 1394 979 186
0 0 0 0 0 0 0 0 0 0 0 0 0 1 334 624 688 818 971 996 733 601 758 872 1219 1664 1696 1620 1707 1715 1699 1702 1396 1351 1165 1081 805 736 1186 1872 2001 1961 2368 2083 2140 2168 1432 1366 626
0 0 0 0 0 0 0 0 0 0 0 0 0 0 22 420 719 788 950 1084 1078 832 907 969 1142 1573 1714 1603 1829 1962 2007 1595 1668 1628 1255 1217 930 927 994 1598 1806 1958 1971 2183 2093 2082 1687 1136 954
0 0 0 0 0 0 0 0 0 0 0 0 0 0 0 101 672 835 889 1044 1149 1190 1211 1272 1333 1593 1670 1584 1897 2051 2060 1860 1301 1557 1865 1391 1475 1147 1252 1393 1845 1817 1965 2100 2177 1904 1770 899 911
0 0 0 0 0 0 0 0 0 0 0 0 0 0 0 28 569 772 903 968 1110 1270 1316 1378 1495 1437 1593 1688 1791 1778 1876 2037 1866 1951 1964 1744 1559 1595 1265 1575 1676 1774 1979 2256 2307 1845 1768 1473 832
0 0 0 0 0 0 0 0 0 0 0 0 0 0 0 7 358 499 614 802 986 1212 1383 1467 1559 1588 1622 1725 1855 1819 1780 1840 1977 1951 2011 2098 1827 1942 1871 1781 1787 1677 2069 2296 2413 2100 1717 1767 1316
0 0 0 0 0 0 0 0 0 0 0 0 0 0 0 0 0 36 249 514 738 1021 1212 1399 1442 1525 1616 1684 1893 1874 1924 1918 1803 1979 2008 2147 2027 2015 2163 2070 2030 1864 1820 2062 2239 2254 1711 1872 1628

GFSSGP_con_mlcape_033.txt.gz
CAPE
23 92 167 33 66 189 167 123 66 109 93 154 86 312 131 180 306 6 0 0 0 2 109 216 797 1191 1251 1670 1793 1754 1619 1822 1654 1709 1603 1615 1619 1457 1469 1648 1706 1706 1641 1629 1588 1362 1318 1434 1323
23 272 295 330 107 59 97 96 110 114 185 134 179 190 156 10 95 135 2 0 1 9 109 156 1018 1130 1561 1792 1820 1727 1636 1656 1805 1655 1637 1597 1578 1547 1628 1697 1500 1711 1645 1541 1449 1402 1364 1162 1089
108 224 318 310 522 41 95 145 252 195 196 187 310 395 374 51 116 235 14 72 23 75 447 593 978 1259 1688 1805 1731 1632 1578 1721 1679 1639 1636 1484 1537 1335 1511 1447 1672 1619 1707 1639 1323 1389 1272 1076 914
288 207 77 72 29 107 173 134 425 277 272 265 308 230 204 137 100 214 50 19 243 299 395 674 1258 1476 1592 1568 1572 1521 1512 1718 1702 1533 1424 1498 1652 1591 1741 1534 1754 1463 1575 1515 1521 1483 1358 1197 1037
309 220 372 193 117 134 180 353 393 226 317 275 448 254 192 109 130 162 101 260 57 470 608 835 1309 1638 1533 1487 1555 1543 1619 1779 1571 1494 1436 1509 1562 1595 1846 1831 1647 1522 1475 1476 1402 1408 1478 1461 1385
908 774 210 66 75 127 179 253 262 379 372 293 451 186 258 191 115 185 178 61 385 425 169 864 1432 1406 1441 1396 1577 1648 1686 1685 1668 1598 1547 1520 1552 1635 1770 1829 1727 1505 1456 1416 1362 1290 1473 1415 1279
687 376 90 54 43 59 163 218 226 263 298 347 261 440 242 216 139 107 144 314 356 155 116 521 776 1105 1454 1516 1491 1534 1611 1684 1787 1714 1625 1501 1434 1389 1440 1556 1672 1617 1570 1556 1464 1316 1262 1356 1176
684 355 150 115 0 43 19 84 78 266 288 318 398 337 227 232 78 118 197 225 339 168 8 63 282 588 717 827 1372 1461 1582 1672 1803 1798 1721 1578 1438 1251 835 964 1367 1445 1343 1275 1469 1150 942 1098 1097
501 391 258 31 18 59 39 2 35 122 241 298 285 416 362 202 171 207 167 231 255 151 9 1 144 411 628 594 1088 1417 1530 1625 1535 1278 1133 1236 1504 1630 1533 1276 1069 1154 976 964 939 797 1031 1030 1104
211 72 220 51 20 53 120 23 0 82 146 238 378 556 346 358 209 259 269 246 338 115 34 28 129 226 368 211 641 604 488 439 714 974 893 1067 1459 1317 1365 725 875 1142 271 546 364 580 938 1090 786
172 97 85 19 6 146 114 95 33 40 90 233 519 562 427 457 372 294 354 326 368 158 93 112 143 195 176 218 166 304 155 336 775 1239 1405 1266 1203 1358 710 723 647 939 187 511 780 826 1193 102 234
31 108 60 24 1 21 117 153 182 68 33 222 462 604 562 478 480 496 540 529 492 296 90 106 184 204 154 323 195 213 181 285 320 727 1586 1517 1230 1155 1116 1210 1129 1074 814 1100 835 869 887 928 413
7 60 43 42 7 16 41 247 335 286 51 96 470 630 657 629 600 612 583 600 610 299 146 105 191 394 375 458 185 249 188 162 142 481 1119 1213 1187 1154 1268 1240 1159 1141 1078 1144 960 795 815 722 306
23 19 49 8 10 1 0 119 232 495 293 377 409 564 629 678 695 725 612 530 548 348 199 174 203 407 580 509 471 214 263 305 228 198 525 1349 1187 1230 1227 1067 1087 897 1314 963 1027 1023 854 673 281
28 0 1 2 0 0 0 38 150 377 582 527 499 526 609 729 692 631 544 466 438 392 277 272 315 476 559 620 713 598 406 330 216 238 372 1014 1239 1617 1586 1285 954 1127 1522 1303 1174 1104 1060 180 69
0 0 0 0 0 0 0 21 34 164 554 720 623 465 491 618 673 612 522 469 365 351 366 342 293 435 649 623 780 666 430 320 252 116 231 867 1297 1894 1967 1418 977 1395 1316 716 879 409 249 235 20
0 0 0 0 0 0 0 0 14 94 314 600 748 614 425 492 569 567 499 425 382 382 367 341 333 293 546 816 883 803 571 442 235 62 82 951 1132 1468 2037 1094 982 1602 1295 789 389 442 258 16 27
0 0 0 0 32 0 0 0 3 61 229 371 746 760 587 430 448 501 465 381 343 340 373 506 501 681 905 936 1139 798 487 447 211 33 43 1050 1170 1404 1923 1576 1622 1293 1292 957 963 675 91 97 4
0 0 0 24 40 2 9 38 4 63 146 248 619 783 719 581 388 350 398 315 266 292 400 643 801 998 1083 1023 850 630 400 352 70 22 108 547 982 1451 1896 1779 1870 1341 1458 1302 1003 884 404 148 3
0 0 0 0 32 0 27 28 33 39 88 179 497 681 756 766 604 328 349 232 234 475 699 1053 1229 1549 1429 1154 1074 679 522 101 15 0 299 567 1155 1598 2019 1889 1462 1625 1200 1331 1573 935 645 8 0
0 0 0 0 1 10 0 5 11 23 56 133 363 718 649 806 802 520 325 267 260 501 929 1238 1504 1702 1644 1359 1298 1008 588 260 44 49 219 803 1515 1704 2297 1979 1313 1701 1736 1435 1725 1161 430 133 0
0 0 0 0 0 3 0 0 0 1 14 88 168 613 668 708 830 769 387 315 275 414 749 1318 1743 1813 1867 1732 1099 945 476 136 58 134 146 778 1663 1680 1984 1425 1359 1828 1400 1429 1770 1327 953 189 0
0 0 0 0 0 0 0 1 1 8 7 25 61 340 502 672 846 847 717 331 281 345 560 1009 1839 1990 1769 1845 1453 1035 816 136 120 139 325 811 1756 1822 1520 2001 1494 1821 2098 1499 1437 1745 1470 523 66
0 0 0 0 0 0 0 0 0 1 9 19 31 64 213 370 711 898 894 567 326 307 462 935 1776 2200 2215 2314 1664 1825 977 660 228 190 391 729 933 1697 2011 1788 2285 2041 2161 1691 2126 2162 1891 1305 183
0 0 0 0 0 0 0 0 0 0 0 4 5 20 46 180 524 848 956 849 568 427 571 881 1620 2216 2456 2521 2233 1929 1989 1523 1659 1067 460 628 684 611 1507 1952 1914 1894 2441 2001 2001 2549 2028 1722 1005
0 0 0 0 0 0 0 0 0 0 0 0 16 13 21 67 533 798 974 1073 925 728 889 1052 1614 2301 2568 2428 2436 2293 2436 1928 1470 1374 907 802 703 574 906 2171 2019 2096 2182 2280 2351 2375 2192 1667 1488
0 0 0 0 0 0 0 0 0 0 0 0 0 0 5 42 331 613 939 1138 1237 1024 1200 1270 1556 2158 2547 2306 2522 2651 2632 2365 1846 1762 1825 1806 1390 783 1261 1946 2240 2142 2156 2290 2390 2029 2438 1704 1545
0 0 0 0 0 0 0 0 0 0 0 0 0 0 0 1 163 539 831 1091 1341 1261 1303 1474 1674 2178 2347 2161 2415 2592 2819 2853 2423 2365 2469 1937 1940 1782 1842 1499 1815 2155 2228 2318 2530 2012 2226 2126 1234
0 0 0 0 0 0 0 0 0 0 0 0 0 0 0 0 45 403 825 1019 1263 1358 1338 1516 1749 2128 2442 2360 2378 2396 2641 2744 2883 2410 2622 2561 2583 2647 1846 2288 2029 2171 2305 2388 2693 2295 2011 2268 1983
0 0 0 0 0 0 0 0 0 0 0 0 0 0 0 0 7 335 807 819 955 1267 1400 1560 1712 1787 2452 2521 2457 2459 2567 2671 2710 2853 2484 2813 2806 2655 2833 2499 2554 2424 2407 2443 2653 2622 1496 2244 2238

GFSSGP_con_mlcape_036.txt.gz
CAPE
2 2 44 86 72 84 18 63 14 31 96 228 178 212 157 301 100 6 0 0 0 17 154 471 966 1129 1417 1652 1409 1450 1685 1342 1535 1448 1413 1654 1367 1514 1634 1542 1582 1583 1630 1550 1324 1336 1448 1353 1352
13 101 204 162 56 59 31 127 116 116 150 293 185 135 91 52 0 1 0 0 0 0 54 272 889 1235 1549 1481 1408 1488 1448 1764 1353 1507 1418 1447 1541 1617 1566 1515 1652 1544 1479 1450 1404 1362 1188 1100 1268
57 276 146 207 153 16 99 202 142 227 194 322 413 436 164 129 0 0 0 0 0 0 6 713 985 1291 1361 1331 1528 1396 1621 1547 1421 1524 1365 1405 1369 1498 1445 1598 1505 1601 1544 1288 1364 1300 1134 1008 1045
113 188 128 25 36 87 281 77 179 348 342 362 309 331 162 112 3 0 0 0 0 22 292 713 979 1496 1604 1564 1493 1484 1578 1542 1529 1392 1422 1665 1639 1653 1553 1662 1404 1505 1481 1531 1531 1450 1348 1123 1068
386 346 104 17 79 232 284 413 263 181 256 424 438 118 191 261 0 0 0 0 1 327 720 625 1324 1593 1568 1450 1434 1495 1652 1535 1408 1352 1496 1538 1585 1802 1805 1558 1480 1454 1477 1424 1468 1553 1497 1407 1217
481 25 23 25 86 205 252 167 405 309 429 545 243 53 105 93 19 28 0 55 399 450 587 865 1430 1576 1407 1415 1507 1562 1722 1452 1472 1415 1466 1499 1642 1857 1851 1684 1493 1439 1406 1371 1290 1390 1332 1191 889
3 0 2 18 130 216 229 236 222 210 290 450 219 373 134 119 25 7 270 82 329 225 565 845 1317 1439 1401 1466 1590 1602 1560 1555 1631 1529 1526 1514 1461 1507 1588 1699 1626 1518 1519 1441 1199 1164 1313 1147 930
525 16 124 256 22 16 93 128 138 401 334 588 321 175 156 181 154 169 92 254 177 21 275 661 1030 868 812 1134 1425 1441 1472 1629 1691 1642 1588 1537 1449 1308 1159 1209 1582 1461 1321 1104 1175 1129 1102 1361 1009
176 154 124 132 17 6 9 65 170 183 328 507 653 209 198 235 158 122 342 397 210 154 116 235 261 607 773 847 1144 1330 1408 1553 1629 1188 1282 1064 1242 1322 1436 1360 930 939 928 723 1083 1169 1159 1206 1416
168 8 0 22 2 94 13 3 29 93 131 617 447 339 200 153 216 214 249 377 207 5 0 52 134 473 650 390 951 1022 892 983 1130 1005 6 0 884 927 1256 892 753 820 365 616 795 406 1017 886 1183
92 54 1 8 32 73 11 3 66 18 97 677 512 296 252 210 254 318 344 290 271 11 0 27 247 375 264 441 504 777 704 765 763 488 261 23 756 868 1014 489 740 884 393 650 3 120 879 983 1069
103 41 11 16 25 21 10 13 16 27 100 672 553 343 360 297 399 369 352 368 259 16 16 13 291 340 220 394 36 443 298 451 974 988 750 719 136 670 97 1200 1047 1227 554 383 471 651 793 175 140
24 73 31 4 26 127 8 56 57 55 257 498 623 487 433 463 426 392 370 353 385 131 39 120 265 225 401 815 44 248 297 210 485 1049 980 740 595 1064 752 1290 656 813 869 728 893 1142 890 691 266
32 86 53 54 55 12 15 98 31 15 54 305 580 545 528 489 499 626 517 480 438 264 59 423 430 251 894 587 807 506 316 95 309 340 932 1319 1321 1193 1459 1426 886 1164 928 523 1149 1287 910 393 313
6 21 33 29 33 20 0 30 149 102 138 261 528 622 560 526 701 608 755 723 314 286 134 387 588 407 848 565 733 638 552 199 91 639 1021 963 1084 1581 1061 1438 1085 1129 1431 1392 1203 167 547 149 37
2 14 23 25 43 12 0 0 51 263 316 375 415 495 646 637 463 616 775 681 793 300 242 300 140 478 448 714 738 781 501 362 385 277 591 964 1175 2012 2168 1462 1093 447 997 1241 529 1152 434 105 181
7 4 21 40 14 0 0 0 9 372 317 483 422 391 457 659 559 616 389 507 401 398 463 491 220 475 590 862 1009 618 674 640 420 315 505 776 1270 1610 1929 1134 681 1565 1403 1204 767 620 563 206 28
0 0 4 8 6 0 0 0 14 12 275 520 578 459 431 508 585 576 411 392 422 642 670 625 445 833 883 851 794 1019 784 584 463 288 108 912 1185 1387 1652 1394 999 1493 1347 719 428 576 81 58 9
0 0 0 3 4 1 0 0 14 28 57 294 581 626 470 428 498 623 513 419 473 664 820 560 691 727 1031 853 915 1042 609 589 436 314 210 1046 1150 1378 1665 1238 1064 1320 1171 1311 770 756 219 217 0
0 0 0 0 13 4 13 10 26 29 13 10 465 728 633 452 378 590 524 428 419 551 842 780 702 921 1255 1120 1190 973 909 624 438 145 337 968 925 1547 1633 1585 1504 1557 913 1224 1126 1144 595 68 0
0 0 0 0 0 2 2 15 43 36 21 52 404 626 726 627 471 471 538 442 359 652 811 922 901 1415 1511 1311 1447 1187 1059 733 455 120 194 437 904 1426 1699 1447 1506 1478 1476 1237 847 647 776 76 0
0 0 0 0 2 5 26 33 22 34 25 53 73 527 632 733 648 455 586 485 390 565 789 1107 1174 1385 1810 1543 1325 1312 835 605 370 85 222 595 807 1556 1974 1516 1895 1467 1454 1286 1435 1365 1098 188 0
0 0 0 0 0 0 0 13 17 9 26 33 95 322 614 678 763 674 523 509 433 507 1041 1349 1545 1604 2032 1313 1844 1212 1070 688 281 423 243 562 1253 1677 2050 1846 1677 1619 1570 1385 1409 1740 845 809 225
0 0 0 0 0 0 0 1 3 3 0 20 44 106 580 648 789 975 700 573 448 590 1218 1476 1858 1783 2041 2033 1280 1989 1204 909 474 228 558 823 1855 1761 2017 2197 1678 1692 1902 1874 1356 1700 1806 1373 595
0 0 0 0 0 0 0 0 0 0 5 1 8 68 466 588 745 1032 978 742 555 670 1027 1314 2108 2063 1997 2127 1717 1308 2216 986 1159 759 208 733 1000 1762 2010 1988 2232 1830 1565 2071 2255 1855 2208 1253 1271
0 0 0 0 0 0 0 0 0 0 0 0 18 51 96 420 522 1025 1183 989 716 653 877 1207 1965 2068 2195 2096 2282 1502 2217 1962 766 1769 892 418 967 1079 1823 1595 2189 1998 1792 1955 2337 2610 2243 2201 1315
0 0 0 0 0 0 0 0 0 0 0 0 4 48 68 107 279 881 1212 1223 924 707 900 1126 1670 2234 2408 2109 2608 2458 1462 2496 1844 1309 1552 1464 784 1297 1250 1859 2164 1903 2217 2435 2303 2205 2618 2188 1941
0 0 0 0 0 0 0 0 0 0 0 0 0 1 25 32 151 687 1105 1390 1228 925 913 1078 1625 2115 2424 2635 2422 2622 2189 2189 2404 1854 1746 1271 1781 939 1677 2163 2067 2318 2146 2696 2413 2566 2162 2219 2180
0 0 0 0 0 0 0 0 0 0 0 0 0 0 8 19 138 536 1154 1331 1530 1273 1159 1156 1363 2106 2544 2617 2610 2554 2678 2195 2135 2362 2205 2544 1669 2530 1368 2776 2324 2334 2510 2453 2669 2330 2241 2422 2145
0 0 0 0 0 0 0 2 0 0 0 0 0 0 0 8 277 450 956 1292 1603 1661 1443 1463 1538 1866 2466 2913 2819 2548 2577 2832 2561 2085 2385 2687 3016 2111 2995 2133 2273 2639 2360 2545 2581 2655 1984 2460 2386

GFSSGP_con_mlcape_039.txt.gz
CAPE
11 0 6 58 104 36 6 29 57 36 82 231 50 224 97 18 23 0 0 0 0 10 455 1069 1004 1048 1452 779 918 1400 1138 1160 1427 1636 1252 1549 1633 1651 1589 1633 1673 1710 1424 1353 1448 1543 1422 1440 1094
26 15 98 67 57 43 6 41 101 102 260 89 104 99 86 1 0 3 0 0 6 34 407 837 1156 1326 1278 756 1446 1200 1653 1250 1758 1688 1362 1618 1771 1577 1681 1654 1588 1535 1493 1454 1397 1263 1217 1367 1290
54 188 56 79 119 9 44 117 163 217 159 204 225 87 130 0 5 0 0 0 0 27 370 917 1234 1517 1147 1160 1183 1513 1376 1598 1489 1214 1367 1516 1618 1658 1560 1612 1700 1533 1458 1462 1357 1208 1120 1076 972
64 198 102 112 14 37 32 158 316 291 498 370 71 25 16 0 0 0 0 0 0 41 378 1214 1378 1388 1459 1277 1367 1323 1430 1351 1256 1426 1595 1735 1711 1693 1571 1580 1625 1612 1660 1623 1512 1410 1134 1047 885
194 185 130 7 21 30 3 211 379 365 448 371 68 44 7 0 0 0 0 0 0 323 407 932 1495 1472 1538 1327 1397 1426 1486 1371 1339 1587 1641 1704 1873 1801 1613 1593 1615 1602 1555 1568 1541 1400 1366 1185 656
92 1 1 19 30 55 173 215 464 394 330 208 59 47 29 0 0 0 0 0 70 438 416 1045 1516 1514 1282 1351 1394 1523 1360 1388 1427 1540 1545 1656 1922 1902 1698 1613 1591 1558 1512 1421 1487 1503 1371 1140 709
1 2 0 24 59 101 148 261 597 480 330 110 81 115 0 0 0 0 0 0 338 465 538 1122 1432 1278 1226 1329 1504 1596 1346 1528 1468 1571 1542 1552 1623 1649 1656 1559 1594 1568 1428 1285 1258 1374 1176 1173 893
11 0 0 17 45 53 108 113 263 549 457 210 134 12 0 0 0 0 2 234 494 568 668 1049 1193 1130 1103 1320 1525 1404 1386 1604 1529 1496 1414 1394 1369 1392 1333 1392 1594 1482 1301 1221 1181 1200 1167 992 936
90 7 31 5 23 23 99 340 484 521 345 397 325 124 20 5 5 59 77 189 233 477 554 997 942 796 793 1067 1263 1329 1371 1549 1546 1519 1203 585 741 1147 1184 1314 975 876 883 959 1101 1076 866 1249 861
259 76 0 3 6 1 46 253 396 565 402 299 250 180 57 10 106 156 86 187 180 301 364 682 519 410 602 692 986 703 862 1054 1121 831 0 46 232 601 1312 963 837 859 479 669 671 453 611 604 850
175 104 0 13 12 21 28 79 182 458 331 144 140 193 254 137 96 149 190 288 80 135 197 162 278 456 431 537 249 461 514 743 878 83 0 0 68 498 787 517 624 667 393 461 17 213 579 954 697
103 74 79 51 37 9 0 11 33 441 483 223 258 296 243 182 175 243 272 162 37 21 0 0 358 452 322 288 83 446 533 609 683 275 0 111 0 402 564 762 681 975 538 356 475 530 680 235 402
24 127 130 55 15 28 15 8 314 656 490 331 238 224 163 283 205 227 265 249 25 0 0 0 243 347 264 52 6 283 283 398 757 484 73 151 76 583 554 917 683 673 483 464 827 792 872 211 191
4 43 89 3 43 82 48 57 229 683 413 297 243 170 187 246 181 228 261 299 54 4 0 84 140 392 215 61 0 34 490 290 973 966 589 480 411 879 891 1176 1041 765 621 327 779 951 475 310 90
0 19 101 78 52 41 45 35 22 659 512 377 372 240 227 237 243 223 154 251 105 60 0 101 38 331 366 383 564 443 462 153 458 840 1123 1147 1230 922 941 749 1027 770 834 750 981 57 302 97 58
0 0 1 32 15 48 42 52 118 370 381 482 484 356 339 328 216 246 121 147 208 202 120 111 48 314 328 225 350 337 305 484 417 725 627 710 926 1525 1000 928 830 934 1257 1236 960 797 192 129 62
0 0 0 9 31 59 1 5 57 53 423 567 512 516 411 410 361 235 133 118 132 134 216 144 126 121 431 195 339 283 341 440 655 688 481 455 671 1566 1357 767 670 858 1179 812 341 852 427 208 93
0 0 0 0 31 32 6 0 132 109 293 40 453 590 487 468 431 483 390 245 91 23 216 152 246 138 173 350 435 200 125 418 581 613 371 490 597 1193 1141 1019 555 1112 871 648 316 86 40 25 4
0 0 0 0 0 20 13 0 206 291 144 165 373 461 630 507 400 465 528 410 297 165 158 49 204 328 192 361 213 447 48 374 534 174 837 655 821 1148 1095 1030 853 1020 969 735 424 77 25 15 0
0 0 0 0 0 4 0 0 4 247 341 324 190 299 388 570 464 401 168 290 385 371 243 95 337 473 334 505 355 569 849 424 534 145 794 815 1015 1194 1234 941 1007 1189 1090 1038 950 734 129 46 0
0 0 0 0 0 0 3 0 7 215 219 97 113 19 432 500 461 400 197 168 368 366 273 328 280 642 538 572 603 433 861 735 581 278 111 1037 975 1348 1219 1207 1187 1345 915 727 624 796 492 0 0
0 0 0 0 0 0 0 0 0 60 118 146 321 7 263 361 371 430 278 232 253 509 378 279 374 653 765 762 813 597 461 745 693 308 82 413 851 760 1106 1457 975 1212 1180 1027 662 650 576 0 0
0 0 0 0 0 0 0 2 3 13 61 42 181 89 445 226 266 403 359 345 213 463 593 389 380 576 996 932 897 883 777 771 494 363 57 168 303 520 1342 1439 1246 1211 1577 1162 789 1558 674 190 7
0 0 0 0 0 0 0 2 0 0 0 9 72 332 502 460 305 341 429 341 312 491 656 655 472 569 965 1064 1091 807 1072 729 689 217 98 215 529 568 1035 1822 1470 1342 1325 1165 1202 1339 854 682 333
0 0 0 0 0 0 0 0 0 0 4 5 35 267 574 601 440 346 477 333 363 482 598 798 689 627 1037 1034 861 1378 974 895 477 469 119 324 899 923 1126 1880 1615 1474 1293 1467 1209 1198 1416 570 557
0 0 0 0 0 0 0 0 0 0 0 1 38 106 516 609 350 485 450 398 368 359 628 998 969 894 1036 1252 1025 791 1662 1257 802 819 456 179 766 1135 1160 1600 1755 1490 1310 1284 1698 1611 1449 1286 439
0 0 0 0 0 0 0 0 0 0 0 0 0 48 468 609 643 667 496 474 353 402 792 952 1328 1123 1238 1488 1512 1030 958 1969 1177 528 1105 770 482 991 1215 1417 1868 1771 1487 1118 1503 2253 1649 1920 1523
0 0 0 0 0 0 0 0 0 0 0 0 0 0 140 524 696 916 660 575 437 386 709 1077 1546 1484 1443 1511 1706 1546 908 924 2047 1120 538 1373 634 426 1301 1449 1740 1795 1587 1380 1228 2146 2155 1799 1922
0 0 0 0 0 0 0 0 0 0 0 0 0 0 34 498 706 1072 940 755 607 464 718 948 1322 1770 1791 1724 1529 1742 1579 1055 1460 1911 953 824 1315 1353 583 1363 1792 1662 1728 1700 1578 1599 2080 2104 2073
0 0 0 0 0 0 0 0 0 0 0 0 0 0 0 275 356 1161 1182 1026 863 648 734 914 1077 1632 1761 1862 1730 1843 2116 1926 1201 1810 2103 690 1397 1104 1928 1688 1770 1989 1771 1716 2109 2012 1896 1857 1747

GFSSGP_con_mlcape_042.txt.gz
CAPE
3 0 8 35 72 15 1 10 27 58 85 78 1 32 13 2 4 0 0 0 0 325 786 933 1211 1146 925 1516 1243 1343 1282 1624 1626 1618 1739 1761 1700 1798 1818 2029 1615 1517 1593 1662 1768 1676 1587 842 1232
0 3 104 92 49 29 0 3 52 63 191 183 98 86 54 0 1 4 0 0 33 547 894 750 1332 945 942 1496 1215 1295 1622 1991 1606 1804 1957 1771 1761 1747 1672 1724 1686 1674 1594 1602 1532 1521 1580 1288 715
8 124 99 21 4 9 27 1 90 139 174 155 81 96 28 0 4 0 0 0 133 369 670 939 1266 895 1407 997 1695 1104 1781 1592 1570 1478 1701 1855 1779 1673 1848 1701 1647 1695 1611 1524 1438 1396 1309 1212 897
54 168 98 61 18 27 23 197 262 172 262 181 72 2 0 0 0 0 0 0 62 268 817 1377 1289 1166 1125 1253 1529 1374 1575 1442 1552 1598 1937 1867 1817 1615 1756 1733 1749 1776 1698 1576 1520 1274 1181 1131 827
49 111 41 20 33 17 39 59 145 296 343 91 13 0 0 0 0 0 0 0 30 436 1087 1426 1373 1476 1148 1543 1187 1421 1372 1233 1650 1729 1855 1982 1801 1706 1766 1798 1763 1739 1715 1701 1605 1542 1384 1054 902
32 0 0 0 13 10 18 118 97 352 267 86 0 0 0 0 0 0 0 0 214 421 1106 1361 1573 1558 1170 1239 1554 1371 1184 1350 1658 1706 1803 2042 1976 1814 1758 1739 1722 1646 1576 1624 1557 1439 1159 807 767
0 0 0 0 0 31 4 106 174 271 200 102 4 0 0 0 0 0 0 237 301 468 1063 1406 1526 1345 1178 1330 1576 1341 1338 1445 1571 1581 1663 1727 1816 1769 1675 1717 1682 1636 1540 1454 1211 1163 748 509 304
0 0 0 11 26 19 19 191 277 285 190 117 0 0 0 0 0 0 0 431 318 417 919 1035 1215 1064 1092 1348 1520 1363 1572 1506 1521 1480 1430 1450 1456 1477 1478 1373 1705 1662 1475 1356 1096 877 625 627 399
0 0 5 0 2 3 28 322 454 321 131 124 104 0 0 0 0 0 13 452 453 460 840 971 879 817 977 1118 1311 1313 1568 1481 1436 1515 1243 735 659 850 1253 1038 1254 1168 779 909 1098 1092 876 283 389
170 19 0 1 0 9 14 297 471 351 395 244 18 0 0 0 0 8 211 525 523 393 705 739 631 464 672 923 1071 966 1145 1203 1136 575 195 266 442 750 1086 1011 816 994 484 814 216 502 1019 853 470
315 144 23 5 7 14 4 494 398 414 351 256 62 1 8 0 23 157 324 470 543 451 666 584 342 393 318 148 437 496 556 787 839 292 0 86 237 551 754 705 600 514 367 400 13 304 464 518 691
93 246 85 1 5 24 29 69 449 419 189 251 76 86 60 31 227 205 286 306 491 430 447 364 85 304 282 32 0 27 260 579 580 10 0 2 101 391 546 336 247 520 313 288 330 438 508 276 401
13 22 32 34 3 2 1 31 246 370 308 235 124 104 96 170 261 228 317 216 319 218 114 42 29 257 243 0 0 63 259 448 630 96 0 0 112 255 343 555 671 543 529 344 621 633 578 370 26
1 1 12 3 0 4 0 27 336 380 261 272 181 85 170 192 213 296 383 163 135 68 27 0 154 201 226 26 0 56 258 264 489 381 32 167 146 494 523 615 431 518 400 362 462 526 412 197 43
0 0 21 0 6 10 3 310 504 388 275 293 278 216 215 226 241 329 399 68 44 18 0 0 144 216 122 76 0 48 199 206 387 503 155 173 229 675 503 716 702 486 519 339 434 404 221 27 32
0 0 4 5 5 25 8 34 560 368 296 227 246 229 246 319 277 333 357 229 16 0 0 0 144 233 7 209 19 354 218 197 487 662 581 602 608 685 741 719 695 622 831 829 732 410 83 40 43
0 0 0 8 52 12 11 50 633 381 261 194 216 191 218 253 224 257 264 227 91 0 0 13 65 277 28 416 301 236 263 383 377 684 664 839 1208 1071 411 581 719 624 772 775 392 623 217 77 71
0 0 0 0 0 16 40 47 524 478 355 256 240 193 207 221 166 198 194 150 148 51 0 0 0 339 109 261 114 113 103 192 511 593 501 644 988 1223 770 567 377 684 816 718 432 165 37 70 38
0 0 0 0 0 0 13 86 576 552 399 407 403 315 291 265 207 167 195 85 126 117 63 0 0 119 242 88 63 6 6 51 221 400 393 345 529 796 983 783 612 885 785 689 127 22 32 0 0
0 0 0 0 0 0 1 101 281 384 421 368 518 512 460 384 307 189 144 101 91 107 107 22 0 20 141 11 15 30 0 2 116 277 365 382 581 687 679 615 694 713 865 787 487 393 28 1 0
0 0 0 0 0 0 0 31 137 212 454 249 217 505 578 510 434 303 250 142 86 108 121 65 12 0 0 51 35 43 19 0 98 268 290 511 668 797 878 624 604 848 941 819 589 556 156 0 0
0 0 0 0 0 0 0 0 87 218 201 8 55 409 518 491 430 371 364 331 169 151 101 71 84 51 29 164 62 12 0 19 184 159 135 444 703 936 1053 876 675 1158 1006 791 593 407 391 0 0
0 0 0 0 0 0 0 0 12 136 155 144 236 296 389 386 425 364 395 400 358 232 203 102 228 164 143 264 181 107 78 256 556 357 288 241 639 943 1021 903 1051 880 1176 831 700 384 567 0 0
0 0 0 0 0 0 0 0 0 71 128 207 119 10 13 151 399 377 279 154 367 353 309 172 367 259 269 337 324 225 166 131 395 523 352 173 439 663 786 849 1011 1031 982 1111 911 879 831 399 0
0 0 0 0 0 0 0 0 0 1 56 57 92 56 101 70 278 419 270 149 307 421 353 306 261 469 418 396 452 368 291 263 211 423 309 201 141 302 592 863 1095 1248 1180 1079 807 969 1114 480 229
0 0 0 0 0 0 0 0 0 0 1 24 123 215 128 86 323 370 366 232 159 466 457 332 322 401 616 471 439 511 486 459 410 486 364 154 133 221 345 639 1155 1547 1339 1142 1031 1141 1088 996 506
0 0 0 0 0 0 0 0 0 0 0 0 0 122 89 295 429 332 417 302 254 384 553 520 379 345 620 622 608 693 662 636 601 593 393 240 216 503 501 689 958 1499 1426 1216 1186 1120 1218 1254 715
0 0 0 0 0 0 0 0 0 0 0 0 0 0 21 545 528 392 366 374 347 372 525 636 559 426 480 814 671 593 785 1103 865 656 598 536 264 508 774 876 1170 1361 1446 1302 1241 1386 1371 1506 1465
0 0 0 0 0 0 0 0 0 0 0 0 0 0 117 550 567 450 363 467 404 363 588 745 739 643 667 780 948 799 597 626 1394 1245 600 529 836 615 673 1005 1147 1353 1407 1429 1292 1144 1516 1678 1591
0 0 0 0 0 0 0 0 0 0 0 0 0 0 94 541 646 561 475 544 468 414 628 678 977 879 861 888 1013 1113 1146 857 670 1270 1390 850 572 695 895 974 1290 1484 1557 1543 1430 1176 1211 1672 1652

GFSSGP_con_mlcape_045.txt.gz
CAPE
39 31 11 59 118 19 12 8 29 46 2 61 0 13 10 18 1 0 0 0 5 238 803 1269 1123 1262 1488 1621 1240 1689 2014 1857 1728 1918 1874 1764 1732 1817 1712 1459 1697 1768 1848 1730 1595 1159 1015 1343 1075
15 13 51 110 72 43 0 0 82 108 134 33 6 48 18 9 1 5 0 7 139 432 997 1335 1238 1408 1406 1537 1420 1756 1438 1586 1777 1671 1511 1646 1702 1698 1699 1638 1601 1716 1819 1625 1522 1377 947 953 669
2 82 66 13 0 18 9 0 67 129 209 126 114 71 5 0 4 2 0 202 344 648 789 1277 1253 1501 1338 1452 1657 2031 1632 1538 1902 1764 1763 1737 1953 1694 1692 1732 1696 1726 1680 1344 1344 1061 1119 793 762
25 137 98 27 10 32 35 68 94 160 211 175 63 0 0 1 2 0 24 335 495 460 829 1294 1165 1551 1335 1466 1757 1956 1478 1520 1723 1941 1867 1771 1748 1845 1801 1743 1772 1766 1663 1586 1389 1135 920 782 737
85 152 25 7 12 38 43 100 185 239 208 176 25 0 2 0 0 0 94 255 222 323 1007 1200 1387 1288 1731 1416 1512 1641 1467 1735 1928 2103 1880 1913 1828 1799 1941 1974 1913 1805 1753 1644 1480 1304 944 716 646
32 4 0 1 1 33 42 107 286 311 152 7 0 0 0 0 0 2 35 127 357 748 1214 1254 1453 1260 1689 1320 1440 1389 1556 1818 1807 1937 2063 1969 1959 1998 1994 1903 1762 1700 1690 1506 1182 807 526 438 787
7 0 0 6 16 5 49 87 222 275 169 35 0 0 0 2 0 2 8 216 624 942 1133 1218 1443 1136 1368 1585 1395 1374 1631 1703 1740 1883 2007 2017 1994 1961 1847 1841 1745 1678 1576 1385 836 398 466 444 550
0 0 0 26 5 4 41 88 164 216 147 8 0 0 0 0 0 0 122 272 609 908 856 1245 1264 1058 1277 1581 1402 1491 1635 1685 1675 1686 1615 1713 1831 1891 1416 1711 1790 1660 1534 1425 1238 318 182 266 547
0 0 0 12 25 63 72 111 326 200 117 87 9 0 0 0 0 27 153 161 430 871 950 1083 1002 941 1039 1398 1329 1552 1611 1668 1588 1513 1457 924 827 1058 1463 1332 1412 1180 1238 1311 894 707 380 292 565
4 0 0 4 12 5 29 287 395 184 184 8 0 0 0 0 0 162 227 198 192 526 904 913 861 619 936 1293 1218 1337 1475 1416 1305 897 504 501 514 790 1055 1171 1293 948 689 973 85 824 926 530 328
259 7 0 0 3 6 24 342 382 214 236 37 0 0 0 0 0 182 356 359 288 376 812 795 631 636 679 757 863 929 1146 1115 958 309 72 310 394 579 719 698 943 668 403 363 135 334 472 606 406
90 126 197 16 4 49 18 334 427 332 278 87 0 0 0 0 0 94 378 427 360 259 574 629 422 263 310 370 487 444 618 776 712 233 0 90 335 437 342 290 225 355 278 272 276 327 354 214 515
53 89 57 182 184 74 1 213 321 371 271 1 0 0 0 0 1 127 330 518 463 248 370 333 182 26 0 0 199 175 277 481 445 44 0 0 132 328 493 442 322 518 538 317 460 424 523 102 50
0 0 5 18 0 0 0 4 256 364 111 4 0 0 0 0 6 141 244 394 458 339 221 213 13 12 2 0 0 0 145 442 619 243 1 0 110 286 324 395 446 485 400 253 291 488 307 36 38
0 0 0 0 0 0 2 11 91 226 83 57 0 0 0 0 98 103 192 230 334 247 131 46 0 0 0 0 0 0 140 260 345 476 243 70 163 469 503 506 497 449 408 312 181 77 94 32 23
0 0 0 0 5 0 2 2 428 231 114 86 29 15 0 61 144 119 136 133 156 87 34 0 0 0 0 18 0 0 100 206 225 313 409 125 216 510 403 584 647 449 447 521 449 320 81 38 30
0 0 0 0 0 12 5 16 377 239 170 131 71 50 48 31 98 174 146 37 30 17 0 0 0 19 0 26 56 0 12 115 234 383 414 295 396 569 540 706 781 625 667 285 527 475 100 76 61
0 0 0 0 0 11 6 21 271 296 218 172 144 86 81 51 34 149 148 40 0 0 0 0 0 21 11 39 63 198 222 370 214 466 546 545 872 848 361 508 599 518 569 439 259 224 63 79 44
0 0 0 0 0 2 45 21 90 286 214 187 148 137 133 132 138 75 138 146 10 0 0 0 0 0 37 27 88 171 145 213 432 427 606 605 1023 1031 473 376 356 630 552 482 152 32 8 17 15
0 0 0 0 0 0 0 0 152 282 237 228 125 147 152 178 143 115 96 119 46 0 0 0 0 0 48 27 221 108 45 4 166 318 511 484 696 1109 883 471 572 676 638 516 263 15 4 0 0
0 0 0 0 0 0 0 8 93 347 317 236 184 161 140 157 135 134 115 114 53 38 0 0 0 0 16 34 59 76 42 0 20 187 313 382 439 616 733 435 514 708 707 548 442 312 0 0 0
0 0 0 0 0 0 0 2 61 327 338 310 318 222 159 178 191 153 147 111 103 0 5 0 0 0 0 35 46 40 20 0 0 2 179 289 452 538 670 597 336 702 626 496 634 484 254 0 0
0 0 0 0 0 0 0 0 0 137 297 361 360 406 357 271 233 198 149 115 121 33 38 0 0 0 0 18 29 0 0 0 0 0 13 281 354 551 651 780 633 462 879 794 703 382 210 0 0
0 0 0 0 0 0 0 0 0 0 54 318 306 259 279 470 399 329 226 172 174 110 52 21 3 0 0 2 6 0 0 0 0 0 0 99 344 429 623 807 753 749 714 876 743 548 136 106 0
0 0 0 0 0 0 0 0 0 0 0 77 134 192 110 263 506 443 362 291 306 194 115 49 36 31 5 0 6 0 0 0 0 0 0 25 196 325 485 724 829 818 818 854 825 755 640 518 92
0 0 0 0 0 0 0 0 0 0 0 0 82 134 131 205 391 494 392 360 340 338 185 85 58 71 27 22 26 47 29 5 2 0 56 202 197 264 320 614 747 681 892 1041 853 748 750 780 496
0 0 0 0 0 0 0 0 0 0 0 0 1 121 132 84 110 194 500 316 280 381 315 222 112 137 96 72 94 116 94 100 54 29 5 142 186 268 170 287 570 701 894 1201 1102 832 862 1011 836
0 0 0 0 0 0 0 0 0 0 0 0 0 45 137 127 66 100 331 329 181 359 378 311 200 245 251 174 173 210 210 216 215 153 64 62 261 264 247 198 297 485 718 1159 1312 1003 888 1062 1120
0 0 0 0 0 0 0 0 0 0 0 0 0 0 3 131 122 68 144 348 247 338 471 348 300 253 306 398 322 302 346 359 390 364 272 265 205 305 412 356 475 619 634 909 1271 1260 1161 998 1099
0 0 0 0 0 0 0 0 0 0 0 0 0 0 0 34 102 127 153 308 326 251 428 469 330 270 247 433 449 435 497 558 619 507 405 336 460 320 336 505 576 787 877 895 1112 1218 1313 1292 1143

GFSSGP_con_mlcape_048.txt.gz
CAPE
42 26 1 33 41 1 10 10 12 16 10 1 0 0 0 3 0 0 0 0 0 126 711 915 1146 1251 1676 1283 1571 1527 1774 1776 1801 1795 1677 1674 1661 1502 1726 1614 1562 1759 1752 1459 1111 1379 1181 849 1014
33 8 20 44 27 11 7 0 18 90 126 1 0 14 22 4 0 2 0 0 20 428 884 811 1148 1334 1293 1528 1849 1713 1842 1816 1900 1413 1341 1546 1508 1656 1433 1713 1674 920 992 1548 1199 1051 988 1014 1063
13 22 73 15 20 26 8 13 21 261 153 0 2 20 1 1 1 0 0 32 242 631 1022 824 1251 1396 1224 1729 1741 1366 1831 1859 1707 1569 1763 1600 1706 1731 1768 1701 1689 915 1340 885 1284 1071 867 638 742
17 89 41 14 7 39 48 34 193 83 197 87 16 0 0 1 0 0 48 192 336 753 878 1089 1443 1253 1275 1786 1640 1418 1741 1752 1634 1324 1639 1727 1770 1634 1762 1731 1584 1613 1589 1423 1148 1212 972 1042 814
83 184 53 51 29 51 44 95 216 101 204 110 0 0 2 1 0 23 153 281 260 653 955 1031 1360 1325 1201 1756 1561 1333 1569 1582 1732 1554 1784 1687 1583 1607 1815 1916 1817 1712 1629 1380 1093 959 853 761 911
69 20 9 12 15 62 63 74 202 234 103 4 0 1 1 11 0 105 212 281 266 653 820 1087 1211 1686 1186 1426 1476 1387 1752 1560 1855 1774 1986 1974 1989 1874 1844 1770 1689 1627 1390 1173 903 505 624 753 704
46 0 0 13 19 101 17 9 1 244 109 11 0 0 1 9 3 120 246 197 263 806 663 1107 997 1651 1125 1209 1217 1492 1684 1731 1982 1871 2042 2017 1972 1953 1820 1771 1554 1389 1124 1068 668 612 536 642 704
4 0 0 20 23 59 56 32 203 344 199 0 0 0 1 8 26 77 255 273 570 750 672 906 925 1118 1189 1098 1169 1346 1607 1655 1840 1891 1942 1932 1894 1860 1617 1063 1472 1443 1005 786 600 485 427 656 845
0 0 0 3 6 89 46 152 134 178 52 0 0 0 0 7 4 96 82 267 550 691 677 985 829 892 1239 1053 1204 1442 1614 1615 1632 1605 1607 1294 1279 1268 1254 1302 1543 1153 788 1090 896 460 372 623 876
30 2 0 19 38 13 133 181 350 175 66 0 0 0 0 0 6 33 54 155 315 475 662 982 746 672 1056 1184 1257 1351 1521 1401 1312 949 453 416 491 785 852 1109 1463 1082 1137 352 996 866 798 443 513
143 7 4 19 3 43 58 321 313 170 110 4 0 0 0 0 2 20 61 146 202 359 689 823 707 537 831 1066 1073 1214 1274 1173 855 445 298 412 472 661 733 599 971 598 351 216 267 440 648 335 372
105 163 149 21 28 19 26 188 259 237 233 32 0 0 0 0 0 11 21 25 165 361 710 803 636 250 622 776 742 889 959 878 585 158 0 225 298 460 491 403 340 367 231 221 318 326 354 235 374
76 123 104 132 119 133 72 62 226 283 80 0 0 0 0 0 11 60 105 91 69 98 447 585 478 143 293 305 525 562 623 593 526 288 0 88 212 366 441 231 118 555 497 278 369 379 327 75 128
0 8 27 8 3 3 4 20 338 171 0 0 0 0 0 0 4 180 212 163 148 60 208 408 262 28 86 0 112 182 316 417 377 61 0 0 21 293 369 371 471 411 388 268 370 357 122 50 39
0 0 0 0 0 0 0 0 123 42 0 0 0 0 0 0 1 66 191 216 158 23 107 159 26 0 0 0 0 19 68 266 475 408 108 28 108 245 400 439 453 357 311 266 302 66 29 37 47
0 0 0 0 0 0 2 0 223 23 0 0 0 0 0 0 0 42 142 297 281 102 27 80 22 0 0 0 0 0 0 149 256 362 422 164 217 274 530 506 567 418 462 425 431 97 33 45 55
0 0 0 1 0 16 1 30 274 92 30 0 0 0 0 0 0 26 79 162 269 177 46 0 0 0 0 0 0 0 0 90 144 208 285 346 237 363 435 593 656 529 641 350 457 384 82 67 64
0 0 0 0 0 1 43 47 175 173 98 13 0 0 0 0 0 16 59 35 125 123 52 0 0 0 0 0 0 0 0 0 39 141 300 322 310 481 561 644 611 569 499 330 199 195 92 89 39
0 0 0 0 0 0 15 44 140 204 114 45 12 0 0 0 28 32 35 0 7 25 0 0 0 0 0 0 0 0 0 135 282 139 402 390 463 764 520 436 481 566 359 383 291 41 26 46 20
0 0 0 0 0 0 0 2 86 159 166 134 75 28 26 32 40 48 52 1 0 0 0 0 0 0 0 0 0 0 0 55 285 272 371 530 558 1029 772 420 395 457 503 311 156 56 29 6 5
0 0 0 0 0 0 0 0 0 147 168 155 123 30 19 41 55 60 47 66 0 0 0 0 0 0 0 0 0 0 0 10 72 191 312 446 567 909 1082 900 626 563 460 405 390 92 16 0 6
0 0 0 0 0 0 0 0 0 20 70 131 116 115 65 77 91 91 60 51 43 12 0 0 0 0 0 0 0 6 64 98 18 51 151 296 430 470 720 801 522 562 578 572 538 370 107 0 0
0 0 0 0 0 0 0 0 0 7 25 84 155 138 92 92 95 110 104 65 41 0 5 0 0 0 0 0 0 0 16 0 0 0 36 167 228 383 517 630 579 363 674 562 593 622 152 0 0
0 0 0 0 0 0 0 0 0 0 0 22 237 207 158 106 110 117 98 93 60 37 0 0 0 0 0 0 0 0 0 0 0 0 0 5 167 235 390 627 675 646 569 728 648 603 206 51 0
0 0 0 0 0 0 0 0 0 0 0 0 15 151 242 208 124 107 110 100 95 68 0 0 0 0 0 0 0 0 0 0 0 0 0 0 0 139 256 462 589 690 682 755 737 728 578 115 51
0 0 0 0 0 0 0 0 0 0 0 0 34 94 235 284 243 184 158 147 114 99 64 14 0 0 0 0 0 0 0 0 0 0 0 0 0 0 190 325 524 648 784 822 823 783 800 660 380
0 0 0 0 0 0 0 0 0 0 0 0 5 62 136 190 189 338 339 224 161 135 92 58 37 0 0 0 0 0 0 0 0 0 0 0 0 0 150 307 375 556 723 743 881 889 803 765 754
0 0 0 0 0 0 0 0 0 0 0 0 0 2 58 160 103 123 376 333 261 190 155 77 48 30 19 0 0 0 0 0 0 0 0 0 0 43 184 309 424 410 560 620 808 1055 993 839 958
0 0 0 0 0 0 0 0 0 0 0 0 0 0 6 123 129 134 282 340 286 252 235 129 66 52 33 26 32 43 40 16 13 7 12 13 0 0 171 279 283 293 292 462 673 946 1280 1097 912
0 0 0 0 0 0 0 0 0 0 0 0 0 0 0 41 107 120 121 181 321 237 268 280 130 66 76 89 93 98 101 92 79 69 60 67 17 5 56 349 348 326 322 457 607 646 1118 1328 1193

GFSSGP_con_mlcape_051.txt.gz
CAPE
26 16 9 31 16 0 9 34 13 19 46 0 0 0 0 5 5 0 0 0 0 308 534 1255 1302 1541 1817 1792 1787 1922 1968 2019 1794 1793 1772 1793 1769 1827 1618 1399 1696 1845 1293 1148 1575 929 808 1352 1433
18 8 11 32 30 29 23 15 55 8 59 0 10 0 7 0 0 2 1 0 2 319 332 1039 1374 1417 1477 1568 1773 1929 1845 1838 1911 1817 1750 1722 1698 1787 1635 1261 1057 1096 1473 1270 1168 1173 1170 1118 1108
20 8 63 45 10 18 15 16 52 166 3 7 66 18 2 1 1 0 0 6 47 465 471 945 1445 971 1759 1684 1710 1916 1953 1912 1534 1600 1693 1517 1586 1491 1428 1195 1070 1313 991 1390 1236 987 902 978 1020
10 60 57 44 17 21 38 47 238 155 22 0 43 15 1 3 0 0 0 43 41 548 394 997 1398 1195 1754 1517 1776 1846 1751 1574 1705 1718 1345 1545 1679 1521 1575 1408 1490 1607 1411 1139 1191 1145 1096 734 718
73 100 43 49 33 44 7 25 166 168 100 63 1 0 2 5 2 4 11 61 142 260 637 1052 1153 1453 1635 1583 1511 1854 1754 1523 1500 1539 1686 1647 1522 1665 1583 1728 1653 1677 1440 1108 1085 1042 1008 787 872
91 8 24 10 34 67 108 81 196 256 86 0 0 0 1 16 9 25 9 98 241 142 506 949 1123 1369 1455 1403 1407 1746 1754 1589 1571 1506 1696 1695 1540 1935 1829 1668 1536 1387 1018 988 748 920 1031 816 768
22 2 5 16 38 140 122 29 35 380 89 19 0 0 4 17 24 60 32 168 263 208 665 741 1260 1001 1508 1419 1406 1669 1730 1689 1483 1522 1740 1898 1926 1777 1755 1533 1408 1183 1019 813 719 795 819 818 1044
61 1 4 58 54 36 90 7 121 319 27 0 0 0 1 14 52 114 76 148 389 174 720 633 1339 591 680 899 1434 1576 1644 1814 1945 1817 1891 1900 1851 1688 1389 670 538 1157 897 790 891 708 638 806 770
15 0 1 23 37 21 26 122 325 201 5 0 0 0 0 12 80 127 49 71 482 265 776 400 1113 740 1016 871 1205 1050 1529 1713 1741 1853 1779 1714 1482 1270 987 873 905 1119 1076 951 788 753 757 953 857
26 11 13 14 9 19 79 201 274 154 21 0 0 0 2 18 69 56 5 2 133 141 662 326 630 840 762 699 1245 1385 1281 1131 1331 1505 1285 1322 1208 1346 1042 1027 1375 1082 832 1042 1188 900 998 767 817
151 22 14 39 26 74 55 172 559 309 90 4 0 1 4 16 14 7 0 0 82 119 468 615 548 1059 788 874 1071 1181 1233 1205 1291 773 667 789 1087 1281 1030 1143 1291 1028 671 683 805 912 688 661 624
46 121 147 64 19 19 119 303 286 286 304 90 0 0 0 4 1 0 0 50 132 243 477 794 556 762 860 963 963 1072 996 999 779 653 500 749 845 998 1037 879 1025 1030 904 972 994 965 1034 850 919
8 216 173 118 116 93 105 94 154 300 86 2 0 0 0 1 0 0 0 41 97 110 277 761 648 596 894 999 890 982 1051 948 825 399 118 520 681 762 756 599 757 1289 1105 1129 1069 1151 811 730 925
2 17 106 32 25 37 20 17 167 198 2 0 0 0 0 0 0 0 0 54 110 104 249 662 661 479 724 661 824 876 955 855 836 711 140 192 392 866 1085 1088 1150 1111 1029 972 1117 1245 448 259 291
0 0 0 0 0 3 1 16 154 62 0 1 0 0 0 0 0 0 1 24 104 142 289 531 593 411 411 420 515 571 695 643 627 306 67 88 241 710 928 1146 1064 1013 961 689 826 585 181 152 396
0 0 0 0 0 0 1 66 316 0 2 0 0 0 0 0 0 0 4 6 61 97 287 438 282 193 183 167 126 251 292 544 852 1011 934 445 386 672 1105 1121 1132 1076 1107 1085 750 420 178 192 189
0 0 0 13 0 22 24 37 384 5 6 0 0 0 0 0 0 1 27 63 110 186 209 294 314 143 0 17 21 0 86 344 590 705 774 879 611 712 1023 823 1141 1144 1198 879 933 820 154 106 134
0 0 0 35 15 20 78 90 301 92 24 0 0 0 0 0 0 0 25 68 208 268 193 183 168 90 6 25 60 0 0 133 432 520 628 789 799 728 1034 734 1411 1186 898 626 872 795 97 445 194
0 0 0 0 2 9 127 145 247 274 157 15 0 0 0 0 0 0 0 35 244 340 271 163 65 0 0 0 0 0 0 111 295 533 662 797 814 862 1105 1088 1227 1049 346 430 633 237 90 73 90
0 0 0 0 0 0 0 55 230 316 235 164 16 0 0 0 0 0 0 4 62 268 278 207 78 28 0 0 0 146 307 457 844 863 701 948 896 1166 1291 950 919 620 643 731 641 425 59 63 59
0 0 0 0 0 0 0 0 30 328 389 303 117 19 0 0 0 0 0 0 48 101 174 189 112 26 0 1 65 85 325 314 480 729 744 783 1019 1242 1472 1137 1028 629 503 862 870 621 171 21 47
0 0 0 0 0 0 0 0 0 79 132 317 312 192 83 11 2 4 6 0 7 80 92 135 140 65 0 0 28 28 141 209 434 672 824 882 1013 1119 1561 1641 1387 1118 1170 788 1045 868 489 2 14
0 0 0 0 0 0 0 0 0 14 86 106 390 401 270 118 42 35 70 41 55 54 61 35 99 69 41 16 103 60 129 285 508 458 584 805 954 1097 1150 1296 1302 1062 1185 851 1022 1004 841 208 4
0 0 0 0 0 0 0 0 0 0 19 105 374 414 424 297 150 124 88 73 84 96 18 0 32 48 48 59 40 116 195 244 268 334 369 550 783 835 1007 1196 1250 1288 1180 1257 1278 1283 1141 423 5
0 0 0 0 0 0 0 0 0 0 0 28 102 268 380 406 303 192 171 128 83 136 75 24 0 31 50 84 18 95 172 234 108 258 267 283 487 755 784 943 1138 1207 1284 1351 1471 1443 1344 742 448
0 0 0 0 0 0 0 0 0 0 0 0 49 139 319 377 340 314 226 205 213 124 140 71 31 44 36 53 89 87 152 185 184 257 201 251 207 370 851 826 1017 1110 1369 1470 1606 1555 1564 1442 890
0 0 0 0 0 0 0 0 0 0 0 0 0 120 198 382 404 353 333 275 258 221 193 127 105 68 65 75 129 171 170 174 170 226 284 234 248 172 538 591 754 978 1101 1304 1549 1531 1701 1656 1613
0 0 0 0 0 0 0 0 0 0 0 0 0 4 98 318 476 451 401 362 304 242 265 205 177 121 118 89 153 226 266 269 272 317 206 231 247 182 108 453 741 1004 1049 1246 1536 1459 1710 1810 1667
0 0 0 0 0 0 0 0 0 0 0 0 0 0 26 146 302 483 594 510 415 314 287 300 239 225 185 106 104 188 313 338 327 311 303 294 279 287 270 409 632 927 1099 1213 1284 1293 1507 1791 1956
0 0 0 0 0 0 0 0 0 0 0 0 0 0 0 52 145 296 491 641 571 501 416 312 291 300 272 244 190 155 268 311 328 318 351 385 335 356 396 452 653 848 973 1147 1163 1071 1169 1562 1878

GFSSGP_con_mlcape_054.txt.gz
CAPE
1 0 7 33 12 61 99 221 111 228 81 52 10 0 64 105 134 206 20 2 80 26 575 891 1501 1742 1504 1764 1888 1939 1772 1827 1697 1598 1766 1925 2067 1872 1449 1623 1856 1346 1239 1620 904 907 1354 1380 1397
2 0 7 87 83 112 250 120 300 166 155 29 4 5 54 77 14 13 5 74 17 33 429 448 1298 1665 1844 1915 1948 2062 2123 2024 2022 1993 1989 1952 1914 1817 1566 1284 1220 1580 1342 1291 1396 1304 1126 1282 1449
0 0 40 4 49 103 235 234 231 158 17 47 131 112 223 151 2 1 9 26 17 56 344 796 1317 1661 1719 2028 1958 2001 2008 2009 2029 1983 1726 1817 1880 1478 1327 1273 1321 1159 1557 1370 1142 1128 1156 641 1336
1 27 26 37 25 63 35 250 288 107 30 121 174 173 46 32 4 23 2 4 13 87 304 1207 1176 1576 1750 1900 1984 1960 1979 1763 1672 1658 1544 1736 1719 1553 1433 1415 1580 1428 1184 1330 1291 1199 870 923 1171
85 267 140 215 46 39 59 169 384 238 5 60 228 165 3 6 9 8 2 8 14 64 325 962 1231 1618 1409 1805 1819 1827 1669 1725 1863 1802 1721 1496 1630 1654 1748 1689 1711 1509 1260 1166 1164 1099 1004 952 984
211 149 89 92 28 81 7 29 140 219 151 131 198 77 3 7 13 16 4 9 11 104 294 481 1333 1598 1518 1696 1793 1801 1572 1727 1748 1636 1630 1710 1707 1824 1705 1478 1292 1067 1056 958 1099 1038 949 1026 1211
260 162 90 114 28 99 137 324 339 446 274 117 208 222 6 44 37 15 9 14 10 143 177 347 989 1345 1476 1531 1763 1836 1573 1618 1670 1530 1561 1972 1829 1662 1480 1363 1042 1031 893 776 1012 844 949 1062 1144
329 69 75 189 35 330 181 5 56 575 262 226 121 217 31 26 32 19 27 14 10 111 123 354 412 1159 657 910 1713 1851 1729 1566 1418 1677 2008 1890 1633 1054 459 292 1036 961 861 814 869 897 1030 929 1115
114 13 72 164 61 181 98 124 270 304 47 38 36 63 77 39 29 12 33 34 20 130 118 506 263 429 678 803 1395 1629 1799 1932 1783 1643 1587 1345 679 536 877 596 1115 1054 867 818 853 874 1080 879 1189
100 70 104 40 45 7 105 316 648 545 101 30 5 13 46 51 24 12 17 41 9 32 28 368 210 433 559 629 941 1026 1209 1039 1101 1011 1212 780 914 947 706 726 1232 1115 989 1160 855 939 866 944 767
300 73 73 31 17 98 203 342 735 645 294 128 61 1 70 63 54 4 3 9 1 1 12 107 227 500 441 763 897 986 927 1086 1288 1377 1162 895 748 535 869 961 1101 861 909 701 768 819 666 542 603
38 91 225 60 81 61 82 346 540 588 640 445 113 45 56 36 7 1 0 1 0 0 4 5 258 578 482 782 713 760 681 739 681 687 1202 1159 812 848 827 920 1043 1002 924 1091 992 731 867 894 967
0 108 175 154 91 154 162 212 232 452 488 230 132 45 35 17 4 1 0 0 2 0 3 15 196 583 650 796 657 578 601 486 426 667 896 726 731 936 901 1047 1063 968 944 880 938 902 926 1160 788
0 6 380 170 106 140 189 166 94 421 363 253 129 47 19 21 1 0 0 0 2 0 0 68 187 425 713 764 867 801 817 872 654 380 420 1104 789 1157 1129 1041 1096 1050 726 664 718 856 332 159 241
0 0 0 24 17 10 100 87 134 481 329 346 219 80 9 20 1 0 0 0 0 0 0 94 202 244 579 759 962 826 791 702 768 724 713 742 1010 1643 1340 1239 1071 1133 1304 1202 921 618 368 60 96
0 0 1 66 0 3 50 113 368 357 422 398 263 95 23 29 0 0 0 0 0 0 0 110 57 73 352 501 728 459 530 554 558 519 584 778 1211 1565 1059 1238 918 1178 730 310 304 125 82 83 68
0 0 0 56 28 67 94 227 616 320 393 345 259 110 48 25 0 0 0 0 0 0 21 105 51 9 145 359 467 483 550 795 947 974 1138 1487 1300 1075 912 913 904 1369 511 268 99 81 67 72 51
0 0 0 0 173 171 185 245 547 333 359 386 308 141 53 27 5 0 0 0 0 0 8 87 69 39 106 164 317 314 539 775 888 920 990 1497 1371 1224 918 1106 800 907 441 240 138 108 218 93 71
0 0 0 19 115 184 209 226 557 440 378 384 315 167 72 42 0 0 0 0 0 0 0 99 45 82 132 72 138 304 350 507 727 805 1136 1417 1328 1411 1054 927 926 612 591 816 953 597 518 88 88
0 0 0 1 16 115 182 216 257 651 504 374 293 191 81 54 0 0 0 0 0 29 40 89 161 197 254 17 15 146 264 431 646 959 1298 1487 1403 1608 1471 1190 965 500 369 774 832 661 144 92 72
0 0 0 0 0 0 109 162 173 494 697 632 291 153 87 78 29 0 0 0 0 58 130 183 266 284 285 0 0 221 524 818 1085 1186 1072 1418 1520 1568 1736 1525 1117 889 833 349 483 845 385 86 86
0 0 0 0 0 1 46 98 76 182 676 687 622 284 114 62 50 7 0 21 0 32 312 285 511 468 384 66 0 173 352 251 278 603 587 937 1570 1535 1701 1844 1414 1090 836 1012 563 1067 623 353 48
0 0 0 0 0 0 0 53 31 104 278 645 691 600 359 128 38 27 5 74 29 0 74 389 624 737 449 328 18 55 277 0 159 384 843 1203 1756 1689 1536 1893 1888 1357 664 854 1220 1075 943 205 69
0 0 0 0 0 0 0 2 3 37 84 231 568 561 519 453 189 68 45 62 116 77 55 220 555 892 744 404 170 201 175 42 45 409 609 698 819 1337 1669 1714 1909 1792 1101 1050 1138 1280 1348 1000 509
0 0 0 0 0 0 0 0 0 28 59 68 238 499 517 541 474 282 106 135 151 131 89 151 411 813 858 627 287 127 217 403 392 631 430 322 337 539 962 1728 1882 1587 1875 1673 1583 1402 1689 1810 758
0 0 0 0 0 0 0 0 0 0 0 13 107 309 472 547 638 564 420 239 296 307 225 202 386 746 876 672 818 683 561 200 413 680 419 420 269 313 538 1536 1584 1754 1703 1641 1833 1591 1403 1710 1311
0 0 0 0 0 0 0 0 0 0 0 0 0 51 274 388 590 704 649 520 350 411 489 491 600 741 813 633 963 993 803 541 391 628 737 561 628 279 423 827 1418 1360 1524 1690 1710 1419 1864 1782 1813
0 0 0 0 0 0 0 0 0 0 0 0 0 0 58 211 466 561 788 717 579 434 464 553 553 718 806 652 835 835 675 805 719 698 750 800 581 789 415 714 923 887 1171 1591 1802 1399 1658 1987 1704
0 0 6 1 0 0 0 0 0 0 0 0 0 0 1 114 430 501 740 807 749 615 490 598 595 664 669 745 774 797 775 790 935 827 947 1147 1068 895 1148 784 675 664 1347 1528 1707 1542 1409 2080 2092
0 15 0 19 0 0 0 0 0 0 0 0 0 0 0 19 187 504 631 690 785 794 667 591 583 634 704 749 964 922 995 980 912 1085 1025 1195 1367 1214 1280 1153 988 794 1056 1502 1791 1672 1184 1581 1880

GFSSGP_con_mlcape_057.txt.gz
CAPE
0 0 15 14 10 130 116 261 434 259 59 82 29 64 131 173 324 311 104 374 323 100 703 1153 1347 1608 1719 1604 1641 1763 1911 1853 1754 1739 1725 1989 2014 1508 1693 1630 1474 1392 1456 920 1075 1250 1204 1512 1573
1 0 5 140 68 195 160 280 304 212 127 44 41 88 248 181 202 129 97 454 129 56 43 481 1560 1542 1926 1789 1922 1704 1740 1798 1738 1895 1991 2012 1829 1604 1409 1294 1307 1407 1482 1500 1358 1170 1469 1425 1439
0 0 128 16 171 224 117 520 381 184 137 75 108 250 361 134 167 193 208 125 78 15 148 1104 1438 1778 1901 1723 1952 1618 2004 1981 1988 2051 1897 1945 1757 1498 1477 1422 1329 1724 1369 1195 1294 939 1025 1336 1416
6 7 43 123 92 70 132 487 262 100 202 129 320 305 215 203 85 129 86 61 109 31 349 1084 1563 1650 1872 1922 1997 1929 1845 2011 1986 1800 1865 1662 1661 1513 1451 1570 1373 1184 1440 1363 1198 945 1025 1122 1252
10 240 130 247 243 85 90 463 429 151 136 237 398 356 192 83 81 147 82 36 141 142 424 708 1499 1710 1882 1933 1876 1832 1948 1845 1696 1695 1826 1811 1698 1622 1700 1821 1621 1316 1313 1237 1048 1034 1022 1003 1110
215 330 229 144 283 340 321 246 355 79 67 221 392 190 189 119 21 56 91 48 121 37 121 757 1450 1462 1778 1809 1840 1647 1713 1900 1924 1768 1684 1722 1786 1771 1546 1316 1166 1189 1139 1154 1138 1008 1099 1159 1191
240 189 186 282 100 35 47 173 246 193 348 249 408 485 122 108 14 16 39 43 84 80 97 764 1177 1255 1684 1700 1729 1617 1725 1787 1741 1798 1712 1879 1697 1520 1307 1165 1173 1038 1009 1088 896 1052 1120 1172 1301
308 297 232 224 163 276 397 274 588 604 256 458 472 396 138 142 8 18 44 52 85 124 16 436 849 759 799 1348 1773 1668 1657 1692 1578 1777 1835 1545 1047 549 630 727 1125 965 840 985 969 1206 1239 1361 1309
379 365 110 123 29 437 69 65 132 286 302 322 356 461 187 90 26 21 43 42 138 34 34 84 384 393 518 1273 1530 1631 1633 1612 1900 1629 1293 958 536 902 827 726 1103 955 900 875 951 1107 902 1015 813
310 355 59 119 78 222 117 128 437 287 343 388 230 362 90 59 16 14 36 30 75 41 64 43 78 247 391 542 1182 1302 1247 1143 864 386 1423 1222 1058 1040 685 637 1040 1020 943 707 662 939 988 1019 917
197 146 129 36 78 23 193 297 500 631 267 253 304 218 51 100 47 48 25 17 41 40 51 58 65 161 251 494 795 637 926 985 1098 877 801 513 521 505 741 852 1022 959 998 535 405 612 1065 812 836
14 50 101 15 99 45 244 362 456 565 339 313 310 135 80 92 32 29 31 15 25 29 28 48 118 204 516 294 556 713 662 771 445 773 852 659 983 832 1005 871 1126 862 1039 760 909 554 776 902 421
1 18 326 217 159 40 11 0 18 467 377 392 331 119 94 87 22 16 52 18 12 21 12 42 150 274 650 620 641 702 419 326 416 815 860 658 919 768 891 1072 781 657 522 293 570 674 719 282 422
0 0 343 226 293 358 85 82 62 342 378 387 275 140 135 126 29 10 39 16 3 13 9 23 133 397 475 629 672 425 365 462 198 246 571 843 1218 952 1181 922 839 899 957 523 728 757 248 336 185
0 0 28 335 246 297 124 159 84 497 505 514 330 263 172 117 57 7 8 8 2 3 8 7 175 367 535 831 650 449 578 370 393 277 847 799 1412 1355 1384 656 922 926 1018 934 394 100 47 61 162
0 0 57 170 266 143 13 51 59 563 614 664 498 243 193 140 98 10 13 5 8 1 2 8 82 272 429 592 639 565 670 525 720 545 672 1039 1439 1610 1504 723 510 489 465 612 200 217 133 64 69
0 0 0 178 72 50 22 81 152 460 612 698 619 235 176 142 119 24 17 2 12 4 2 10 54 140 343 622 574 530 624 560 464 513 950 1240 1411 1349 1296 560 1010 1162 658 119 65 103 42 29 47
0 0 0 47 237 77 65 119 115 451 492 586 574 254 191 115 138 35 18 2 8 2 0 2 71 127 409 611 626 456 477 584 797 706 1184 1679 1327 1137 1457 1027 783 1208 568 99 162 67 272 45 41
0 0 0 2 116 137 76 79 151 457 463 628 573 311 248 168 138 39 12 4 3 7 0 1 83 371 328 482 418 390 400 536 716 716 1240 1487 1533 1173 1462 1243 991 1054 898 151 288 30 119 47 10
0 0 0 0 35 137 151 124 292 375 375 608 678 356 263 250 140 66 9 5 0 4 0 56 176 531 389 347 402 477 492 329 409 438 1079 1280 1128 1442 1113 943 940 908 707 958 587 616 99 60 23
0 0 0 0 32 211 165 89 149 291 346 528 685 434 163 262 187 93 16 0 1 2 0 181 406 540 547 245 299 484 533 487 408 695 932 1286 1369 1310 1546 1182 1214 1018 1195 737 935 908 785 254 22
0 0 0 0 2 37 83 90 78 34 330 502 552 587 243 185 213 156 92 23 15 2 93 256 481 690 654 380 0 382 328 232 287 655 600 1033 1421 1350 1472 1410 1324 1414 1077 807 845 970 971 551 34
0 0 0 0 0 0 1 95 123 130 288 390 644 514 451 229 197 162 150 128 47 6 177 179 636 824 622 522 175 244 421 181 231 247 1190 975 1586 1565 1294 1732 1335 1513 1200 1323 1153 1348 1051 318 283
0 0 0 0 0 0 0 34 52 33 158 213 485 616 474 327 240 190 126 165 139 47 126 305 784 1063 1049 900 201 446 133 312 18 87 898 518 1199 1348 1474 1516 1691 1439 1094 1439 1479 1396 1179 1284 419
0 0 0 0 0 0 0 0 18 83 35 108 193 492 612 410 257 233 163 106 240 157 115 435 973 1333 1339 1085 481 458 604 372 793 724 386 361 205 368 1358 1661 1929 1734 1754 1696 1437 1725 1395 1531 864
0 0 0 0 0 0 0 0 0 1 81 28 0 226 437 553 428 289 224 168 301 361 353 343 948 1417 1493 1195 931 457 784 194 188 357 350 258 122 153 1878 1926 1571 1764 1822 1771 1839 1612 1502 1599 1452
0 0 0 0 0 0 0 0 0 0 0 8 0 105 218 498 499 554 403 259 279 427 605 511 760 1323 1491 1079 1269 1143 789 327 9 70 756 769 333 319 364 1175 1581 1481 1397 1625 1614 1245 1847 1923 1847
0 0 0 0 0 0 0 0 0 0 0 0 6 17 167 219 436 547 761 565 398 429 487 654 805 1280 1378 1194 1514 1363 1193 1075 517 638 1502 869 951 789 694 670 887 1419 1414 1447 1878 1332 1359 1888 1652
0 0 0 8 0 0 0 0 0 0 0 0 0 0 0 164 297 492 833 860 717 593 534 624 746 1014 1202 1253 1354 1093 1204 1196 894 1461 1508 1629 1290 1474 1319 1256 1075 1164 1235 1309 2112 1744 1505 1641 1711
0 0 0 35 11 0 0 0 0 0 0 0 0 1 0 0 156 447 556 787 878 858 762 740 718 744 1112 1260 1495 1239 1344 1077 944 905 1475 1679 1701 1670 1777 1783 1504 1342 946 1418 2028 1772 1160 1794 1784

GFSSGP_con_mlcape_060.txt.gz
CAPE
0 0 0 12 9 8 122 68 84 108 74 53 66 66 58 269 119 40 116 366 421 577 1080 1431 1487 1424 1717 1703 1899 2027 1937 1839 1727 1692 1828 2021 1384 1756 1573 1461 1455 1162 923 1287 1342 1276 1660 1679 1439
0 0 19 51 11 42 7 56 68 95 92 43 113 137 237 181 103 80 292 181 160 591 1025 1066 1434 1692 1633 1621 1686 1911 1864 1822 1838 1869 2006 1640 1552 1440 1350 1240 1382 1542 1466 1279 1415 1396 1315 1475 1739
8 0 28 66 89 141 0 174 88 75 59 87 238 351 131 98 20 155 146 38 6 50 428 1247 1419 1801 2033 1985 1970 1818 1828 1841 2020 1929 1975 1812 1566 1580 1467 1469 1612 1266 1309 1271 931 1367 1179 1580 1585
1 1 65 79 6 103 98 177 78 78 100 169 210 141 48 40 23 100 118 7 0 227 696 1339 1753 1815 1717 1779 1779 2040 1903 1890 1837 1891 1816 1686 1576 1534 1526 1202 1300 1426 1382 1163 996 989 1128 1118 1092
10 32 70 262 278 173 99 353 182 107 105 294 267 81 24 77 53 45 4 19 24 527 798 1170 1649 1693 1802 1764 1896 1777 1807 1852 1716 1832 1843 1689 1577 1643 1831 1686 1210 1442 1246 1003 1026 1013 1009 1031 1164
43 176 122 172 128 268 401 420 100 103 186 78 200 80 40 50 31 17 34 33 260 216 383 930 1492 1624 1573 1718 1734 1849 1825 1796 1692 1708 1771 1721 1829 1685 1299 1159 1175 1175 1210 1093 1016 1184 1071 984 602
19 87 187 122 166 280 272 370 123 51 244 155 149 120 72 56 29 16 50 32 25 54 521 697 929 1569 1732 1708 1681 1733 1858 1891 1900 1793 1861 1803 1395 1275 1220 1184 1114 1138 1062 958 1060 1037 1161 802 319
62 218 247 115 62 11 209 165 232 191 249 316 364 163 39 21 51 33 39 27 37 51 272 618 620 1227 1202 1547 1658 1777 1833 1845 1594 1794 1715 877 1009 904 1031 1079 1005 919 965 1003 1146 1080 687 202 27
24 144 87 23 72 2 90 60 143 301 371 499 418 178 80 0 25 26 33 37 43 10 222 249 383 836 1176 1331 1607 1697 1714 1588 1744 1629 927 511 640 929 1034 896 949 801 830 918 982 964 1008 730 224
1 216 6 42 113 358 448 153 478 247 228 311 459 384 82 1 20 21 35 23 4 0 36 60 269 593 965 711 1474 1416 1385 1395 1005 976 539 1038 1209 687 538 844 1052 782 769 772 891 1172 843 799 878
13 114 104 100 86 179 88 88 198 247 349 292 456 182 76 4 11 34 38 26 13 4 19 137 380 164 790 657 1461 1291 1326 1364 652 970 752 1151 1113 786 510 803 606 745 485 431 697 812 700 835 965
22 43 79 56 49 52 237 5 0 190 456 324 333 133 62 12 4 29 30 65 33 20 8 19 41 446 372 600 1156 636 844 1049 667 566 714 1031 746 569 24 586 902 689 869 953 238 232 712 129 235
8 36 9 33 81 51 121 163 94 221 87 268 278 74 54 11 0 34 29 45 12 4 28 8 0 646 595 561 576 533 232 731 812 464 774 483 780 675 540 582 281 504 695 218 270 294 1138 332 402
6 3 11 236 98 46 12 61 86 95 5 368 150 83 47 30 46 46 29 25 31 1 27 80 80 404 651 436 431 569 735 704 540 318 662 493 1090 495 839 484 545 196 267 819 732 524 453 214 468
0 0 1 105 105 94 112 2 5 61 272 357 101 100 92 56 52 30 33 16 22 5 21 5 131 138 615 398 802 675 403 566 122 809 704 851 1090 799 801 881 1036 1070 125 786 73 132 520 201 447
0 0 0 21 263 140 281 76 189 172 313 401 146 101 85 57 30 15 44 10 10 13 7 0 8 168 363 553 699 219 383 516 349 1031 745 991 1428 1509 420 407 305 650 1136 12 58 413 67 433 154
0 0 0 1 305 277 59 84 102 99 438 346 222 149 99 57 39 8 37 13 0 14 41 0 121 187 223 877 210 373 395 747 128 750 871 1128 1376 1598 363 26 284 1418 230 320 81 227 45 26 65
0 0 0 0 112 190 125 148 120 88 84 359 236 252 165 39 38 2 18 13 4 4 14 0 348 364 361 1036 676 657 386 419 918 893 1056 1404 1342 1273 1538 1065 812 1455 88 435 691 33 59 171 47
0 0 0 0 102 220 99 5 0 0 65 216 353 295 272 122 65 2 11 0 16 2 0 154 289 585 421 608 700 447 419 273 865 715 747 1613 1610 1275 1678 1128 935 1222 48 279 485 55 58 147 28
0 0 0 0 54 210 223 96 0 0 51 109 291 206 272 212 72 1 5 2 10 0 0 98 307 662 371 784 774 803 299 441 57 1043 1365 1213 1557 1393 1551 1197 893 943 347 320 908 83 33 294 21
0 0 0 0 13 94 77 98 8 0 32 168 313 169 250 212 173 41 0 2 0 11 2 36 369 655 432 764 487 763 1069 1093 449 1310 1288 1411 1403 1463 1449 1320 1282 861 1070 956 916 802 828 479 51
0 0 0 0 0 13 80 54 50 1 0 64 269 173 177 203 220 151 4 8 0 53 111 110 597 1043 381 675 325 559 706 559 64 1284 1243 1144 1610 1434 1777 1346 1630 1112 692 916 658 1058 728 131 131
0 0 0 0 0 0 0 25 41 248 137 44 1 164 91 232 217 208 73 16 0 100 153 268 484 1033 616 470 708 437 633 445 852 677 543 1495 1595 1630 1597 1523 1512 1266 996 1094 1119 890 1081 1211 755
0 0 0 0 0 0 0 0 0 129 18 0 104 41 333 175 242 273 179 67 24 56 121 357 504 721 802 305 538 642 251 729 482 376 1053 1490 1568 1730 1747 1715 1534 1677 1311 1186 1390 1561 1249 1218 1063
0 0 0 0 0 0 0 0 0 30 107 0 0 0 541 271 268 297 291 220 107 55 200 366 575 620 883 775 222 971 483 373 686 875 1081 901 1555 1200 1547 1964 1531 1525 1605 1331 1522 1379 1674 1411 1547
0 0 0 0 0 0 0 0 0 0 18 83 56 93 269 369 279 328 328 342 239 192 183 424 799 714 851 1283 331 401 980 261 344 1087 267 869 473 1099 1504 1757 1577 1672 1624 1661 1479 1627 1797 1505 1383
0 0 0 0 0 0 0 0 0 0 0 122 132 116 59 13 14 398 438 323 456 375 270 483 824 1012 1153 846 1231 216 823 825 316 648 669 577 566 935 1720 1625 2193 1764 1934 1696 1587 1357 1356 1669 1449
0 0 0 0 0 0 0 0 0 0 0 0 41 11 2 1 2 42 588 442 526 482 547 443 935 1221 1437 1311 1415 1051 118 843 497 161 626 538 828 272 1939 2085 1844 1851 2006 1940 1879 1659 1438 1455 1541
0 0 0 0 0 0 0 0 0 0 0 0 80 25 0 0 3 128 200 605 485 598 692 628 636 1479 1691 1686 1413 1316 1042 531 324 634 79 1111 643 1729 798 1707 1814 1854 1647 2076 1967 1388 1690 1544 1526
0 0 0 0 0 0 0 0 0 0 0 0 0 29 128 240 290 16 0 1 592 576 688 936 795 991 1638 1785 1589 1470 1402 918 719 135 1006 977 1255 1053 1984 1244 1900 1387 1853 1868 1821 2008 1432 1747 1666

GFSSGP_con_mlcape_063.txt.gz
CAPE
0 0 0 1 0 1 2 33 58 69 78 48 51 67 73 63 12 0 12 180 420 514 731 1259 1217 1285 1145 1657 1658 1554 1826 1638 1611 1821 2013 1489 1848 1705 1527 1620 1137 1062 1509 1236 1385 1560 1653 1533 1725
0 0 0 16 0 52 46 70 75 94 80 70 61 145 125 51 26 28 142 266 677 751 1198 1261 1226 1196 1352 1443 1750 1906 1770 1753 1638 2040 1604 1794 1495 1486 1490 1478 1561 1501 1479 1442 1308 1402 1521 1646 1964
0 0 11 14 32 53 0 5 72 103 139 121 155 88 122 27 30 173 205 471 590 989 1030 1152 1403 1576 1599 1518 1559 1546 1773 1757 1774 1931 1908 1615 1625 1482 1689 1384 1179 1520 1098 1359 1400 1328 1465 1511 1557
0 0 2 9 6 17 0 16 72 122 195 118 36 0 0 3 118 58 183 259 594 891 965 1465 1712 1893 1822 1939 1707 1760 1898 2017 1779 1853 1716 1617 1634 1355 1184 1501 1327 1280 1114 1015 999 1300 1057 1284 1165
10 1 5 1 69 125 86 85 79 226 184 105 5 2 1 9 0 7 0 186 475 647 1049 1665 1677 1592 1811 1749 1796 1815 1969 1684 1682 1765 1648 1547 1535 1691 1371 1138 1372 1127 1052 1028 917 915 1028 1020 905
1 47 15 19 137 107 256 240 238 155 125 82 49 0 8 10 7 4 11 356 455 518 1153 1434 1533 1721 1758 1797 1648 1718 1672 1660 1776 1791 1581 1788 1839 1417 1189 1018 1203 1099 1013 1021 1075 997 833 669 739
5 21 9 59 121 238 109 56 63 168 45 45 23 2 9 29 26 18 195 239 316 460 754 1237 1420 1587 1583 1569 1790 1693 1790 1634 1768 1632 1666 1400 1231 1299 1086 1114 1078 1076 959 982 959 824 644 412 532
50 9 43 36 20 11 89 108 113 208 96 184 47 0 9 19 8 47 28 45 405 506 618 873 1266 1290 1264 1573 1619 1738 1895 1844 1662 1711 1535 1253 1051 1065 1021 1056 1108 978 979 1046 1105 1017 952 701 569
68 0 5 10 44 1 103 29 42 338 192 219 134 12 7 0 8 9 3 45 245 186 177 624 866 992 1217 1296 1565 1758 1718 1546 1564 1241 732 561 686 820 972 788 931 987 1008 1079 994 737 573 363 528
5 7 12 12 71 4 70 15 2 25 69 304 154 11 4 0 6 5 13 0 22 205 183 244 685 920 882 1238 1374 1307 1157 1165 820 364 419 644 639 367 461 912 891 830 871 748 779 658 558 632 531
0 0 77 120 60 47 189 244 67 15 145 334 88 22 5 14 10 12 19 1 0 89 147 47 601 615 729 657 1031 970 870 1004 834 470 479 642 668 297 362 524 678 655 640 441 609 372 387 85 333
1 5 125 146 132 51 150 22 6 71 256 255 50 0 0 3 7 2 5 0 7 0 44 121 335 543 270 637 873 954 915 1032 499 402 516 721 334 84 256 426 746 536 590 384 348 435 501 662 409
6 24 93 145 118 165 44 23 15 2 27 319 67 1 0 4 4 0 12 11 0 20 38 7 126 528 369 750 901 633 479 927 586 398 352 424 449 106 151 394 316 381 549 598 180 422 396 95 366
0 6 60 151 187 181 147 52 24 0 50 186 71 7 10 1 0 4 23 19 9 17 16 101 127 228 523 597 426 89 225 590 203 230 138 64 523 474 441 79 82 122 317 264 146 548 731 416 357
0 0 0 232 223 171 63 70 5 20 63 244 143 34 19 0 1 20 21 1 4 9 13 30 44 194 352 58 286 283 346 394 273 216 280 482 611 0 641 569 378 285 378 546 198 654 448 319 269
0 0 0 0 233 277 124 47 12 0 106 206 171 75 13 1 2 24 21 3 7 5 0 0 63 342 283 249 751 347 357 555 483 387 507 987 1031 491 356 183 434 411 596 321 67 266 213 435 325
0 0 0 0 93 273 245 164 187 0 240 283 143 114 28 22 53 24 12 8 0 0 0 0 0 193 83 288 461 105 293 414 526 399 542 901 1256 639 32 16 357 971 309 47 80 123 125 119 99
0 0 0 0 5 295 159 349 264 173 106 230 159 207 82 47 14 30 17 1 0 0 0 0 14 41 40 339 104 114 207 400 696 583 624 1266 966 955 680 292 176 255 94 163 372 97 79 105 60
0 0 0 0 0 148 246 361 363 63 0 0 133 244 98 47 11 21 6 0 0 0 0 0 41 54 128 244 39 310 236 305 657 846 973 1177 963 1249 682 1012 912 424 37 152 460 237 179 49 64
0 0 0 0 0 202 225 305 218 0 78 115 68 166 115 42 17 6 10 0 0 0 0 0 76 85 126 450 182 292 393 156 394 662 378 1099 1076 1232 1005 581 821 686 26 252 152 53 45 395 24
0 0 0 0 0 248 166 113 43 48 36 26 2 99 199 72 27 1 4 0 0 0 0 0 205 97 155 266 215 799 372 91 93 559 794 1177 1242 1042 1246 869 995 427 621 421 489 244 366 305 67
0 0 0 0 0 0 182 85 111 126 50 57 174 119 57 111 29 2 0 0 0 0 0 0 347 125 189 133 43 378 502 231 25 514 926 1158 1406 980 1010 1089 1027 858 547 681 558 622 544 386 115
0 0 0 0 0 0 0 0 58 116 62 118 0 62 93 141 36 18 0 0 28 0 0 29 380 254 116 409 146 155 359 756 407 524 891 1127 1359 1211 1147 1084 1367 886 621 561 604 781 578 1034 857
0 0 0 0 0 0 0 0 0 13 39 14 35 1 85 62 173 50 11 7 4 0 0 0 309 304 127 97 440 77 269 416 563 622 1013 842 1389 1244 1377 1144 1011 970 683 961 920 1222 1008 631 1012
0 0 0 0 0 0 0 0 0 0 56 25 9 27 201 44 312 208 51 26 3 109 8 27 190 339 263 68 283 338 194 221 504 650 522 881 938 1241 1441 1283 1206 1236 977 1229 1123 1231 1507 1020 965
0 0 0 0 0 0 0 0 0 0 297 95 36 24 74 35 68 324 154 74 72 155 134 108 98 297 408 138 57 286 392 93 198 804 806 777 1006 905 1096 1417 1216 1090 1404 930 1145 1096 1260 1134 1147
0 0 0 0 0 0 0 0 0 0 84 373 215 0 0 146 93 362 305 168 111 139 168 245 208 152 413 284 12 165 464 121 80 225 884 1024 1089 1026 767 1485 1318 1070 1217 981 1210 1113 1258 1448 1333
0 0 0 0 0 0 0 0 0 0 0 184 237 128 143 335 341 252 161 284 191 154 216 198 398 266 440 484 224 6 202 443 116 109 229 832 311 827 1033 1552 1270 1243 1248 1252 1368 1069 1171 1218 1105
0 0 0 0 0 0 0 0 0 0 0 156 280 224 311 205 59 30 171 324 265 148 161 267 559 440 487 458 724 135 11 378 342 163 60 515 448 810 994 1482 1528 1583 1408 1614 1702 1315 1264 1321 1037
0 0 0 0 0 0 0 0 0 0 0 1 388 291 435 226 35 176 139 132 197 234 366 250 463 725 617 665 595 790 125 15 348 122 108 107 330 490 1435 1401 1322 1655 1713 1671 1629 1563 1294 1262 1588

GFSSGP_con_mlcape_066.txt.gz
CAPE
0 0 0 0 0 0 4 1 0 92 34 27 11 10 41 59 156 0 20 318 399 345 777 1223 1536 1548 1839 1874 1916 1858 1674 1345 1935 1829 1632 1797 1664 1644 1608 1004 1317 1640 1148 1569 1561 1599 1768 1812 2015
0 0 0 5 0 25 11 5 45 107 59 28 118 141 130 37 18 17 121 299 181 460 1094 1252 1387 1486 1781 1675 1807 1818 1698 1708 1947 1592 1921 1730 1585 1616 1778 1666 1803 1569 1485 1623 1759 1552 1731 1931 1703
0 0 7 21 4 23 1 8 11 117 133 102 126 116 96 45 17 54 287 462 484 900 1092 1181 1315 1407 1505 1875 2045 1903 1789 1822 1820 1663 1752 1583 1527 1665 1246 1437 1471 1495 1498 1455 1640 1617 1608 1745 1480
0 0 0 25 30 2 0 0 9 94 141 87 28 22 0 54 94 188 518 666 629 924 1047 1470 1491 1438 1483 1652 1636 1810 1809 1907 1786 1806 1808 1559 1465 1535 1326 1259 1294 1055 1184 1634 1356 1299 1458 1471 1758
11 0 6 17 72 0 6 66 115 128 58 21 0 0 2 63 132 396 512 649 680 889 1360 1709 1931 1978 1892 1704 1811 1878 1739 1901 1855 1734 1635 1607 1473 1169 1523 1398 1127 1068 935 899 958 1036 1167 1498 1385
0 4 5 25 84 51 75 163 227 117 81 9 0 0 3 35 207 249 550 646 583 604 1277 1483 1679 1792 1780 1965 1927 1799 1785 1701 1814 1631 1550 1694 1688 1455 1318 1276 1172 1114 1184 1086 978 928 1047 1105 1151
0 34 0 26 61 31 81 167 121 20 15 16 1 0 0 13 8 269 484 463 409 1017 1117 1362 1622 1774 1763 1698 1754 1683 1731 1826 1776 1568 1863 1360 1226 1157 1085 1309 1216 1070 1070 953 862 891 881 824 1000
50 45 17 14 67 40 132 82 264 90 70 47 0 0 0 6 18 203 233 241 440 583 812 1035 1405 1465 1635 1700 1702 1734 1723 1724 1629 1474 1312 1353 1322 1130 1267 1157 1167 1100 1059 994 978 997 936 775 540
84 14 6 19 52 78 187 64 324 339 87 84 141 0 0 29 15 42 115 90 154 564 729 1117 1072 1048 1281 1432 1715 1928 1715 1625 1272 1291 1014 1087 757 866 774 1080 1105 1122 1141 1081 980 758 593 503 722
126 22 14 36 86 111 158 80 341 235 86 125 41 15 9 39 38 42 57 0 0 44 313 529 729 882 1233 1447 1549 1535 1361 745 691 655 581 489 624 585 515 878 1055 1030 1006 818 657 791 781 591 500
98 46 25 67 180 115 201 143 124 79 155 213 8 0 0 3 14 34 11 0 0 0 257 409 666 777 935 1214 1076 820 588 422 295 257 392 601 486 618 563 632 679 699 707 505 337 313 185 183 524
0 1 8 65 264 224 113 7 47 84 271 179 191 7 0 0 0 4 0 13 16 0 85 454 619 521 512 732 496 433 616 713 408 168 452 378 192 124 206 293 261 194 343 267 340 258 352 499 497
0 0 5 69 238 277 46 29 40 31 56 203 79 17 0 0 1 0 0 5 44 32 0 326 369 456 234 351 445 612 582 682 435 308 390 251 4 3 232 436 466 406 429 213 7 63 243 351 289
0 0 0 131 302 251 123 96 7 0 49 150 119 10 17 0 0 0 1 0 20 34 0 246 317 296 266 475 554 550 600 634 298 200 182 142 88 72 266 119 133 212 184 476 125 91 408 319 284
0 0 0 178 245 272 204 105 110 37 352 232 147 13 15 1 0 3 0 0 0 0 0 137 303 346 340 469 376 372 297 494 199 39 0 136 337 248 414 1 26 64 95 283 107 185 526 427 127
0 0 0 99 231 259 114 96 100 97 111 298 193 33 11 9 2 5 18 0 11 0 1 38 339 304 449 407 195 211 156 319 73 97 181 532 114 58 408 94 202 220 392 374 89 377 322 164 119
0 0 0 0 243 221 195 160 73 161 221 241 209 22 14 12 18 20 10 0 0 0 0 87 189 194 91 693 185 341 378 307 137 195 465 827 317 284 76 29 204 461 357 59 32 230 128 136 168
0 0 0 0 6 245 212 315 83 86 291 235 215 43 35 8 9 9 8 3 0 0 0 67 124 121 96 436 200 60 300 222 189 237 660 982 710 146 47 38 213 33 88 124 143 45 74 90 98
0 0 0 0 0 68 165 282 153 88 72 10 164 159 47 1 9 12 1 0 0 0 0 0 87 69 82 190 200 48 246 258 400 299 520 815 694 599 475 248 313 147 46 208 98 38 178 81 44
0 0 0 0 0 6 193 330 137 192 0 2 187 172 107 50 52 11 0 1 11 0 0 0 20 0 88 169 71 154 212 359 528 443 829 845 831 892 459 531 454 114 43 203 52 41 58 59 32
0 0 0 0 0 181 274 323 341 279 42 78 225 220 238 99 96 16 3 0 0 0 6 11 32 28 96 181 75 291 220 134 478 579 569 947 815 1100 764 696 635 257 3 138 95 39 136 27 15
0 0 0 0 0 0 36 41 133 57 14 238 262 163 214 85 85 13 0 15 0 0 0 4 73 55 68 105 82 204 217 118 151 434 479 685 1049 944 994 782 605 302 301 111 306 652 278 70 20
0 0 0 0 0 0 0 0 0 41 16 212 402 157 98 121 111 7 0 25 0 0 0 37 77 88 111 128 48 111 472 257 52 230 667 582 1104 920 992 992 849 401 184 459 331 342 408 574 393
0 0 0 0 0 0 0 0 0 0 12 233 444 76 64 166 187 61 4 0 0 0 0 57 69 72 116 90 79 34 381 488 290 121 558 681 1083 995 729 919 1045 684 400 373 437 701 643 445 742
0 0 0 0 0 0 0 0 0 0 52 118 287 293 343 179 248 89 28 1 0 0 0 52 81 67 101 89 85 22 140 309 639 454 419 732 1110 1052 1030 905 897 656 316 699 632 682 984 634 584
0 0 0 0 0 0 0 0 0 0 7 189 376 330 138 114 190 157 20 12 18 0 0 82 79 52 67 98 90 166 168 139 382 644 607 805 941 914 1072 1061 963 902 728 715 816 843 878 847 800
0 0 0 0 0 0 0 0 0 0 0 122 190 178 97 228 198 256 74 28 27 9 0 0 108 51 41 24 0 19 215 217 196 614 687 844 749 737 933 1182 1123 1001 884 645 942 781 843 958 812
0 0 0 0 0 0 0 0 0 0 0 28 110 156 226 206 214 350 156 81 81 82 15 0 13 57 59 38 3 0 0 233 254 227 492 890 808 807 794 1174 1225 1044 918 861 665 795 837 982 985
0 0 0 0 0 0 0 0 0 0 0 1 223 186 124 251 216 367 246 125 97 184 177 68 18 51 178 130 75 0 0 101 309 199 125 381 908 854 988 1112 912 1134 1023 906 895 729 730 943 938
0 0 0 0 0 0 0 0 0 0 0 0 56 116 109 160 212 286 338 249 151 106 203 200 172 134 104 225 211 75 0 2 175 254 170 69 238 690 1021 869 1143 1153 1111 972 1058 1009 1020 898 1135

GFSSGP_con_mlcape_069.txt.gz
CAPE
5 0 0 0 0 0 0 48 60 65 92 0 0 0 2 32 143 0 0 112 0 2 952 1396 1547 1643 1908 2074 1890 1740 1316 1914 1819 1752 1705 1532 1736 1362 1495 1315 1219 1650 1795 1612 1707 1890 2080 2157 1975
0 0 0 18 0 38 25 0 63 129 106 0 9 8 123 31 36 28 49 139 0 206 993 1444 1631 1918 2024 2012 1950 1707 1656 2175 1697 1943 1853 1703 1897 1536 1421 1690 1549 1308 1542 1595 1656 1711 1931 1880 1720
0 0 9 26 6 26 44 17 70 122 53 52 148 91 107 91 14 13 265 157 67 548 1095 1273 1694 1920 1951 1927 1909 1802 1793 2078 1665 2061 1628 1662 1696 1741 1651 1603 1416 1427 1318 1403 1568 1740 1827 1689 1488
0 1 0 4 3 2 0 18 13 90 108 84 54 49 35 69 6 236 373 255 244 726 959 1527 1644 1678 1885 2022 1919 1881 1823 1827 1677 1783 1674 1635 1631 1167 1539 1199 1316 1442 1266 1420 1410 1496 1600 1672 1481
11 0 3 45 65 1 0 0 0 86 104 38 25 3 0 99 280 357 254 251 376 721 1164 1447 1510 1623 1953 1885 1924 1844 1824 1844 1702 1513 1619 1386 1654 1509 1446 1249 1059 961 1059 1064 1109 1455 1358 1439 1337
0 9 21 52 95 4 22 61 58 196 71 17 6 7 25 260 237 484 478 357 700 820 1160 1613 1732 1602 1608 1558 1785 1805 1712 1731 1648 1550 1639 1593 1199 1425 1250 1237 1132 1078 853 870 1191 1291 1156 1433 1539
2 57 4 53 20 7 102 159 98 31 27 23 4 12 160 187 330 528 498 588 775 997 1370 1590 1720 1786 1632 1713 1742 1800 1707 1720 1596 1510 1503 1432 1435 1244 1341 1176 1083 891 922 945 990 936 1109 1309 1446
86 85 12 8 60 99 187 184 46 38 57 16 1 12 39 158 393 462 437 539 667 952 892 1198 1405 1522 1637 1727 1707 1753 1748 1830 1538 1549 1263 1300 1082 1249 1354 1194 1136 1017 889 999 1024 1084 1184 881 1275
157 104 16 15 61 63 128 101 192 160 28 0 138 0 34 160 295 300 328 328 562 806 890 1062 1410 1426 1350 1445 1537 1487 1674 1499 1357 1329 1489 1280 833 1081 1071 1235 1226 1149 1044 844 907 765 850 957 972
200 94 14 18 74 156 194 127 121 59 108 81 0 8 24 149 167 122 84 74 282 374 740 992 862 1037 1324 1544 1660 1409 1305 1300 1253 1049 780 602 689 600 917 1234 1222 1160 1158 1092 619 636 768 583 483
138 57 11 54 150 260 200 277 178 87 52 85 0 13 26 52 98 50 0 0 0 310 742 728 651 970 1106 1379 1319 1039 891 714 794 606 461 513 533 796 817 975 869 898 963 549 495 812 401 341 584
48 16 29 17 218 237 164 131 160 91 176 43 7 26 26 33 41 58 0 0 37 107 268 444 576 760 963 1121 842 406 482 491 310 369 374 472 330 294 333 380 320 302 301 332 391 278 404 636 471
15 12 0 0 30 256 31 16 51 147 316 301 7 19 33 25 76 90 4 0 0 13 173 334 521 389 657 592 501 330 292 375 305 204 445 264 104 21 142 104 179 188 317 194 91 150 319 269 370
0 0 0 0 36 229 83 71 46 82 134 224 41 1 7 1 21 40 6 3 0 0 108 366 448 257 383 213 236 343 519 657 511 333 418 176 15 135 233 369 339 357 230 348 172 153 293 416 407
0 0 0 14 170 297 142 74 89 25 44 71 141 6 0 0 2 5 5 18 4 0 65 266 284 239 175 121 217 400 473 636 379 305 183 175 83 124 231 147 88 148 117 359 325 207 440 431 256
0 0 0 187 297 290 170 90 64 125 30 67 48 12 32 3 1 4 16 40 76 43 24 215 318 261 120 313 464 405 442 520 372 161 48 224 326 252 325 1 53 102 205 312 257 207 368 244 186
0 0 0 31 189 276 159 115 115 310 316 143 58 7 15 1 2 1 1 1 43 61 49 162 280 280 154 369 293 283 264 434 291 120 47 347 179 175 326 101 196 279 373 191 101 275 195 173 173
0 0 0 0 69 227 178 145 134 261 210 325 118 21 6 0 1 0 0 1 50 83 66 122 267 333 211 463 208 237 307 205 252 160 258 592 220 221 92 59 216 382 228 33 56 130 112 113 141
0 0 0 0 0 0 2 72 85 113 196 283 238 47 43 5 0 2 0 0 8 61 48 57 220 231 270 246 125 213 263 298 267 171 394 535 649 160 0 102 167 0 80 110 75 38 88 83 59
0 0 0 0 0 0 0 21 144 127 221 415 302 75 34 1 0 0 1 0 4 35 38 71 189 85 147 275 183 128 281 312 324 233 434 620 710 623 354 256 453 30 77 75 61 41 113 56 33
0 0 0 0 0 81 243 187 146 85 151 97 124 155 54 1 3 0 0 0 0 0 0 85 123 73 96 178 193 144 208 289 442 355 514 757 705 717 542 544 432 357 35 34 19 45 33 22 15
0 0 0 0 0 0 109 0 224 89 158 22 0 203 140 30 2 3 0 0 0 0 0 33 0 7 62 82 127 120 195 225 351 438 504 898 944 1044 830 652 525 286 20 169 198 217 70 13 17
0 0 0 0 0 0 0 0 0 0 110 163 32 120 266 133 67 7 0 0 0 0 0 0 0 0 11 34 112 103 129 157 159 445 524 522 889 941 1067 794 626 378 238 117 274 432 323 257 32
0 0 0 0 0 0 0 0 0 0 0 38 106 211 200 194 91 0 0 0 0 0 0 0 0 0 6 53 101 55 89 168 156 132 360 520 618 950 879 908 863 680 233 386 290 285 370 441 450
0 0 0 0 0 0 0 0 0 0 0 28 37 239 259 231 148 42 0 0 0 0 0 0 0 0 0 34 22 35 29 165 264 201 131 455 574 737 977 776 928 684 450 391 468 493 646 370 481
0 0 0 0 0 0 0 0 0 0 0 0 11 85 360 282 190 167 2 0 0 0 0 3 0 0 0 36 50 23 0 12 289 402 431 276 572 747 966 850 848 915 706 454 643 667 816 907 467
0 0 0 0 0 0 0 0 0 0 0 0 16 181 250 279 64 181 50 0 0 0 0 13 0 0 0 1 36 53 1 0 118 255 444 535 452 763 942 1013 894 913 864 643 665 737 662 909 719
0 0 0 0 0 0 0 0 0 0 0 2 18 71 305 291 78 102 112 11 22 15 11 40 41 3 0 0 21 37 40 0 4 103 277 618 688 649 826 1022 923 1003 1038 977 666 947 825 890 843
0 0 0 0 0 0 0 0 0 0 0 0 13 10 62 126 124 62 130 13 34 43 16 0 91 107 59 19 7 30 40 29 45 94 129 282 655 717 786 849 940 933 1063 1096 923 610 754 906 833
0 0 0 0 0 0 0 0 0 0 0 0 53 36 3 34 114 118 161 30 0 24 35 0 47 150 127 76 39 11 0 0 0 0 69 135 181 425 851 855 929 999 1042 1040 999 828 792 779 772

GFSSGP_con_mlcape_072.txt.gz
CAPE
5 0 0 0 0 0 1 51 27 58 4 0 0 0 0 2 36 0 0 0 0 186 1025 1391 1657 1965 2120 1788 1657 1232 2016 1857 1810 1763 1601 1455 1436 2039 1683 1194 1881 1823 1707 1815 1754 1945 1911 1709 1837
0 0 0 9 0 7 33 3 23 101 48 0 0 0 49 2 64 0 0 0 0 367 1023 1460 1620 1855 2071 1890 1744 1332 1913 1800 1848 1745 1866 1959 1494 1304 1855 1596 1319 1552 1666 1642 1497 1722 1886 2020 1958
0 0 7 17 3 1 0 13 77 98 7 0 88 54 89 55 19 0 25 0 56 555 1017 1278 1643 1818 1957 1888 1774 1639 2043 1613 1985 1868 1809 1860 1830 1655 1581 1529 1441 1258 1483 1659 1760 1734 1857 1726 1376
0 0 0 5 0 51 0 8 67 54 86 161 97 31 17 65 0 109 0 0 113 563 1047 1610 1818 1904 1922 1895 1822 1814 2031 1654 1882 1690 1682 1632 1402 1648 1297 1527 1341 1421 1198 1499 1595 1734 1543 1543 1710
13 0 1 18 42 15 0 1 13 152 110 99 50 13 2 97 173 102 8 0 158 666 1104 1494 1685 1894 1960 1976 1900 1716 1836 1805 1811 1713 1634 1495 1393 1475 1285 1137 1293 1260 1211 1320 1249 1538 1445 1642 1615
6 6 1 6 30 8 22 1 1 107 81 43 0 0 67 184 78 103 86 59 309 650 1123 1304 1505 1877 1920 1900 1903 1643 1759 1637 1579 1489 1593 1319 1549 1271 1156 1086 844 804 997 1211 1462 1324 1431 1735 1819
12 0 0 19 5 3 28 94 3 75 29 6 0 4 132 149 146 192 133 281 542 914 917 1178 1182 1459 1663 1671 1344 1624 1672 1592 1525 1671 1429 1413 1241 1273 1244 1193 996 870 876 1196 1295 1503 1716 1796 1644
30 22 26 23 64 2 7 89 40 55 16 0 0 0 7 158 215 119 352 525 604 713 1048 1330 1367 1288 1285 1544 1585 1674 1618 1606 1450 1410 1322 1292 1088 1125 1002 971 1081 934 974 1195 1335 1488 1313 1632 1771
132 61 2 3 11 74 160 39 115 77 4 16 72 14 77 266 238 159 296 350 397 818 890 976 1026 1186 1380 1437 1536 1626 1814 1346 1425 1268 1251 1001 914 1135 990 1206 1127 1015 1043 1240 1361 1308 1210 1453 1477
160 99 5 14 12 75 193 57 51 32 8 0 2 74 177 223 172 94 102 76 160 407 669 826 918 944 1037 1211 1166 1091 1209 1138 1136 1117 764 660 798 822 1153 1301 1291 1118 961 955 929 977 1232 795 817
196 64 7 64 220 207 199 115 103 55 69 5 3 60 152 164 96 75 7 0 12 322 612 746 867 905 1038 1234 985 1070 1008 942 915 646 496 515 350 798 1036 1075 1004 1062 955 986 885 676 479 431 580
83 15 2 23 238 176 193 170 164 52 74 3 3 71 112 88 26 0 0 0 32 155 459 525 462 682 959 1132 769 738 621 612 524 432 381 373 259 369 554 641 605 513 402 396 469 344 422 724 575
27 10 0 0 67 217 217 163 97 90 38 17 9 46 74 67 18 2 0 0 5 94 298 263 370 489 709 671 471 430 409 374 261 273 337 324 157 36 149 164 239 291 449 324 187 345 473 414 532
0 0 0 0 0 73 75 123 111 304 116 42 19 7 22 47 17 0 0 0 0 64 101 213 255 366 510 229 61 126 228 289 322 205 405 231 92 59 157 214 278 371 321 416 234 270 361 676 480
0 0 0 81 55 105 107 97 41 162 351 147 39 22 2 18 32 0 0 0 0 0 0 100 162 175 207 112 52 114 263 490 507 399 285 328 84 120 202 306 294 272 229 411 455 324 501 495 358
0 0 0 130 299 201 123 69 101 86 73 118 59 15 2 39 31 5 6 1 0 0 0 137 249 86 96 104 102 114 201 367 462 269 156 247 192 106 249 201 100 165 255 377 417 310 477 308 289
0 0 0 20 324 221 119 130 161 171 80 104 142 23 0 31 17 12 3 1 1 0 0 43 135 47 0 0 80 211 260 325 368 237 85 134 315 238 328 81 154 299 406 341 168 349 370 245 328
0 0 0 0 150 219 204 134 175 276 138 136 79 21 0 5 27 0 0 16 17 16 24 39 55 40 41 99 189 160 188 197 223 176 80 174 295 113 228 131 265 372 271 221 69 234 154 205 229
0 0 0 0 0 0 0 0 132 185 402 133 20 17 0 0 6 0 0 0 25 33 21 29 59 59 42 94 187 113 147 128 145 153 120 325 307 269 60 74 233 199 206 90 152 90 221 213 151
0 0 0 0 0 0 0 0 107 216 284 430 195 32 21 0 0 0 0 0 8 25 21 0 37 100 110 156 158 157 170 189 148 168 171 327 461 164 17 75 259 70 133 182 135 70 122 130 57
0 0 0 0 0 89 125 31 94 115 278 160 302 147 14 1 0 0 0 0 0 2 12 0 0 68 152 155 95 97 123 173 220 219 179 366 505 497 377 242 357 24 101 68 56 51 115 94 63
0 0 0 0 0 0 128 0 47 196 93 147 172 210 90 0 0 0 0 0 0 0 1 8 2 9 89 146 121 75 100 124 164 215 196 405 654 690 652 365 366 331 84 115 32 130 82 23 37
0 0 0 0 0 0 0 0 0 100 140 86 191 131 169 63 14 0 0 0 0 0 0 0 0 0 22 90 160 85 63 98 137 218 315 390 737 812 781 567 515 301 102 185 336 280 167 124 21
0 0 0 0 0 0 0 0 0 0 0 42 74 114 47 178 73 2 0 0 0 0 0 0 0 0 0 18 83 104 77 86 122 157 252 350 438 777 818 876 777 475 346 257 149 299 304 405 361
0 0 0 0 0 0 0 0 0 0 0 0 0 35 52 72 197 67 0 0 0 0 0 0 0 0 0 0 7 64 49 52 81 91 126 257 373 544 793 745 821 542 554 324 446 272 349 276 476
0 0 0 0 0 0 0 0 0 0 0 0 0 3 120 121 189 149 7 0 0 0 0 0 0 0 0 0 0 2 58 42 44 78 77 98 181 487 511 789 731 794 598 502 444 481 571 699 517
0 0 0 0 0 0 0 0 0 0 0 0 0 25 53 207 171 144 12 0 0 0 0 0 0 0 0 0 0 0 47 39 50 140 273 247 327 385 630 667 750 715 811 733 418 648 710 718 799
0 0 0 0 0 0 0 0 0 0 0 0 5 0 20 249 296 191 147 0 0 0 0 0 0 0 0 0 0 0 0 0 0 13 263 325 475 476 526 624 725 836 794 879 802 632 721 798 825
0 0 0 0 0 0 0 0 0 0 0 0 0 6 43 38 308 226 162 7 1 0 0 0 28 37 0 0 17 34 13 0 0 0 27 275 334 519 666 741 848 817 689 728 729 781 646 767 821
0 0 0 0 0 0 0 0 0 0 1 1 5 1 24 65 92 189 76 27 0 0 0 0 0 0 13 12 3 0 0 0 34 0 0 77 226 281 501 722 870 903 873 852 1010 1076 904 553 540

GFSSGP_con_mlcape_075.txt.gz
CAPE
0 0 0 0 0 1 8 60 64 87 15 0 0 0 0 0 55 10 0 0 16 533 927 1349 1904 1763 1801 1456 1341 2031 1656 2013 1665 1346 1180 1418 2112 1349 1290 1833 1742 1807 1959 1809 2035 1891 1796 1992 2018
0 0 0 11 0 8 16 21 34 84 11 0 0 0 89 3 67 0 0 0 140 553 836 1240 1716 2120 1716 1635 1416 1966 1670 1942 1775 1896 1758 1353 1258 1576 1325 1550 1708 1604 1784 1759 1761 1902 2130 1664 1748
0 0 10 21 18 0 0 25 52 79 0 1 59 54 175 9 19 0 3 0 260 696 952 1338 1551 1945 1917 1850 1559 2018 1654 1700 1642 1206 1071 1397 1320 1254 1462 1456 1545 1663 1751 1911 1930 1963 1941 1367 1441
0 0 0 8 28 19 4 7 41 0 21 135 100 61 14 9 0 10 0 65 336 725 927 1369 1753 1874 1869 1833 1684 1912 1625 1758 1589 1513 1370 1510 1323 1387 1523 1400 1375 1429 1685 1847 1892 1675 1442 1384 1528
1 0 4 11 43 35 8 1 47 47 108 117 95 9 3 23 162 0 0 111 322 692 1090 1457 1797 1877 1740 1705 1728 1798 1498 1710 1428 1226 1443 1396 1458 1258 1304 1358 1367 1378 1413 1473 1595 1667 1472 1416 2027
3 0 2 4 23 6 48 0 46 160 125 48 23 50 86 139 0 0 0 124 368 684 989 1276 1695 1890 1926 1756 1627 1638 1613 1485 1360 1427 1358 1299 1360 999 1051 821 1012 1115 1349 1512 1539 1424 1504 1839 1880
8 1 5 9 0 14 18 58 29 111 69 70 13 83 13 64 0 0 5 260 488 786 928 1105 1342 1793 1824 1684 1537 1562 1533 1300 1439 1307 1411 1324 1033 1174 1132 1075 626 1031 1464 1537 1504 1704 1572 1780 1833
21 44 12 12 0 0 37 89 88 73 46 8 52 27 0 29 0 1 86 327 572 690 736 601 857 1376 1179 1264 1501 1507 1499 1445 1269 1163 1328 1158 1155 878 974 875 1026 1111 1387 1558 1680 1544 1859 1491 1706
145 56 3 16 31 19 71 51 74 16 13 16 63 21 8 23 26 4 205 431 597 577 826 1177 1076 1195 1443 1370 1401 1424 1532 1282 1285 1231 1300 1141 1125 810 777 1021 1032 1160 1457 1568 1321 1482 1758 1670 1414
258 113 8 65 111 152 78 64 50 15 55 109 74 56 85 106 14 5 124 196 268 627 787 927 1029 1257 1206 1087 1381 1469 858 1287 1470 1249 1163 1120 1099 880 834 1125 1050 1040 1243 1221 1228 1533 1359 1056 1412
279 133 77 113 205 197 86 87 93 13 30 59 42 41 72 31 1 26 73 119 117 437 590 739 977 1100 970 1206 820 786 977 1017 1047 945 915 986 920 1091 953 1013 917 1062 1217 1178 1196 1081 1011 1198 1233
74 45 50 112 319 196 156 137 93 83 41 24 84 38 54 25 16 4 49 75 43 217 564 791 905 901 1143 1019 505 872 857 849 648 750 893 740 722 998 1292 935 1124 1030 949 1051 1149 973 1100 1261 1168
8 28 0 0 143 216 274 129 101 46 24 77 95 52 47 53 14 23 0 0 63 120 405 701 896 1005 1239 1072 760 794 767 641 693 796 782 723 575 662 796 803 856 943 1115 978 812 1065 1135 1294 1255
0 0 0 0 0 284 219 254 69 78 18 24 73 66 114 74 11 7 0 0 44 89 288 379 488 858 1086 637 787 757 768 695 631 645 914 558 400 489 560 751 862 994 1015 932 916 1050 1128 1375 1132
0 0 0 76 32 113 228 126 148 143 18 16 20 11 19 6 7 18 0 0 0 85 264 287 447 624 734 476 495 543 585 646 886 812 745 796 508 468 802 942 1007 955 890 1136 1158 948 1247 1023 1137
0 0 0 184 240 222 154 41 152 158 40 41 7 1 40 52 20 43 11 0 0 40 134 273 229 401 519 279 275 352 600 862 989 867 762 768 721 494 826 786 702 780 946 1090 1195 1055 1171 927 916
0 0 0 131 436 295 232 49 159 299 142 84 35 10 2 20 60 65 46 2 0 0 17 123 276 240 298 231 261 407 547 694 922 885 674 601 684 706 746 896 677 843 1084 1086 748 1029 1055 863 926
0 0 0 8 374 380 272 129 232 177 119 233 144 81 38 33 63 72 49 14 0 0 51 164 308 226 268 251 249 370 611 702 816 722 712 356 790 754 724 655 816 1013 860 782 523 888 726 805 841
0 0 0 0 26 88 35 54 203 512 172 288 265 175 55 56 103 128 73 22 6 5 19 128 220 139 128 52 181 549 430 601 624 762 604 438 880 594 553 651 858 921 846 731 577 682 810 774 714
0 0 0 0 0 0 0 1 155 411 330 327 294 95 61 44 47 43 67 27 11 3 11 104 186 144 160 220 489 557 568 618 617 746 695 680 986 901 606 314 658 651 730 565 699 473 465 597 480
0 0 0 0 0 177 159 77 116 317 520 464 216 78 47 45 21 15 27 25 13 18 24 17 120 211 188 264 470 414 562 626 549 524 647 660 900 1016 849 593 955 606 705 688 572 379 646 604 430
0 0 0 0 0 0 100 0 132 243 342 377 531 236 139 70 36 9 2 0 34 19 42 89 144 231 318 317 352 420 508 455 542 624 757 808 1008 1234 1103 983 990 760 576 449 281 501 509 331 372
0 0 0 0 0 0 0 0 0 287 311 274 281 492 303 123 65 31 3 0 0 13 90 110 133 191 335 437 407 474 536 574 715 741 756 813 994 1283 1373 1159 1004 850 847 814 861 654 545 408 183
0 0 0 0 0 0 0 0 0 0 0 0 45 173 382 246 80 45 48 7 26 29 38 106 176 191 242 376 516 449 392 395 293 522 642 843 1120 1496 1568 1290 1302 913 977 603 886 1204 1006 1156 1031
0 0 0 0 0 0 0 0 0 0 0 0 13 4 198 360 234 51 1 20 18 20 38 73 143 206 224 209 438 525 537 449 345 446 720 780 983 1109 1354 1443 935 942 1186 1127 1106 909 1093 1066 1086
0 0 0 0 0 0 0 0 0 0 0 5 32 59 12 280 373 247 56 48 45 40 84 76 121 147 221 244 292 446 580 537 480 640 645 847 878 1025 1292 1415 1498 1048 1262 1174 1107 1205 1218 1250 1197
0 0 0 0 0 0 0 0 0 0 0 0 1 8 59 255 131 345 293 68 75 72 102 120 161 183 215 247 345 332 393 403 379 523 645 645 752 856 1063 1247 1411 1445 1392 1375 1251 1110 881 1067 1325
0 0 0 0 0 0 0 0 0 0 0 0 1 12 12 69 380 372 516 167 149 132 129 122 147 187 188 227 282 341 272 315 438 542 510 675 790 881 1081 1270 1405 1054 1354 1414 1398 1264 1244 1345 1492
0 0 0 0 0 0 0 0 1 4 2 4 6 7 6 159 327 579 487 232 169 129 111 120 123 151 158 199 236 224 185 173 357 456 473 764 918 1019 1167 1328 1307 1411 1388 1599 1542 1460 1587 1311 1673
0 0 0 0 0 0 0 0 0 4 1 3 5 4 6 1 98 388 500 238 189 123 100 90 122 160 150 155 177 148 214 220 214 220 290 413 660 991 1075 1285 1500 1544 1592 1647 1503 1379 1432 1143 1218

GFSSGP_con_mlcape_081.txt.gz
CAPE
0 0 6 45 103 10 14 8 168 327 58 54 44 43 38 399 542 433 164 649 710 668 641 1008 1293 1255 1783 1937 1648 1646 1234 981 1102 1479 1373 1241 1863 1984 1970 1954 2067 2151 2034 1950 1883 1876 1865 1818 1927
0 0 8 99 74 2 5 67 332 343 89 10 0 0 432 234 291 106 207 675 688 577 493 599 1378 1246 1641 2036 1557 1858 1734 1784 1555 1465 1597 1601 1232 1895 1905 1817 2061 2072 2066 1950 1791 1560 1934 1770 1975
2 7 25 77 174 13 129 155 261 25 0 6 71 174 513 13 45 105 320 524 493 718 457 795 1450 1278 1552 1914 1557 1656 1768 1611 1556 1553 1406 1598 1434 1589 1578 1786 1917 1935 1930 1964 1532 1647 1916 1889 1672
0 9 116 265 89 1 115 215 68 1 58 18 169 201 192 20 57 133 355 506 499 650 966 1376 1654 1439 1657 1670 1574 1545 1653 1507 1564 1630 1564 1628 1657 1612 1594 1765 1909 1898 2049 1820 1485 1449 1687 1889 1692
6 33 215 42 38 5 131 74 26 94 130 49 201 159 0 93 41 130 306 483 463 705 877 1410 1641 1703 1642 1739 1597 1667 1697 1305 1572 1557 1493 1596 1396 1553 1537 1704 1797 1926 1702 1682 1688 1579 2011 1864 1779
54 324 199 58 20 66 145 50 161 131 77 192 169 112 97 132 34 124 260 347 553 526 624 811 1236 1721 1690 1556 1605 1617 1338 1367 1292 1480 1399 1450 1329 1461 1546 1639 1603 1766 1687 1582 1610 1971 2116 1888 1906
84 415 292 107 30 99 193 261 346 133 80 274 331 108 87 89 60 128 250 438 456 740 479 816 1148 1476 1556 1665 1596 1480 1357 1410 1521 1291 1142 1431 1386 1080 1281 1536 1661 1632 1537 1622 1843 2049 2070 1852 1716
297 473 320 170 196 110 236 245 328 185 405 264 365 3 1 59 65 210 326 385 442 392 377 822 762 703 881 1103 1464 1353 1407 1209 1285 1163 1311 978 1050 1119 1176 1270 1535 1484 1386 1571 1546 1662 1869 1586 1230
441 457 247 299 248 22 166 84 177 386 214 358 391 32 11 15 85 168 246 333 377 353 405 654 642 862 903 894 1055 1284 1049 1201 985 685 815 757 1089 892 932 1377 1648 1702 1656 1563 1449 1432 1575 1415 949
750 379 300 410 260 144 17 55 40 113 195 388 230 1 4 22 69 122 294 323 304 146 104 353 684 661 899 324 1063 590 796 660 655 709 1107 1068 724 378 379 1300 1635 1461 1515 1253 1156 1465 1804 1740 1668
666 217 235 559 454 87 13 0 22 32 226 412 98 3 5 16 20 80 166 155 122 134 397 735 816 866 714 381 757 734 498 825 579 812 227 179 518 348 491 1078 1167 1450 1505 1490 1531 1367 1424 1109 975
587 355 147 608 367 175 33 18 50 97 389 417 158 17 9 12 11 39 82 95 79 104 202 807 695 476 166 325 589 238 308 226 378 250 387 420 298 412 795 910 606 945 1438 1212 1241 1237 1443 1259 955
527 198 1 92 65 535 309 305 377 301 342 349 157 3 8 0 17 19 57 80 62 74 139 495 454 591 267 577 183 236 75 240 213 498 455 439 725 867 872 1132 829 976 1022 938 1202 1491 1545 1283 1095
337 361 0 13 0 640 450 338 427 210 357 412 81 5 1 1 9 13 25 45 31 62 181 435 402 357 445 721 472 292 285 160 266 285 518 806 702 994 965 1128 1296 1196 1419 1385 1447 1383 1431 1183 889
243 61 0 7 77 334 468 410 165 362 189 139 57 22 14 5 8 10 16 6 4 28 208 338 340 366 725 559 382 527 259 347 313 419 861 931 901 1523 1189 855 891 1108 1270 1695 1392 1483 1177 1000 789
193 133 75 50 85 321 395 342 474 476 217 143 66 25 29 24 17 9 10 0 1 26 194 333 148 231 508 648 850 435 725 510 799 424 523 979 1358 1218 1517 1008 923 817 1376 1069 1096 1332 767 837 773
138 149 105 143 225 395 502 415 241 418 187 159 40 37 39 30 17 2 5 2 0 15 242 245 188 110 513 783 710 586 873 935 922 896 962 1180 1387 1414 1856 895 987 1406 962 833 746 969 877 745 632
72 134 113 168 359 477 357 388 583 244 129 100 39 18 25 15 7 5 2 2 0 19 223 314 202 48 545 749 723 611 479 680 773 832 1402 1354 1396 1594 1828 916 1006 1375 935 919 996 1425 907 657 607
70 69 2 169 137 525 332 473 412 204 151 100 28 8 5 2 21 52 30 26 4 1 89 337 303 242 349 553 388 155 198 448 508 1089 1178 1308 1256 1502 1466 1075 1165 1190 1120 1068 1031 921 905 447 122
22 115 46 35 83 382 94 474 818 347 112 62 70 147 1 8 64 179 184 80 10 0 0 245 389 501 438 428 352 116 252 106 470 1147 1063 1288 1448 1623 1341 1403 1208 1428 1120 1221 1241 1375 1432 23 331
28 131 35 0 47 22 4 72 404 303 401 71 49 94 121 11 109 180 261 190 28 0 0 193 451 612 675 460 444 878 1085 1083 435 978 888 1193 1239 1456 1621 1455 1550 1481 1284 961 1268 1033 563 953 164
9 32 26 31 0 22 52 135 159 588 247 392 412 320 454 204 114 181 261 262 46 0 0 192 478 625 570 603 500 901 528 132 283 526 787 1545 1377 1332 1423 1412 1528 1644 1173 1420 975 551 1642 1099 686
0 19 40 5 0 89 79 141 21 390 388 144 196 525 571 330 108 188 242 308 108 4 0 285 579 669 513 673 1145 885 1065 606 621 615 1470 1254 1571 1324 1076 1556 1540 1582 1392 1182 1153 1292 1222 743 636
0 33 37 19 0 4 8 52 18 122 494 503 98 551 373 200 349 296 319 382 157 45 1 172 693 959 749 845 1179 1275 989 841 1015 433 830 973 1222 1051 1347 1268 1595 1427 1273 1585 1527 1477 1563 1426 1843
12 34 24 2 0 0 0 86 4 171 146 182 66 119 321 409 435 443 386 458 132 122 136 217 633 1079 1178 1003 1119 1244 1212 991 1284 1299 595 611 737 921 1667 1480 1620 1320 1436 1628 1727 1766 1449 1581 890
1 3 2 0 0 0 19 124 83 88 146 98 163 104 298 588 380 330 444 409 210 93 180 360 705 1246 1236 1255 1387 1599 1513 1133 683 1029 773 659 699 854 2245 1662 1364 1387 1393 1493 1596 1427 1371 1064 1141
0 0 0 13 14 2 49 71 76 63 83 21 29 285 559 97 846 616 517 354 267 196 148 372 686 1194 1450 1338 1468 1641 1782 1582 736 687 909 709 1065 872 1481 1071 1318 1344 1351 1452 1523 1455 1776 1700 1700
0 0 0 0 7 8 47 40 89 0 32 3 4 15 236 893 644 479 531 529 416 473 270 382 680 1038 1468 1521 1441 1496 1554 1769 1510 953 850 727 901 1104 849 1219 1572 1664 1313 1441 1506 1459 1526 1436 1363
0 0 1 18 8 42 19 128 81 0 2 5 5 7 7 12 61 182 218 549 476 680 664 592 729 929 1317 1498 1431 1397 1439 1519 1702 1403 1165 983 1106 1179 1246 1688 1624 1774 1835 1699 1684 1489 1701 1847 1514
0 2 0 1 0 0 4 99 5 0 0 3 7 6 5 4 5 5 5 47 175 403 543 599 703 896 1145 1346 1579 1465 1478 1529 1380 1564 1367 1240 1226 1225 1086 1469 1818 1893 1545 1760 1874 1743 1066 1327 1703

GFSSGP_con_mlcape_084.txt.gz
CAPE
0 0 0 15 9 3 0 3 137 37 60 14 40 120 340 361 511 356 778 784 643 710 909 1353 1625 1518 1415 1586 1648 1114 1049 1061 1353 1079 1326 1868 1871 1907 1860 1987 1897 1834 2026 1814 1874 1866 1898 1969 1572
0 0 2 43 66 0 2 0 260 70 29 9 214 246 147 110 161 674 704 571 533 321 282 582 1276 1930 1709 1599 1394 1766 1758 1610 1544 1426 1357 1312 1849 1549 1749 1902 1932 1895 1835 1782 2003 1966 1974 1837 1740
0 13 10 37 38 31 23 98 105 72 9 99 302 1 62 48 177 620 502 517 204 242 433 866 1182 1819 1687 1828 1703 1751 1634 1527 1646 1576 1504 1398 1645 1645 1772 1902 1896 1858 1714 1623 1934 2033 1662 1514 1383
9 13 30 187 50 1 43 102 58 32 87 158 39 0 7 105 211 393 504 349 287 352 657 1180 1261 1746 1644 1640 1672 1647 1594 1642 1547 1478 1658 1691 1636 1752 1855 1766 1876 1965 1656 1600 1300 1832 1855 1349 1396
1 10 80 17 24 13 32 69 63 42 150 80 0 0 41 120 138 221 272 506 639 409 529 1237 1341 1692 1618 1572 1495 1446 1417 1422 1488 1358 1466 1596 1658 1685 1857 1923 1932 1763 1661 1729 1613 1933 1627 1554 1542
0 41 134 38 0 44 84 136 84 114 217 13 0 1 22 68 100 255 310 558 808 520 644 1024 1407 1519 1517 1597 1574 1372 1293 1447 1515 1545 1537 1558 1593 1674 1751 1773 1710 1565 1657 1658 2072 1863 1645 1468 1276
2 226 176 106 72 91 155 348 144 106 196 100 10 0 15 61 94 202 400 369 197 479 593 714 1143 1518 1651 1581 1428 1321 1535 1438 1367 1200 1382 1078 1152 1595 1694 1732 1564 1531 1671 1841 1967 1730 1535 1109 817
291 303 204 127 108 36 345 315 465 334 246 137 14 0 0 53 108 138 132 271 427 273 444 633 1013 1067 855 1250 1377 1315 1265 1415 1069 1365 1279 1287 1040 1315 1535 1585 1553 1595 1575 1618 1866 1652 991 478 670
240 301 242 197 161 346 411 187 332 607 228 332 122 0 0 13 174 127 78 227 209 411 536 666 862 841 942 1023 1271 1241 1150 862 928 1043 651 940 1117 1014 1108 1283 1517 1535 1413 1433 1729 1445 1369 1293 925
235 273 399 306 229 268 151 112 83 189 217 231 1 5 0 30 206 175 89 137 223 518 529 765 702 821 763 382 992 945 781 938 942 915 706 479 868 531 812 1401 1554 1401 1300 1434 1604 1108 358 1486 1269
571 274 533 421 339 178 124 48 48 180 312 61 0 0 0 27 114 41 108 43 115 331 763 704 891 933 586 675 927 720 528 834 809 915 872 885 41 251 857 1143 1354 1381 1310 1462 1369 1764 1644 1639 1878
324 432 673 523 236 63 27 27 30 82 344 75 18 1 0 6 46 160 179 142 337 497 711 311 616 440 745 725 891 528 707 300 536 496 161 448 895 780 1043 1225 1302 751 1020 71 1003 1626 1790 865 615
609 269 479 493 282 116 41 51 14 79 73 110 38 5 0 3 30 78 83 64 471 632 467 206 439 84 880 477 809 501 453 452 13 210 291 852 480 968 991 316 715 950 1412 750 529 768 892 1004 1302
339 291 39 101 534 307 124 228 218 296 116 266 49 7 5 3 26 49 63 47 47 366 252 256 581 255 657 963 216 133 218 269 571 414 465 961 847 1315 601 817 995 939 1570 1318 0 893 1442 710 991
287 446 21 70 640 567 374 305 278 432 475 236 48 12 10 19 12 37 52 24 33 150 315 309 85 492 950 443 192 702 439 636 596 484 999 920 1284 1180 644 62 488 1164 1547 1835 1098 1563 1069 1072 1021
414 269 62 59 435 505 385 234 285 286 396 154 31 17 13 23 9 25 16 21 13 156 199 269 7 555 298 183 737 210 244 542 706 888 788 1448 1219 1274 1563 910 482 1180 383 1122 676 1253 739 719 924
261 161 113 105 304 462 430 116 327 196 145 94 24 20 17 13 14 22 6 4 5 153 175 273 38 376 506 225 1034 403 74 421 519 841 787 1215 1209 1323 1435 1140 689 1771 794 906 865 828 752 886 503
21 38 38 107 328 479 481 209 130 284 107 66 27 19 31 22 20 4 1 6 0 32 166 296 51 441 822 527 978 738 633 583 676 893 1171 1446 1409 1456 1464 1544 1095 328 1299 960 743 796 474 707 189
33 57 124 39 37 443 581 471 153 459 178 99 22 32 38 42 23 2 7 5 7 4 191 361 241 431 801 601 612 337 445 813 1027 1316 1654 1180 1148 1483 1565 1554 1154 354 760 837 1595 1334 1301 815 826
3 4 73 16 28 165 518 398 476 365 183 79 61 40 50 41 24 15 15 14 8 8 169 390 448 194 810 301 481 646 815 768 924 1051 1253 1448 1440 1330 1468 1157 1312 928 949 1434 1312 407 1332 539 521
0 8 30 44 0 0 9 248 0 326 230 129 46 54 50 21 38 93 34 31 22 30 113 382 639 290 500 502 474 886 828 897 963 956 1255 1186 1390 1531 1375 1570 1400 1107 442 1109 1315 1418 327 561 540
0 0 3 110 102 34 16 127 338 333 199 141 38 54 71 5 72 186 88 75 32 3 77 374 967 495 577 920 393 583 534 590 536 826 1317 1279 1168 1389 1317 1486 1609 1096 504 222 1108 1002 1127 1051 849
0 12 0 4 1 0 13 66 266 378 350 1 0 36 42 84 99 154 196 132 12 0 16 360 837 692 487 933 750 413 374 638 303 1148 841 1286 1361 1544 1181 1551 1536 1436 1278 757 1454 1131 1116 1332 1225
0 2 33 30 0 0 51 44 167 123 18 88 46 125 12 44 194 188 207 180 48 3 10 363 721 953 995 504 630 770 805 405 179 302 406 926 1179 1332 1411 1631 1665 1463 519 68 1681 1396 1435 1480 1748
0 0 19 30 9 1 0 35 88 0 16 107 168 95 39 21 110 219 312 183 171 4 73 581 945 1083 1082 445 850 1469 1156 1005 1002 662 381 959 267 740 1198 1414 1588 1586 1169 1183 1520 1641 1505 1975 908
0 0 32 9 4 4 0 60 92 0 64 381 311 361 10 33 41 195 349 317 314 6 66 460 1103 1241 1047 1078 1105 1128 970 1175 899 1166 1172 178 395 605 1413 1343 1727 1688 1434 1610 1595 1871 1278 1490 983
1 0 24 37 15 6 164 144 144 81 120 133 221 544 480 675 524 309 438 351 376 131 141 329 909 1318 1596 1459 1575 1876 1787 1444 368 346 821 710 1112 502 1101 934 1478 1337 1540 1448 1525 1304 1527 1595 1620
9 0 0 0 0 13 258 219 144 170 115 20 34 48 3 37 325 317 176 136 577 224 233 656 988 1301 1522 1517 1762 1908 2049 1789 1569 1680 963 1351 1526 573 516 604 978 1372 1600 1544 1527 1643 1204 1519 1559
0 0 0 0 0 4 228 119 168 87 51 4 4 4 3 3 21 119 58 1 299 401 226 496 1320 1372 1707 1755 1771 1675 1833 2022 2015 1667 1493 930 1169 1167 425 0 370 1350 1449 1461 1500 1109 1166 1340 1095
0 0 0 0 0 0 1 74 27 41 12 3 3 5 6 2 0 3 5 31 8 11 345 327 337 1031 1424 1697 1787 1803 1912 1685 1893 1853 1767 1597 1228 1254 1210 1372 1519 1599 1495 1526 1459 1491 1175 1222 1409

GFSSGP_con_mlcape_087.txt.gz
CAPE
0 0 0 2 32 20 12 9 106 31 74 83 157 148 249 351 169 69 362 653 815 1014 1351 1407 1612 1338 1218 1295 1075 981 864 1121 952 1536 1801 1819 1851 1851 1924 1862 1918 1826 1844 1896 1871 1880 1394 1409 1545
0 0 0 10 1 33 12 33 72 127 116 31 0 69 272 395 434 541 517 635 877 1066 1279 1329 1434 1319 1310 1275 1337 1486 1475 1497 1353 1178 1602 1751 1696 1905 1953 1873 1704 1874 2013 1945 1930 1879 1686 1583 1211
0 0 4 18 19 29 25 40 135 195 81 2 10 5 271 371 513 401 401 356 260 301 609 1465 1498 1530 1733 1777 1646 1456 1388 1611 1515 1366 1322 1596 1592 1778 1920 1915 1928 1703 1841 2091 1836 1390 1249 1038 819
0 10 14 7 2 17 40 60 151 27 0 0 0 3 170 361 271 241 150 78 143 132 543 1559 1571 1472 1656 1601 1505 1598 1594 1410 1475 1643 1471 1678 1674 1883 1824 1910 1864 1641 1437 1754 1788 1560 1221 1312 1518
0 2 21 30 7 20 58 203 128 35 1 0 0 38 155 116 96 166 80 187 383 145 634 1474 1526 1500 1511 1476 1456 1515 1477 1421 1398 1628 1691 1606 1602 1708 1880 1872 1786 1820 1617 1793 1760 1527 1348 1502 1454
0 9 75 20 7 29 35 84 29 0 0 0 0 16 97 173 70 54 134 147 300 372 596 1254 1396 1428 1439 1355 1249 1321 1321 1408 1525 1439 1427 1577 1671 1774 1812 1616 1739 1634 1237 1953 1655 1283 1212 1119 1250
0 5 82 0 7 40 106 178 118 0 0 0 0 0 42 163 187 357 391 116 249 698 688 1027 1254 1363 1417 1235 1208 1249 1320 1441 1462 1234 1397 1509 1675 1708 1706 1562 1562 1759 1905 1867 1517 1037 816 958 1008
3 86 45 49 48 43 197 221 395 22 5 0 0 0 14 58 146 250 311 319 332 455 574 917 1067 1126 1100 1133 1163 1363 1340 1208 1217 1326 1137 1361 1594 1633 1528 1604 1751 1824 1871 1968 1574 1004 791 704 857
125 58 79 83 31 75 255 215 317 470 109 13 0 0 8 49 55 61 138 176 318 322 609 670 764 778 823 1003 996 1042 1162 715 744 827 998 982 903 1113 1275 1287 1660 1696 1664 1570 1243 608 692 885 892
58 54 71 34 144 209 190 233 184 191 114 43 1 15 30 75 106 68 68 133 308 384 571 710 624 565 539 713 442 459 395 331 381 477 774 829 791 837 836 1322 1649 1639 1159 1387 1321 1112 913 1038 771
42 161 306 136 407 299 188 86 109 153 72 0 0 2 39 32 64 42 20 38 324 428 519 426 359 405 363 336 357 146 496 666 549 381 431 773 806 912 997 1217 1277 1247 472 639 927 811 739 1061 1459
281 247 392 400 296 153 134 60 90 273 31 12 1 1 48 28 33 36 20 220 245 139 419 434 536 433 557 441 352 93 298 495 607 831 520 200 286 662 611 993 1054 576 963 501 962 1251 1600 1667 1645
7 186 412 299 174 102 29 57 105 132 67 22 2 2 108 54 46 45 37 201 348 373 418 504 433 409 536 636 439 190 271 253 243 239 273 622 409 803 594 599 826 974 196 592 27 500 916 658 519
397 269 460 252 110 100 52 59 78 50 15 35 0 0 13 34 83 69 186 222 135 183 199 11 6 285 738 733 224 273 490 0 79 269 691 726 566 492 222 640 701 589 1040 630 177 609 889 737 473
272 287 102 429 221 136 82 7 11 10 7 100 2 0 0 30 95 41 144 329 218 144 192 80 276 532 461 271 546 362 253 207 290 603 429 722 565 202 425 186 445 905 1267 803 874 977 1363 861 360
144 167 173 256 400 330 212 132 332 32 18 105 6 0 0 20 41 25 37 193 96 123 66 0 335 460 129 297 262 193 448 386 410 715 771 1047 701 587 610 309 655 512 549 843 539 797 488 539 717
50 86 192 63 642 450 188 142 82 280 341 84 18 20 4 7 44 34 19 32 127 41 2 0 33 0 216 361 146 48 224 322 541 269 835 858 1078 1157 1021 828 617 1207 746 826 810 649 773 682 436
0 73 116 55 591 366 119 0 5 248 332 110 32 29 18 6 23 23 11 3 120 39 110 12 47 0 26 626 139 9 142 492 800 643 819 986 1083 1185 890 1479 989 863 841 731 857 582 320 533 190
0 84 62 49 6 454 153 54 178 164 163 20 26 33 20 9 15 10 4 16 163 10 39 85 199 0 97 457 542 471 82 397 751 912 989 748 842 1364 1141 1110 249 572 467 642 1286 985 1135 1122 790
0 1 70 71 40 85 0 77 296 358 171 15 43 59 18 5 9 0 0 0 88 29 33 133 311 524 95 507 272 391 485 545 838 911 1044 746 826 1163 1085 1131 735 695 736 1383 983 506 620 485 484
0 0 0 63 155 37 0 21 325 397 196 110 53 61 83 10 2 2 0 12 18 60 0 355 199 293 330 138 512 1034 713 633 924 1183 897 1355 1331 1216 1021 1048 927 486 462 624 908 1387 422 633 563
0 0 0 41 16 0 17 25 42 325 246 177 49 64 93 47 2 9 5 1 5 61 93 393 107 65 50 604 285 574 542 481 587 608 777 1033 1049 1320 1358 1291 1032 1023 466 485 430 1325 1212 154 440
0 0 68 97 71 114 19 161 84 121 287 212 119 84 48 40 22 6 24 3 58 0 134 462 216 51 39 410 865 492 632 321 397 723 914 894 1097 1178 1193 1121 1127 597 681 177 686 1333 935 1120 1398
0 0 55 43 63 19 7 47 102 78 70 184 145 111 44 61 38 89 52 60 71 60 144 437 406 287 70 518 821 560 419 271 290 703 560 573 1025 1136 914 1357 1192 984 571 442 841 1342 1201 1085 1017
0 0 0 0 3 0 1 63 88 264 193 101 54 93 45 13 23 44 102 131 41 49 142 231 630 348 122 588 505 526 759 511 454 514 304 779 627 814 970 1283 1353 1085 767 61 708 1377 1189 1621 521
0 0 0 0 11 3 18 108 185 192 215 115 13 74 6 22 13 33 16 163 55 4 153 230 580 551 291 485 338 470 713 621 504 515 427 751 125 173 530 900 996 1356 912 1113 1385 1170 1092 1102 1126
0 0 0 0 1 14 220 150 116 90 138 115 100 117 2 0 1 0 5 81 250 12 191 285 477 565 501 848 247 600 998 848 593 832 811 442 354 800 985 837 960 1251 1342 996 1319 1167 1353 1226 982
0 0 0 0 0 27 192 191 224 171 68 120 105 75 22 21 50 16 17 42 75 46 253 448 632 494 586 1101 774 721 773 810 1004 1075 1068 974 692 562 407 690 811 1124 1300 1256 1073 1014 1021 1145 1193
0 0 0 0 0 0 47 111 245 41 22 0 6 40 53 37 252 212 112 51 34 19 140 587 848 839 691 751 1014 954 1317 1230 1097 1137 1536 1217 809 491 449 345 482 872 1172 1227 1252 1122 971 1234 1215
2 0 0 0 0 2 158 141 41 0 0 0 0 9 6 3 14 86 54 142 90 18 30 91 75 523 968 1205 1429 1595 1748 1807 1661 1401 1346 1546 814 687 702 240 0 417 1011 1449 1336 967 1119 913 1102

GFSSGP_con_mlcape_090.txt.gz
CAPE
0 0 0 1 29 0 0 3 0 17 62 74 0 3 0 0 10 0 49 470 576 752 896 1339 1554 1381 1083 1212 1136 883 883 1299 1835 1767 1730 1792 1780 1648 1850 2072 1959 2107 2037 1809 1616 1563 1657 1399 1171
0 0 0 18 12 0 0 17 45 37 42 68 108 211 112 46 184 272 401 593 597 877 1171 1512 1131 1348 1230 910 1068 1687 1495 1289 1312 1721 1745 1870 2079 1861 1800 1886 1980 2034 2025 1977 1872 1800 1649 1594 1368
0 0 1 56 13 1 0 15 71 48 58 62 138 214 314 315 268 314 552 614 809 1061 1020 948 1328 1312 1670 1725 1563 1372 1625 1566 1311 1643 1687 1662 1962 2033 1993 1893 1845 2028 1925 1964 1612 1604 1551 1159 1232
0 12 33 21 8 33 23 3 72 0 53 76 43 72 256 321 277 355 529 539 566 652 1209 1473 1597 1605 1799 1594 1543 1637 1584 1680 1638 1582 1714 1873 1924 2016 1941 1740 1777 1969 2115 1548 1303 1182 1373 1448 883
0 1 0 20 12 42 24 60 15 2 27 41 0 48 170 198 206 252 93 77 15 444 1318 1264 1399 1571 1548 1576 1608 1589 1548 1729 1864 1807 1818 1815 1824 1926 1984 1818 1806 1708 1989 1916 1402 1398 1689 1279 1055
3 5 8 5 14 15 81 50 102 11 60 67 0 0 55 96 72 0 0 0 2 487 1274 1273 1375 1432 1462 1414 1518 1521 1475 1496 1591 1780 1650 1669 1824 1821 1810 1960 1985 1856 2011 1728 1585 1672 1768 1002 1301
1 45 62 8 32 9 19 9 1 9 2 0 0 0 35 45 0 23 137 0 36 676 926 1144 1241 1302 1345 1292 1402 1444 1500 1559 1439 1516 1584 1783 1841 1719 1765 2018 1650 1890 1818 1619 1507 1404 1453 1388 1341
6 119 0 11 25 49 81 35 0 0 0 0 1 0 1 0 15 48 79 3 57 577 728 966 1110 1145 1027 1230 1260 1287 1235 1354 899 1242 1529 1770 1771 1733 1745 1708 1951 1858 1774 1546 1315 1209 1186 1085 1127
118 86 2 34 5 58 170 13 16 10 0 1 0 0 5 102 1 30 14 124 190 295 527 835 807 744 696 975 1181 1114 1060 1056 1244 1008 1456 1614 1347 1375 1442 1864 1854 1787 1672 1449 1108 763 765 990 1195
84 43 12 96 1 79 234 175 174 1 0 4 1 51 29 145 107 83 133 96 0 189 283 566 529 534 629 911 875 814 553 322 664 795 868 683 881 1059 1295 1640 1663 1421 1295 1341 1478 1105 986 1172 712
82 68 36 44 212 354 213 149 147 14 17 0 0 0 25 102 85 112 166 142 157 312 416 482 477 280 315 607 418 282 175 244 326 597 726 696 669 972 1195 1436 1198 366 644 573 560 748 480 1005 949
50 101 414 104 452 202 192 126 241 192 42 0 20 16 6 15 38 63 88 171 258 346 366 419 258 251 227 323 144 181 385 516 405 281 465 540 669 599 739 877 785 716 817 680 641 976 1199 1477 1573
224 157 395 267 175 175 136 178 131 42 14 1 19 20 21 25 9 11 34 220 254 241 295 235 245 329 259 252 109 101 375 542 530 479 253 360 483 357 706 691 594 445 133 469 21 490 802 574 383
125 396 476 204 108 54 117 167 50 71 16 7 29 17 14 19 1 9 119 180 98 224 238 240 301 461 416 319 212 99 427 162 195 156 175 449 477 554 322 526 592 720 678 356 217 472 791 722 133
81 150 266 195 121 74 64 42 72 59 8 2 48 58 39 34 35 50 140 191 225 203 251 333 320 420 607 486 240 217 254 59 400 534 575 435 472 328 264 551 519 847 1060 685 539 818 1101 839 365
152 251 239 188 147 173 11 17 46 22 9 12 7 43 61 38 62 151 205 218 200 151 29 21 546 566 566 565 338 285 162 185 493 467 581 444 230 240 207 155 491 809 856 719 422 675 574 541 446
0 151 88 170 327 248 164 0 59 28 77 9 1 15 13 58 62 193 197 127 135 50 0 227 337 224 252 242 230 305 201 383 584 549 807 538 724 710 825 404 579 639 505 663 700 551 655 590 513
0 1 121 128 268 273 125 41 170 43 69 50 4 9 8 15 45 184 155 95 166 9 0 118 167 117 385 73 164 132 285 334 468 488 770 855 1022 1027 1077 662 744 862 744 719 725 555 286 574 180
0 0 0 115 202 46 58 10 89 229 88 45 1 4 4 12 14 110 132 130 123 0 0 0 0 26 351 211 39 168 252 482 530 483 763 938 934 972 1133 1188 536 500 355 477 932 883 797 776 852
0 0 39 125 33 21 1 9 7 173 215 139 24 28 11 11 12 36 129 116 71 3 8 0 0 73 150 382 328 248 258 360 688 967 911 719 735 1032 872 1024 247 502 656 1167 783 686 384 331 492
0 0 0 33 28 7 0 2 2 116 199 128 65 33 7 3 1 5 118 112 86 65 70 88 0 16 106 466 453 551 501 532 780 795 783 921 859 1009 1060 980 752 524 501 583 768 1064 634 486 621
0 0 0 24 31 3 0 1 1 130 182 137 110 70 27 4 0 4 84 108 62 48 110 178 151 29 100 189 457 582 575 468 456 656 658 991 1177 1033 943 986 928 696 134 317 254 1138 829 309 932
0 0 0 8 51 25 3 28 1 86 173 113 123 93 34 5 1 0 14 84 87 31 150 220 206 143 177 355 231 353 551 425 453 553 816 586 811 1093 1164 1116 833 676 315 185 426 1180 940 1268 1027
0 0 0 153 55 14 0 4 77 3 79 163 139 108 22 8 3 1 6 36 98 84 158 171 163 90 6 183 529 540 526 330 482 576 632 683 617 705 1116 1034 882 618 523 413 701 1179 1194 1151 845
0 0 0 38 13 0 0 3 7 32 172 125 125 105 34 10 4 48 23 33 83 139 263 179 140 5 0 89 455 627 611 217 335 473 523 603 544 921 899 1132 1055 861 468 364 350 972 1065 960 836
0 0 0 0 0 21 34 0 57 146 201 376 224 138 89 38 34 60 41 83 110 135 210 329 196 130 159 42 362 605 624 506 464 530 484 592 568 562 759 1100 1311 1085 829 650 753 966 983 812 958
0 0 0 0 7 0 3 56 58 192 222 128 111 152 126 60 20 40 19 44 113 100 201 296 324 217 163 80 270 520 602 476 472 510 307 551 645 38 579 609 1033 1070 1219 546 1213 1129 1067 1109 990
0 0 0 0 0 0 11 69 85 106 193 250 114 43 56 35 2 6 0 19 23 97 91 280 454 253 213 238 199 457 382 713 457 505 842 724 622 399 885 798 831 845 1210 1138 926 1034 826 888 952
0 0 0 0 0 0 4 66 145 99 47 56 55 83 67 30 15 24 9 32 54 61 77 280 323 433 551 465 348 303 349 704 675 534 943 900 594 551 680 541 689 630 936 1265 1094 909 857 885 1046
0 0 0 0 0 9 134 72 51 26 54 49 43 52 48 53 111 181 91 72 74 82 65 111 270 227 286 388 502 517 399 653 695 573 942 1315 945 637 439 372 287 487 745 990 1168 1100 1020 787 678

GFSSGP_con_mlcape_093.txt.gz
CAPE
72 0 0 0 0 0 0 9 5 13 0 0 0 0 0 1 3 0 0 88 483 645 1044 1089 1421 1553 1273 1145 1154 1175 1750 1627 1593 1716 1894 1736 1783 1994 1946 1933 1851 1957 1798 1492 1427 1060 1223 1192 1191
0 0 0 11 0 0 0 8 38 46 70 0 38 11 49 66 176 10 129 620 550 700 1083 1443 1191 1108 1169 995 906 905 1194 1672 1925 1691 1842 1813 1840 2061 2019 2043 2111 2020 1614 1648 1695 1522 1312 1223 1220
0 0 0 43 17 2 4 53 53 55 39 0 278 239 326 205 204 233 471 665 680 772 1301 1044 1282 1139 1114 1376 1706 1461 1237 1357 1862 1742 1985 1950 1919 1983 2126 2150 2158 2171 1883 1905 1753 1689 1399 1323 1218
0 1 55 15 4 1 28 42 55 23 59 125 219 203 285 281 314 455 631 696 624 945 601 1229 1492 1760 1620 1481 1644 1527 1602 1327 1635 1707 1755 2022 1969 1985 1840 2117 2310 2128 1670 1675 1736 1556 1481 1070 1229
0 7 5 29 3 14 6 50 41 20 35 63 37 95 106 242 448 486 429 531 574 565 1251 1546 1657 1710 1630 1573 1657 1674 1700 1751 1715 1720 1673 1926 1997 2044 1916 1940 1916 1957 1590 1355 1659 1639 1373 1321 1438
17 9 0 20 12 33 57 52 64 36 77 42 6 0 81 249 231 224 235 389 250 843 1047 1328 1514 1616 1620 1687 1676 1631 1800 1928 1885 1769 1742 1910 2044 2126 2150 2074 1902 1915 1813 1735 1584 1168 1485 1318 1440
0 3 23 9 39 64 7 71 78 33 34 0 0 0 62 77 6 52 42 13 637 1092 986 1111 1209 1398 1484 1423 1602 1568 1571 1610 1818 1782 1830 1981 2034 2061 2175 1912 1794 1861 1635 1691 1771 1518 1420 1536 1682
5 24 12 8 33 20 35 40 31 28 0 0 0 0 0 2 0 0 0 0 670 882 911 1051 1134 1195 1185 1175 1472 1588 1659 1486 1704 1723 1882 1903 1879 2029 2136 1968 1952 1665 1555 1525 1638 1463 1352 1503 1594
73 64 2 20 31 9 156 1 8 41 0 0 27 4 0 15 30 0 0 0 292 670 641 909 1077 976 1061 1157 1166 1279 1383 1138 1215 1606 1859 1342 1233 1745 1734 2015 1931 1752 1565 1470 1354 1277 1179 1184 1616
96 31 5 43 25 26 43 0 7 29 11 46 0 0 0 4 0 0 0 0 17 176 532 804 742 679 819 1049 1083 770 902 1054 1054 1205 1195 919 1069 1309 1768 1808 1874 1880 1642 1314 1056 736 840 941 780
102 11 37 23 19 48 88 17 7 4 2 0 0 0 4 0 2 0 0 0 0 86 393 552 466 475 575 730 539 486 358 514 639 801 711 767 939 1275 1132 1052 941 439 824 766 618 547 366 814 919
30 94 80 96 47 139 46 139 0 1 26 2 18 97 36 23 3 1 4 14 62 123 196 381 391 230 244 387 341 285 270 379 466 636 629 681 671 836 784 773 751 682 720 481 683 886 976 1172 1409
158 153 331 200 281 279 144 112 18 79 4 40 44 102 28 63 54 110 69 79 193 208 255 260 218 156 106 113 156 230 447 569 454 385 506 593 427 381 700 641 589 490 246 334 204 538 697 648 248
253 205 254 198 169 159 158 101 77 23 7 21 30 62 90 74 59 88 120 188 203 208 190 261 212 248 142 105 92 132 396 457 472 456 309 467 506 510 581 564 644 719 678 521 314 568 905 504 43
324 193 184 120 103 187 66 56 0 9 21 33 25 37 40 10 42 89 179 185 167 132 171 172 245 363 278 203 177 143 433 164 188 142 245 476 483 480 312 583 640 735 1047 825 706 746 827 392 224
110 212 76 207 147 111 27 64 43 4 7 35 19 12 4 0 30 70 180 165 145 100 106 142 317 331 389 276 174 155 204 138 411 298 537 476 482 331 239 336 417 801 848 776 442 550 597 507 472
80 192 75 184 177 86 21 37 55 10 2 36 36 23 2 5 46 79 152 165 131 158 101 165 329 419 529 383 166 263 120 249 461 407 513 460 272 317 416 239 493 477 716 569 706 607 539 582 507
0 25 105 82 163 71 43 9 74 48 2 35 20 45 7 6 68 136 193 177 186 116 131 163 344 229 333 352 247 189 178 244 384 531 546 473 637 778 1076 634 557 732 664 691 930 638 426 615 489
0 0 0 102 124 34 27 20 49 64 35 14 15 0 9 15 127 151 205 190 144 28 0 285 136 184 99 150 182 227 224 381 471 470 624 790 812 1003 853 1032 660 500 375 535 943 782 637 689 575
0 0 29 102 36 25 10 1 9 81 42 66 4 2 8 33 165 191 163 197 118 52 52 124 10 170 116 88 131 226 178 256 359 429 703 814 838 987 976 935 281 494 681 921 816 912 344 399 559
0 0 33 46 15 0 0 0 0 0 65 88 11 64 15 12 130 163 123 151 112 82 40 23 0 62 246 117 135 319 320 417 570 619 747 683 554 903 944 910 519 641 610 595 604 927 877 514 709
0 0 0 1 4 0 0 0 0 0 15 71 12 65 1 5 73 128 110 138 155 37 22 0 0 0 105 276 284 349 363 391 346 503 682 702 823 915 836 875 771 589 327 421 333 988 687 719 713
0 0 0 0 7 4 0 0 0 4 6 69 46 87 13 0 11 80 129 117 112 45 45 26 0 16 53 242 322 430 289 346 391 351 457 521 704 1013 812 866 801 646 465 131 292 1017 987 1175 953
0 0 0 25 33 3 16 6 17 1 121 80 119 85 23 0 1 90 132 101 54 76 117 86 0 0 60 124 159 304 359 352 378 426 401 607 444 562 841 996 908 646 561 389 408 986 1069 1013 802
0 0 0 4 24 2 0 0 9 6 79 195 126 120 27 4 8 22 74 98 61 140 177 207 126 74 105 207 168 162 330 390 373 393 512 487 539 564 657 1018 911 732 676 366 444 865 834 927 935
0 0 0 1 0 1 4 0 0 103 39 225 220 94 36 14 5 0 13 29 110 134 239 205 178 130 88 111 186 308 466 325 183 341 430 535 463 458 745 907 1022 926 888 543 134 805 915 900 883
0 0 0 0 0 0 1 0 50 202 146 248 226 126 62 24 4 11 67 35 98 147 270 218 165 78 69 74 171 364 493 482 408 398 420 473 590 519 467 747 960 741 819 857 705 830 943 1130 966
0 0 0 0 0 0 0 0 0 165 228 186 169 109 41 14 8 32 58 70 113 99 166 406 272 179 127 111 117 247 503 519 450 430 499 409 419 622 317 251 602 838 1000 1064 577 808 988 860 818
0 0 0 0 0 0 0 0 153 96 165 159 74 93 51 26 7 4 44 52 26 64 126 243 434 410 299 269 249 144 384 478 540 479 457 698 712 591 517 726 691 820 754 952 1131 897 851 852 868
0 0 0 0 0 0 0 0 1 35 15 69 56 41 47 40 28 40 7 20 5 41 81 164 274 271 250 286 363 342 310 463 438 392 590 498 863 591 493 640 516 532 567 743 994 1131 1063 922 729

GFSSGP_con_mlcape_096.txt.gz
CAPE
43 0 0 0 0 0 1 6 6 0 0 0 0 0 0 17 6 0 0 119 324 484 1000 1196 1435 1575 1489 1147 1374 1789 1497 1808 1865 1896 1754 1905 1687 2011 2012 1702 1714 1253 1198 1039 837 991 1137 947 1130
0 0 0 12 1 0 0 17 30 0 0 0 0 2 40 37 94 0 40 422 414 795 1049 1265 1383 1152 1116 1087 996 1596 1669 1429 1560 1851 1671 1666 1870 1905 1503 1689 1805 1693 1552 1306 1497 1480 1498 1432 1247
0 0 8 17 12 5 9 60 30 34 0 0 205 139 208 190 3 69 318 535 564 871 1202 1053 986 1037 907 1097 1236 1112 1522 1579 1656 1370 1705 1912 1944 2047 2009 1794 1900 1792 1606 1696 1559 1477 1412 1415 1509
0 13 61 8 0 4 69 73 14 0 0 214 233 207 182 188 47 381 604 489 479 921 745 1170 1167 1300 1576 1597 1609 1429 1280 1613 1776 1866 1988 2003 2077 2066 2146 2060 1878 1877 1898 1811 1599 1545 1326 1393 1399
11 3 9 2 0 9 64 74 83 13 27 71 157 106 44 361 391 497 499 448 576 450 661 1316 1493 1495 1257 1395 1467 1640 1429 1653 1768 1714 1757 1860 2002 1980 1964 2116 1648 1554 1653 1810 1652 1566 1446 1659 1737
29 8 0 19 1 13 73 112 71 50 64 35 1 0 69 418 229 348 418 468 255 338 1212 1359 1191 1324 1249 1271 1269 1460 1574 1694 1514 1798 2041 2091 2035 1833 2013 2028 2035 1627 1701 1652 1383 1604 1439 1479 1411
1 5 11 32 17 1 53 112 56 16 8 0 0 0 109 162 132 177 307 247 722 897 1020 1254 1170 1105 1253 1099 1430 1604 1662 1545 1721 1904 1994 1921 1776 1681 2061 2043 1898 1713 1770 1655 1357 1773 1420 1497 1676
6 17 15 19 19 6 52 53 38 12 0 0 0 0 22 42 0 102 205 393 679 738 992 909 963 958 871 1201 1141 1523 1523 1342 1261 1716 1726 1831 1666 1940 1732 1924 1732 1668 1708 1805 1595 1697 1575 1558 1495
92 55 9 8 39 36 101 38 15 0 0 0 11 0 31 54 0 0 0 147 539 671 721 819 817 775 865 992 1205 1094 1080 1113 1273 1489 1505 1329 1560 1790 1781 1863 1694 1550 1497 1526 1459 1305 1240 1468 1905
105 62 24 8 25 48 53 35 39 0 0 0 0 8 44 3 0 0 0 0 115 269 512 684 776 663 795 898 880 846 1037 901 1112 1134 941 1018 1227 1588 1816 1980 2020 1910 1778 1457 1081 1005 1268 887 1127
123 6 38 22 13 122 50 33 29 0 0 0 0 0 0 0 0 0 0 0 1 157 423 638 473 447 658 734 518 482 576 641 824 678 717 853 1097 1112 1162 1004 558 784 848 662 534 466 531 767 821
49 31 104 80 45 105 40 45 21 6 0 0 0 0 0 0 0 0 0 0 0 53 287 448 363 239 369 439 315 264 303 452 564 673 666 635 662 781 745 730 655 753 380 449 552 805 846 1005 1176
19 131 186 214 65 111 127 16 8 46 0 4 6 0 0 0 0 0 0 0 0 47 173 166 165 91 148 189 176 215 337 436 425 429 504 489 388 412 607 616 578 465 628 344 348 568 841 496 77
197 163 170 180 126 94 77 5 5 66 19 5 9 0 0 10 0 0 0 0 22 53 92 114 58 64 88 115 133 216 364 486 432 373 374 409 316 536 575 570 631 638 701 679 363 661 909 233 53
340 86 167 155 225 173 99 7 10 57 53 17 32 28 0 19 13 38 38 37 43 42 115 102 66 114 3 71 126 150 373 196 364 371 283 391 466 424 360 575 615 834 1063 849 560 704 550 321 253
243 134 63 124 147 80 37 41 81 71 52 46 22 57 22 17 28 66 77 102 135 117 107 178 255 281 157 134 132 139 210 99 177 124 197 495 477 481 289 383 436 582 674 569 724 588 644 441 474
76 108 53 131 146 98 14 97 87 29 47 64 40 47 40 13 22 69 123 112 124 103 92 142 216 278 210 219 171 128 136 165 376 296 429 399 309 271 293 211 480 849 633 717 807 449 425 553 330
0 21 75 61 142 95 11 43 36 43 48 58 57 48 28 30 57 90 167 121 97 103 66 86 191 305 306 306 129 177 90 224 333 388 438 390 498 621 839 573 572 634 659 646 861 748 773 921 862
0 0 0 148 102 56 30 13 6 18 40 4 41 16 0 37 60 97 165 190 147 88 2 84 211 237 254 282 249 280 181 126 351 411 619 591 682 760 725 711 652 532 427 701 492 648 561 431 481
0 0 85 116 112 11 0 5 30 18 11 15 44 21 15 13 46 73 153 161 172 98 79 145 228 143 193 190 131 189 140 230 446 349 528 653 811 877 683 666 349 468 795 826 894 629 517 518 622
0 0 110 59 21 1 0 0 6 1 16 39 39 49 0 2 84 138 119 151 170 84 71 113 163 91 83 98 193 204 254 307 362 399 519 659 559 687 592 621 388 542 551 521 563 973 464 789 723
0 0 16 12 11 0 0 0 0 0 5 23 30 6 5 9 116 128 113 158 164 57 31 133 73 95 56 76 182 206 185 258 286 434 533 569 685 687 863 866 642 555 388 390 398 1003 635 874 790
0 0 0 0 0 0 0 0 0 0 0 20 18 15 10 1 111 139 137 175 168 69 31 57 76 33 133 120 148 237 212 260 285 322 431 535 450 640 662 724 746 619 532 124 234 941 987 1050 838
0 0 0 11 0 0 0 0 0 0 0 3 41 48 26 4 58 161 173 174 186 91 61 22 0 11 108 179 197 222 225 148 200 356 281 387 376 564 715 863 692 584 548 315 267 938 951 880 658
0 0 0 0 4 0 0 0 0 0 3 3 8 0 17 16 9 147 154 151 166 138 105 29 0 0 0 140 160 240 211 243 213 311 320 302 446 384 443 689 790 605 545 421 291 691 791 859 873
0 0 0 0 0 0 0 0 0 24 57 144 109 57 32 9 2 93 123 97 116 105 120 79 32 0 0 59 110 128 132 196 251 282 309 384 422 426 421 602 902 797 716 459 257 450 871 763 787
0 0 0 0 0 0 0 0 10 88 75 166 158 76 38 4 11 49 74 60 89 70 159 118 99 26 13 72 183 166 189 205 209 216 306 362 427 383 376 607 762 791 773 786 558 433 734 991 958
0 0 0 0 0 0 0 0 0 43 152 155 195 120 39 11 0 30 33 0 12 44 130 147 152 121 94 86 124 153 318 318 324 301 322 329 241 403 398 317 330 675 698 777 725 549 799 887 776
0 0 0 0 0 0 0 0 77 104 224 209 155 105 68 20 14 9 40 33 27 44 106 262 203 125 137 122 56 86 207 388 402 362 350 471 500 478 342 327 326 459 589 794 903 807 764 789 825
0 0 0 0 0 0 0 0 49 126 216 173 100 47 14 17 14 20 52 57 34 4 106 159 206 124 160 183 150 154 135 201 391 356 320 464 504 366 282 339 509 543 555 603 730 851 877 623 680

GFSSGP_con_mlcape_099.txt.gz
CAPE
0 0 0 1 0 1 0 13 43 0 0 0 0 0 2 120 19 0 0 268 456 609 1195 1321 1329 1297 1691 1770 1605 1157 1409 1546 1896 1862 1868 1868 1987 1886 1784 1640 1299 1155 850 1273 1253 1178 1310 1454 1488
0 0 0 22 23 0 3 49 0 0 0 0 0 0 83 178 29 0 198 525 502 832 1072 1244 1111 1175 1001 1080 1575 1237 1493 1715 1907 1669 1824 1771 1882 1535 1718 1814 1773 1322 1406 1627 1676 1608 1410 1205 976
0 0 18 0 14 13 3 135 0 0 0 0 51 276 330 71 0 164 338 553 824 1036 1215 1311 1026 1130 934 868 1000 1589 1314 1724 1519 1850 1927 1845 1628 1636 1819 1845 1861 1739 1646 1497 1593 1485 1347 1542 1688
0 18 37 3 5 42 104 127 17 0 5 317 93 178 177 86 134 343 489 605 815 1009 640 971 946 969 1320 1328 1305 1445 1357 1793 1360 1631 1759 1814 1683 1944 1860 1834 1879 1767 1815 1611 1575 1481 1528 1592 1611
13 3 12 0 2 47 132 129 0 0 4 299 260 58 21 408 544 424 493 532 724 425 618 1037 1461 1411 1552 1291 1271 1356 1594 1698 1860 1698 1672 1792 1861 1401 1507 1721 1762 1829 1861 1522 1573 1562 1711 1840 2084
23 1 22 0 2 50 169 177 8 11 132 83 77 8 47 451 329 439 439 612 342 255 765 1352 1533 1434 1385 1165 1227 1676 1514 1657 1751 1799 1773 1453 1633 1940 1728 1690 1525 1836 1676 1520 1700 1669 1649 1562 1705
17 8 1 30 13 43 82 166 104 98 94 9 0 0 130 191 386 437 514 352 252 1067 1112 974 1141 1320 1304 1375 1075 1267 1573 1729 1831 2043 1515 1621 1719 1840 1620 1817 1709 1901 1571 1572 1747 1565 1662 1753 1456
3 43 36 62 10 39 128 158 47 36 8 0 0 0 11 87 303 518 333 220 364 723 1014 1140 1134 1086 1103 1013 1436 1620 1362 1532 1783 1576 1735 1437 1801 1614 1660 1633 1756 1805 1728 1678 1754 1542 1542 1568 1793
29 57 15 48 4 56 110 33 37 0 0 5 0 2 22 98 268 239 130 373 385 893 925 1029 855 1012 1045 1076 1228 1366 1212 1488 1628 1662 1289 1682 1696 1359 1251 1640 1579 1653 1726 1537 1467 1231 1391 1584 1645
58 53 47 41 36 69 95 15 0 0 0 0 0 34 41 97 133 0 5 196 333 586 753 771 768 794 836 1018 1296 1426 1212 1421 1569 1467 1555 1427 1737 1640 1731 1735 2006 1960 1723 1524 1309 1426 1410 920 1421
75 24 56 15 42 128 49 3 0 0 0 0 2 0 2 48 0 0 0 116 193 380 503 727 716 965 800 936 903 913 819 1246 1203 1218 1226 1551 1486 1632 1358 1115 1057 1224 1016 987 901 921 1043 1343 1385
68 61 32 10 31 84 39 13 0 0 0 0 0 0 0 0 0 0 0 0 166 275 463 535 529 851 945 649 546 593 542 725 796 1044 1052 1183 1160 1166 1237 1162 1303 987 993 1014 1088 1338 1385 1533 1530
13 124 37 12 32 139 56 31 0 0 0 0 11 4 0 0 0 0 0 0 69 226 370 409 465 590 517 630 507 576 746 738 846 868 874 871 934 1025 1203 1195 1174 1414 1220 1053 1076 1438 1573 961 420
140 112 152 150 118 108 51 9 2 38 0 0 15 0 26 23 0 0 0 0 33 159 248 272 319 445 498 447 579 718 831 856 796 776 786 711 763 1220 1083 1197 1278 1390 1539 1354 1211 1431 1348 808 890
237 94 109 81 159 54 18 0 4 57 2 13 21 33 42 38 0 0 0 0 83 117 153 139 188 268 306 336 483 635 881 625 736 744 821 861 934 915 1034 1207 1308 1675 1689 1384 1422 1416 1232 1037 895
233 134 100 142 153 79 26 10 12 88 12 34 45 48 65 77 8 14 54 20 96 79 164 229 64 178 135 324 518 617 621 576 754 599 753 994 1019 1007 863 952 1232 1170 1283 1465 1485 1187 1343 1178 1164
72 59 70 104 116 55 0 13 71 90 71 57 90 89 81 130 142 167 150 215 175 222 260 273 405 486 374 503 473 497 511 616 682 500 878 867 942 629 867 843 1205 1512 1267 1497 1512 1071 1230 1491 1453
0 31 97 89 153 26 1 5 67 50 88 71 69 115 113 99 128 169 249 296 299 332 361 416 490 586 642 558 504 554 388 748 895 973 992 876 861 1079 1537 1135 1292 1211 1498 1400 1634 1474 1451 1363 1117
0 0 93 226 117 82 62 82 88 46 86 30 56 128 137 92 110 170 273 291 303 306 242 303 378 579 563 558 543 627 465 641 800 972 1015 954 1205 1265 905 1356 1267 1088 1439 1328 1242 1180 1104 1308 1255
0 2 60 194 143 89 44 60 117 102 77 18 67 108 137 96 97 100 215 279 320 193 175 231 302 549 585 786 646 729 640 516 965 906 1107 1199 1344 1257 1398 1338 915 1046 1448 1441 1574 1379 1187 1370 1350
0 0 109 90 53 3 6 4 15 102 76 93 74 125 92 53 110 157 174 230 334 287 197 199 320 500 539 695 591 556 649 633 808 834 774 789 1145 1166 1280 1117 984 1144 1171 1189 1249 1459 1344 1417 1438
0 0 115 7 11 0 1 1 0 25 55 29 25 69 91 37 77 160 161 192 283 297 269 312 392 494 410 458 581 324 484 389 736 583 504 660 1220 1192 1032 1218 1172 1158 1145 1040 1174 1610 1512 1695 1421
0 0 4 43 0 0 0 0 0 18 12 29 28 54 88 58 25 114 194 185 258 300 217 265 321 436 319 322 644 403 527 725 717 779 519 660 843 891 797 866 1341 1186 1131 755 935 1690 1295 1607 1394
0 0 13 0 0 0 0 0 5 0 5 14 41 39 68 79 52 121 191 205 268 263 185 187 232 326 383 297 410 534 545 524 562 717 725 801 882 1176 1207 1278 1165 1316 1294 992 904 1626 1732 1464 1160
0 0 1 0 0 0 0 0 0 15 9 0 10 59 24 74 64 120 156 138 252 226 188 174 180 250 247 393 429 558 365 508 269 479 862 695 411 476 751 834 816 1187 1172 1165 988 1339 1440 1617 1494
0 0 6 5 0 0 0 0 30 19 138 48 7 112 99 70 43 107 158 103 176 219 231 231 221 168 198 276 413 586 452 580 677 767 801 931 927 881 1067 1030 918 1300 1234 1053 917 1129 1526 1394 1413
0 0 0 13 0 0 2 0 9 88 152 159 40 205 98 88 45 42 171 207 270 151 200 261 271 227 177 180 347 465 274 439 500 566 669 824 923 1012 937 1146 1038 1058 1124 1356 1101 793 1244 1605 1622
0 0 0 0 1 2 0 0 0 48 102 258 334 155 119 78 53 99 63 113 110 155 146 242 318 219 204 177 350 384 475 417 602 664 707 766 809 862 924 874 934 1153 1147 1004 826 1280 1318 1316 1496
0 0 0 0 0 0 0 0 47 81 237 314 448 422 286 160 76 209 128 77 80 77 46 156 222 245 240 156 188 279 391 647 718 648 664 812 791 832 900 803 634 674 811 1039 1303 1167 1199 845 1134
0 0 0 0 0 0 0 0 136 275 397 445 456 374 369 287 200 220 219 148 67 0 18 170 357 238 257 307 244 257 199 351 677 771 567 865 624 697 769 754 855 1011 964 1224 1342 1237 1267 972 754

GFSSGP_con_mlcape_102.txt.gz
CAPE
0 0 12 94 231 112 47 104 0 0 0 0 0 0 3 297 29 8 0 173 256 414 687 1047 1269 1366 1850 1661 1354 1597 1677 1928 1866 1805 2052 1918 1779 1769 1547 1312 1034 1596 1509 1458 1446 1444 1486 1357 719
0 0 31 154 152 18 43 8 0 0 0 0 0 0 193 241 0 0 56 183 312 550 646 885 984 1221 1364 1666 1381 1588 1694 1852 1773 1934 1826 1898 1603 1787 1730 1356 1237 1397 1433 1263 1416 1418 1125 1379 1344
0 0 385 40 148 26 30 9 0 0 0 0 0 38 493 3 0 8 119 278 471 654 960 1150 1161 987 889 1371 1505 1339 1669 1514 1872 1899 1740 1531 1751 1872 1884 1786 1766 1600 1512 1458 1459 1339 1608 1603 1512
0 227 260 0 62 136 100 0 0 0 0 73 162 308 2 0 81 115 260 460 739 873 744 542 884 930 1362 995 1480 1489 1818 1423 1636 1899 1762 1813 1754 1867 1902 1856 1798 1688 1638 1558 1657 1646 1661 1673 1801
136 63 45 29 46 166 133 122 0 0 164 304 384 303 0 183 102 213 505 598 530 221 149 612 1483 1587 1595 1495 1438 1657 1670 1890 1932 1594 1572 1800 1732 1833 1826 1800 1825 1830 1672 1682 1662 1640 1938 1992 2110
23 57 2 34 55 222 293 39 0 3 414 368 220 5 88 248 228 404 336 214 62 106 703 944 1321 1461 1463 1668 1519 1642 1790 1751 1326 1495 1321 1423 1871 1758 1631 1862 1958 1629 1761 1761 1708 1728 1696 1670 1243
17 3 1 57 95 228 274 14 5 59 171 231 80 0 159 169 358 353 329 60 23 251 724 938 1182 1279 1274 1202 1594 1500 1652 1640 1251 1554 1374 1462 1706 1647 1735 1910 1874 1648 1840 1809 1730 1760 1689 1668 1503
47 140 5 78 113 115 266 265 269 243 260 76 14 5 67 292 309 415 185 1 416 473 532 731 743 1059 849 1110 1515 1590 1642 1661 1866 1613 1627 1507 1680 1755 1575 1677 1871 1637 1776 1807 1673 1625 1728 1860 1967
14 123 150 153 110 277 262 168 165 134 77 16 24 1 76 213 285 168 0 44 171 428 624 516 691 995 1031 1025 1226 1307 1500 1595 1232 1406 1033 1265 1086 931 1295 1522 1822 1845 1688 1582 1380 1351 1432 1696 1725
140 224 213 228 99 226 162 190 104 112 123 55 0 8 49 174 160 0 0 1 177 316 379 398 527 628 757 641 1166 1088 1058 1317 1273 1345 890 686 956 1233 1151 1419 1740 1585 1337 1174 1175 1215 1033 1092 1215
209 225 233 40 95 292 181 110 37 56 39 108 64 0 28 67 0 0 0 74 156 229 231 281 410 393 398 522 552 540 887 1045 1425 1124 717 865 968 1007 800 1097 1244 1096 1126 1222 1220 1331 1275 1662 1507
199 272 111 52 166 226 175 73 5 0 4 28 28 0 0 0 0 0 3 85 110 168 141 124 173 340 346 332 186 275 760 782 717 821 1259 1278 1062 1114 1096 1178 1344 1339 1190 1498 1523 1338 1684 1446 1473
116 274 21 48 160 187 105 28 0 0 0 0 0 0 0 0 0 0 0 38 94 79 61 64 169 545 710 505 138 256 457 791 652 743 1252 1174 1118 1356 1315 1495 1546 1502 1329 1283 1467 1627 1385 1079 1016
130 171 24 27 182 191 149 34 0 0 0 0 0 0 0 0 0 0 0 3 207 10 6 69 204 591 702 548 557 537 632 766 562 699 1058 1282 1180 1523 1313 1470 1416 1498 1394 1438 1590 1786 1074 837 769
195 255 108 103 311 38 105 53 38 0 0 0 0 0 0 0 0 0 0 0 66 2 2 145 317 676 623 693 682 509 571 581 495 659 1165 1349 1380 1719 1603 1464 1337 1623 1901 2088 1859 1474 1241 756 753
322 269 159 147 225 34 13 69 113 0 0 16 24 1 24 12 0 0 0 3 4 0 0 144 136 307 377 466 748 596 521 502 560 827 1097 1416 1600 1719 1526 1204 1251 1672 1611 1546 1262 1101 818 1029 963
294 260 138 155 135 38 2 60 54 97 21 45 69 63 56 96 86 90 71 57 2 8 19 75 135 108 443 902 723 752 988 886 864 852 1122 1596 1461 1404 1367 1391 1726 1803 1463 1406 1062 1050 1044 931 945
185 100 143 104 26 4 0 36 22 139 48 37 87 91 58 79 166 263 163 136 77 162 170 205 178 408 640 783 790 725 799 1017 927 963 1082 1393 1193 1441 1335 1439 1748 1647 1368 1337 1467 1937 1389 825 837
0 56 98 96 23 0 0 16 21 75 152 105 88 94 129 118 138 250 337 220 200 235 334 347 391 742 694 554 446 580 472 823 919 1021 1379 1593 1471 1350 1459 1425 1648 1539 1470 1933 1784 1352 1273 729 1036
118 203 175 132 94 108 34 48 16 40 75 57 89 98 97 105 136 222 337 342 236 308 344 545 555 929 923 701 650 677 497 564 636 840 1283 1380 1498 1227 1369 1696 1359 1626 1433 2032 2213 1993 964 1041 1611
0 60 208 149 140 65 0 0 119 35 29 20 54 97 112 112 83 170 308 370 366 263 368 497 670 729 1067 916 1039 1235 1122 965 1006 956 837 1228 1372 1250 1294 1590 1543 1715 1371 1289 1784 1714 1990 920 1581
1 13 106 234 100 26 33 0 0 78 112 0 0 67 137 166 207 121 234 388 406 399 331 409 674 681 1084 1363 809 802 566 630 846 970 849 820 845 1077 1056 1522 1572 1805 1332 1599 1604 1662 1899 1960 1124
0 0 1 51 28 30 78 18 28 48 235 122 4 46 94 91 131 238 228 265 391 461 471 456 730 705 548 1281 957 619 428 526 738 966 975 824 880 1094 1290 1285 1818 1723 1300 1453 1631 1800 1650 1656 1324
0 25 8 0 0 8 14 14 128 84 95 212 131 128 68 91 117 154 233 294 349 491 485 425 813 1087 825 1069 1008 753 571 765 741 792 792 619 695 738 801 927 1186 1524 1521 1727 1196 1408 1363 1792 1769
0 0 4 7 1 19 17 5 68 215 175 269 235 125 62 61 166 122 289 435 420 490 510 420 690 932 966 906 840 825 519 507 626 717 437 1004 884 760 747 935 970 1029 1238 1637 1312 1398 1368 1564 1670
0 0 0 16 22 27 59 21 136 182 207 159 283 226 165 111 184 183 257 411 484 504 594 423 555 755 835 721 866 937 621 309 226 393 1028 544 874 771 1292 891 1083 1252 1058 1479 1693 1416 1041 1311 1100
0 0 0 0 20 34 77 18 137 132 262 244 177 106 242 134 149 192 310 471 482 488 618 499 505 699 735 608 805 619 404 420 596 699 596 851 706 1185 1106 1300 1092 1249 1192 1494 1544 1066 1467 1733 1690
0 0 0 8 20 27 88 36 91 336 371 360 192 228 306 195 51 173 282 444 362 395 657 594 610 759 612 520 589 542 508 481 267 486 338 682 783 1037 1417 1543 1450 1086 1114 1024 1263 1090 1169 1558 1191
0 0 0 0 0 1 29 21 294 408 501 516 373 362 441 322 229 151 209 448 569 613 522 342 729 802 685 514 375 402 542 417 568 526 396 748 561 787 1228 1283 1586 1323 1076 1231 1602 1493 1230 1422 1089
0 0 0 0 0 0 8 88 451 623 781 823 797 509 417 292 355 353 149 265 539 549 197 233 219 518 701 541 584 393 257 455 372 603 466 775 636 987 924 1019 1176 1172 925 1055 1472 1228 865 1139 910

GFSSGP_con_mlcape_105.txt.gz
CAPE
0 0 59 274 642 395 69 1 0 0 0 3 3 33 196 228 84 57 78 280 357 416 433 1132 1451 1669 1353 1354 1518 1650 1999 1911 1860 1870 1847 1747 1686 1416 1153 1364 1432 1473 1419 1489 1332 1224 726 562 1125
8 1 220 479 360 73 32 0 0 0 0 0 0 108 192 9 3 43 210 329 390 325 536 853 1256 1701 1718 1488 1691 1739 1831 1733 1917 1941 1832 1755 1758 1599 1351 1195 1453 1333 1488 1480 1151 1331 1467 1380 1025
12 31 584 151 414 51 24 0 0 0 0 4 2 199 18 0 0 73 180 264 617 791 1135 1067 1098 956 1509 1632 1540 1673 1728 1755 1824 1705 1579 1882 1886 1778 1621 1446 1516 1439 1306 1321 1558 1583 1532 1482 1072
37 385 395 76 76 51 23 0 0 0 0 92 241 0 0 28 69 133 185 481 777 802 765 703 750 917 838 1705 1670 1729 1530 1676 1826 1504 1661 1708 1684 1830 1861 1747 1620 1711 1651 1603 1690 1703 1755 1853 1255
133 69 10 14 65 31 20 0 0 0 151 303 40 0 1 47 65 197 402 465 582 379 57 458 1586 1636 1456 1376 1643 1634 1879 1821 1740 1635 1613 1814 1804 1954 1907 1835 1733 1775 1722 1684 1702 1862 1802 1724 1089
8 84 0 50 96 42 95 4 0 63 263 457 8 7 42 39 170 307 406 409 115 124 458 960 1485 1560 1585 1354 1652 1813 1718 1370 1538 1645 1616 1699 1861 2081 1968 1971 1730 1870 1793 1710 1785 1709 1576 1130 933
1 2 31 64 242 104 47 4 19 262 247 127 0 7 32 174 167 104 98 24 151 520 587 771 1171 1230 1461 1800 1632 1766 1759 1414 1446 1540 1871 1736 1823 1725 2008 1760 1808 1981 1837 1825 1838 1859 1809 1747 1628
95 90 154 164 137 134 52 41 42 142 153 125 23 24 39 172 53 108 15 39 232 321 689 746 798 857 1125 1124 1667 1723 1814 1712 1639 1648 1574 1769 1895 1759 2048 1503 1728 1895 1876 1817 1731 1838 1849 1905 1376
10 74 188 133 159 230 165 232 230 251 215 145 136 3 105 65 55 40 11 295 248 326 498 589 573 900 1008 1059 1333 1511 1649 1630 1279 1316 1403 1672 1419 1221 1695 1394 1849 1747 1677 1499 1225 1179 1637 1775 1463
350 244 313 328 241 297 303 241 250 147 157 143 50 23 29 75 27 14 57 82 165 281 374 405 514 544 748 528 1304 899 1202 1566 1252 1201 1429 1834 1233 859 747 1142 1465 1121 1011 867 912 1039 1202 1782 2194
456 363 125 337 368 176 160 188 86 90 60 54 140 88 62 21 22 20 60 105 128 159 144 289 361 520 469 383 485 627 1167 1110 1031 827 589 785 793 985 738 1318 1374 1359 1587 1414 1487 1636 1552 721 1131
268 486 261 255 315 205 120 125 68 59 77 96 74 35 1 11 4 15 64 115 118 68 121 131 120 265 181 186 316 524 714 914 526 830 1130 1171 872 1010 1414 919 954 1430 1015 1278 1189 887 1238 1063 973
270 290 79 60 245 263 156 55 57 42 21 74 38 1 0 3 0 19 64 71 63 57 88 87 154 556 755 214 90 566 561 816 567 1140 1194 1393 1260 1006 1352 1527 1283 1174 1110 891 1086 888 909 973 914
254 311 210 268 455 212 123 33 3 0 11 9 23 1 0 1 0 12 42 46 49 45 35 85 485 508 584 227 341 271 627 488 737 960 1115 1435 1166 1482 1173 1429 991 1183 1386 1128 1195 1389 681 639 486
383 204 126 58 218 223 141 47 15 2 5 0 2 0 1 0 0 3 29 41 95 46 34 176 358 306 243 298 345 550 421 502 550 999 1287 1363 1393 1729 1352 952 1281 1251 1285 1808 1243 922 1022 538 494
346 121 76 53 127 141 234 51 9 17 11 0 3 3 2 8 6 3 8 36 46 30 27 100 232 146 150 362 540 491 651 551 586 694 1020 1487 1823 1595 1457 1252 1012 1063 1361 1057 787 771 536 686 759
103 215 50 142 118 51 43 105 72 15 15 18 19 21 35 42 41 31 27 36 33 22 84 80 127 159 354 478 687 497 880 670 645 789 1201 1504 1580 1695 1796 1579 1360 1878 1191 915 842 322 1014 612 767
3 29 141 51 9 14 20 49 139 35 47 47 45 56 51 63 65 58 49 50 45 87 114 106 77 222 647 794 523 530 916 677 563 910 1281 1421 1422 1550 1860 1415 1431 2179 1388 1118 1089 1526 733 784 835
106 48 78 51 3 0 15 38 34 177 126 53 73 53 63 54 76 81 69 44 51 101 118 70 188 298 583 283 402 514 829 791 938 1402 1324 1391 1432 1525 1817 1654 1482 1707 1542 1793 1636 1656 1218 660 643
36 258 60 29 18 8 27 55 10 37 220 123 86 41 79 77 124 122 127 96 53 82 43 93 432 527 858 386 787 880 622 606 712 952 1153 1419 1291 1566 1364 1856 1576 1616 1443 1812 2137 1907 1624 611 604
53 105 37 1 59 31 18 9 29 20 63 140 165 125 111 115 41 167 212 136 135 61 190 260 455 674 921 608 932 1128 1033 1065 521 810 1017 1132 1288 1316 1740 1737 2089 1489 1793 1578 2060 1500 1659 825 653
20 188 91 3 78 0 27 2 10 37 42 22 49 93 65 112 63 86 211 221 121 187 205 487 652 881 921 1212 782 794 726 397 774 795 826 1019 1206 1200 1307 1505 1710 1870 1859 1875 1724 1597 2405 1820 644
15 11 7 58 123 6 44 18 0 87 55 7 0 37 160 90 69 58 171 122 122 230 248 369 792 893 806 919 682 1035 543 681 468 835 1172 1323 1149 1084 1078 1416 1624 1750 1630 1496 2013 1677 2023 1718 1656
4 48 114 144 81 30 99 94 12 1 77 71 7 0 23 122 133 103 114 197 137 228 200 310 662 952 804 1162 1183 1194 861 771 867 813 893 923 810 1024 1054 1213 1453 1500 1545 1529 1324 1740 1634 2101 2211
60 165 100 23 16 47 65 77 84 103 80 196 145 4 0 71 58 131 100 165 272 428 361 217 624 821 790 1041 771 947 968 934 957 726 628 627 782 515 925 1175 1221 1166 1440 1848 1356 1635 2109 1526 1786
7 56 135 65 104 78 135 69 172 232 219 389 325 64 0 52 191 104 168 240 246 255 252 240 655 810 867 825 847 843 865 555 333 512 771 797 828 656 1229 1200 1081 1118 1588 1471 1695 1389 967 1283 1312
2 20 60 110 0 17 42 192 189 325 264 260 379 378 115 132 13 132 162 276 145 281 316 370 663 810 792 818 899 936 775 656 577 203 945 1175 853 991 1501 974 1064 1132 1118 1355 1594 1261 1628 1710 1681
0 7 16 4 6 21 11 126 149 226 311 294 341 431 479 234 84 140 215 208 212 366 417 497 543 675 611 543 540 649 603 591 648 699 682 305 585 825 1167 1188 1333 1388 1390 1453 1501 1061 1214 1361 1316
0 0 0 19 5 7 43 132 305 339 489 517 500 395 481 302 211 115 271 224 326 513 489 547 489 788 643 591 451 393 316 291 368 261 394 596 666 791 1104 1320 1319 1166 1513 1483 1445 1735 1294 1523 1248
0 0 0 0 0 2 5 267 558 504 485 577 468 404 565 431 290 203 124 184 871 718 749 808 1270 785 573 657 688 589 585 396 281 296 373 734 899 1045 1084 1434 1252 971 1258 1329 1519 1732 901 982 1078

GFSSGP_con_mlcape_108.txt.gz
CAPE
0 0 49 199 312 219 31 17 7 8 28 10 147 210 101 43 91 57 106 350 549 424 860 1168 1459 1105 1493 1441 1693 1712 1793 1827 1776 1742 1654 1518 1277 1349 1385 1481 1457 1508 1380 1260 858 494 779 1356 1179
25 71 161 428 263 27 9 6 13 6 0 44 204 80 9 5 34 152 171 238 297 331 684 1046 1545 1539 1308 1730 1544 1618 1670 1794 1803 1530 1534 1553 1517 1329 1511 1493 1491 1477 1219 1163 1578 1415 1036 926 1187
1 127 441 365 121 4 0 1 0 0 0 140 47 42 0 13 81 183 266 302 397 674 834 1338 1526 1677 1499 1495 1592 1604 1535 1783 1640 1488 1692 1673 1521 1401 1358 1296 1243 1261 1437 1558 1607 1665 1133 1058 1195
41 365 420 7 41 6 0 1 0 0 83 26 0 0 0 38 54 178 469 650 912 1026 911 857 775 1089 1737 1395 1584 1514 1702 1616 1677 1810 1796 1894 1841 1699 1624 1599 1608 1636 1614 1602 1771 1864 1427 1085 940
53 59 2 15 77 2 2 0 0 47 223 1 0 1 9 38 207 490 560 673 607 280 144 854 1359 1055 1528 1546 1589 1642 1746 1698 1714 1863 1889 1920 1894 1847 1700 1694 1653 1676 1649 1780 1584 1779 1127 978 627
17 31 0 25 27 5 1 0 23 113 314 4 0 2 14 124 237 171 277 302 53 146 712 1156 1600 1561 1424 1701 1811 1532 1524 1727 1893 1516 1596 1758 1914 1888 1666 1698 1694 1655 1748 1747 1624 1437 1096 803 402
3 0 6 45 4 26 0 2 38 216 38 12 1 0 23 112 61 223 339 279 334 469 644 1080 1224 1498 1615 1682 1747 1624 1680 1562 1579 1986 1898 1887 2018 1973 1694 1871 1854 1760 1794 1806 1794 1619 1398 974 332
44 30 88 68 32 30 1 41 105 173 28 34 1 2 56 45 146 68 251 165 156 548 784 809 1091 1162 1079 1366 1741 1592 1567 1410 1554 1755 1781 1776 1815 2034 1641 1655 1874 1833 1790 1673 1624 1658 1606 833 424
27 65 147 66 48 20 33 200 100 117 100 39 52 9 4 57 45 6 254 297 501 531 641 720 1023 1227 1383 1449 1603 1806 1621 1474 1474 1417 1367 1292 1343 1277 1558 1366 1589 1610 1401 1156 1454 1533 1384 1497 1393
242 44 132 175 68 26 39 150 237 111 104 75 16 12 15 56 20 8 48 181 178 462 429 573 757 847 872 825 1269 1435 1317 1307 1131 1432 1116 1492 1345 1103 681 1074 1323 1288 1192 1186 1141 1338 1696 1798 2060
117 11 101 301 183 76 119 83 82 36 109 56 45 0 28 40 20 41 203 259 215 131 297 380 787 605 533 946 1262 1259 1290 1209 652 1209 865 1224 441 442 767 855 978 1200 1419 883 1542 1686 1717 1006 1683
124 149 43 231 199 224 59 37 51 29 69 48 59 0 8 25 10 50 57 49 136 180 257 216 150 528 284 671 879 1276 1265 705 746 694 1151 1211 1112 1104 868 777 1189 1680 1596 175 713 1157 863 1178 570
161 385 189 196 355 119 57 23 34 59 84 35 79 12 0 23 19 53 54 37 19 113 151 341 536 415 435 284 639 851 645 1017 942 942 1079 1558 595 742 1083 0 270 1449 1009 1410 1599 1431 1024 911 873
219 334 244 194 259 105 72 21 26 40 46 4 29 17 13 8 21 42 46 34 38 38 206 382 328 522 686 539 971 427 637 823 1298 503 436 751 1351 1173 1023 694 1073 752 1966 1130 825 1255 1178 745 607
419 366 198 309 433 254 103 39 24 13 42 31 32 12 17 4 27 40 33 32 28 24 309 187 263 278 416 555 872 230 441 1024 1190 1289 503 541 1410 1539 1408 962 931 1319 489 974 1216 1138 1011 873 889
368 216 87 44 171 155 220 32 15 20 39 25 23 9 15 13 15 27 26 40 16 9 142 269 162 217 95 193 499 586 545 542 566 999 1171 1651 1529 1537 1234 1351 918 903 1914 1919 1198 1512 1402 727 1142
152 52 146 29 26 72 112 25 17 34 42 21 7 12 14 26 19 15 31 33 17 0 0 276 62 6 294 664 655 527 940 505 951 952 1399 1323 1432 1600 1323 1424 970 1520 1888 1030 1081 854 783 870 949
55 0 14 66 17 51 70 23 1 43 37 24 8 16 24 39 38 21 27 37 49 45 7 9 181 181 148 501 888 893 515 790 1299 982 1279 1373 1312 1323 1854 1805 1478 1996 1535 1037 1548 841 698 1467 875
18 4 2 7 10 32 50 46 77 127 52 43 43 28 44 46 49 27 53 33 42 67 25 19 242 329 397 379 213 747 166 819 636 901 1448 1579 1465 1349 1878 1742 1640 68 807 1575 1982 2082 1975 1115 1062
108 37 57 32 40 21 18 37 31 60 104 94 74 63 40 41 57 35 34 39 13 93 96 258 154 406 484 457 550 699 516 784 1195 1341 1156 1275 1229 1500 1730 1809 1477 1009 1838 1632 2091 1950 2215 1245 723
21 5 24 12 37 31 27 13 30 26 28 35 69 105 56 44 32 44 32 28 9 58 210 130 522 59 662 859 396 848 362 738 695 741 1192 1150 1227 1287 1272 1789 1458 1365 1494 1763 2145 2074 2346 1816 817
62 136 30 0 23 4 15 0 0 2 0 15 55 94 57 46 102 144 76 31 25 113 99 512 673 74 587 773 562 224 779 703 772 851 789 1006 997 1202 1064 1338 1593 1661 872 1175 2086 1931 1979 2363 1937
27 202 102 63 19 22 36 1 2 15 0 0 3 34 29 29 78 101 43 114 100 107 175 479 866 602 602 79 924 852 573 335 260 351 814 1241 1083 1170 1185 1245 1301 1670 1609 1494 1975 1855 1800 2339 2251
99 216 38 5 1 9 63 79 0 6 0 0 0 0 7 67 49 86 63 95 198 64 175 687 739 632 637 622 467 509 441 45 371 342 514 938 1120 957 1237 1047 1590 1583 1596 1442 1268 1922 1608 1680 2005
10 104 103 60 64 55 63 85 70 10 0 0 0 0 17 13 51 85 110 167 143 55 154 563 795 431 656 1008 821 851 471 522 292 418 537 331 402 893 1098 1384 1108 1251 1108 1640 1236 1795 1491 1565 1367
0 51 78 10 66 25 0 74 139 52 49 13 10 6 3 1 9 90 94 123 194 147 78 605 929 531 607 782 905 873 820 874 739 532 400 41 0 253 983 1112 1163 1189 1593 1465 1461 1529 1122 1319 1436
1 9 36 1 0 18 30 10 105 61 108 152 117 60 4 1 0 60 86 109 80 389 241 230 885 991 985 993 709 745 958 762 710 356 20 35 11 251 788 1074 1057 1161 1043 1329 1492 1335 1262 1162 849
3 3 4 1 5 71 0 0 0 297 318 427 326 118 76 1 0 116 85 23 29 261 87 73 696 661 900 894 836 692 782 728 953 212 214 32 45 284 157 471 1029 1111 1099 872 1150 1063 1093 1026 1218
0 0 0 1 1 0 0 0 62 70 355 335 699 419 127 3 1 178 132 169 28 44 78 234 882 812 778 783 865 943 537 689 479 575 484 125 82 604 152 716 1355 1230 1197 1277 1451 1197 881 1141 1087
0 0 0 0 0 0 0 87 167 50 114 261 339 472 243 75 143 125 81 369 116 227 418 135 698 757 714 272 619 626 366 296 421 308 498 357 902 1099 899 957 1228 1083 1194 1247 1371 1204 1115 940 782

GFSSGP_con_mlcape_111.txt.gz
CAPE
0 0 0 196 212 219 31 45 52 46 83 57 12 29 36 23 10 1 99 335 338 545 704 778 1468 1532 1701 1658 1808 1812 1836 1638 1420 1728 1288 1450 1451 1597 1581 1462 1363 1294 1079 362 599 1297 1209 1166 1209
0 7 16 484 116 55 9 10 7 65 57 12 17 14 22 23 48 194 322 374 602 693 1089 1337 1046 1453 1708 1586 1692 1697 1777 1745 1619 1680 1634 1506 1629 1688 1478 1270 897 863 1552 1573 1211 786 971 1085 1200
0 56 299 43 83 30 0 0 0 50 77 0 5 33 76 68 105 214 386 294 568 784 1031 1488 1393 1333 1671 1651 1556 1654 1742 1676 1770 1755 1658 1647 1291 1247 1215 1259 1517 1607 1561 1530 1359 893 934 1043 1028
0 162 46 14 66 51 1 0 0 3 0 0 0 0 106 145 197 429 514 532 705 879 1210 1436 1707 1431 1457 1521 1695 1712 1651 1614 1839 1820 1784 1615 1581 1629 1624 1624 1553 1513 1609 1631 1712 956 618 573 444
0 18 1 13 63 0 0 0 26 3 6 0 0 28 209 251 176 126 65 738 640 526 598 799 1321 1623 1652 1628 1747 1732 1710 1782 1840 1869 1756 1749 1575 1597 1687 1584 1783 1689 1565 1568 1681 835 451 232 318
3 4 2 19 35 0 0 53 3 0 3 0 0 72 132 346 465 510 543 95 63 520 1034 970 1275 1628 1608 1593 1687 1743 1780 1900 1859 1873 1964 1918 1763 1636 1748 1576 1467 1488 1540 1456 1154 661 150 163 336
20 0 0 66 45 0 9 111 103 7 4 0 0 32 122 206 195 211 107 70 588 817 988 1291 1234 1313 1635 1715 1541 1660 1691 1627 1628 1855 1908 1858 1760 1723 1727 1612 1647 1762 1797 1741 1488 869 249 54 175
21 0 2 96 65 0 43 113 4 0 0 0 4 41 0 66 45 98 145 356 480 791 889 836 1053 1321 1449 1658 1645 1619 1494 1805 1990 1973 1901 1980 1823 1717 1827 1795 1806 1757 1829 1744 1658 1388 1201 784 272
69 41 29 57 59 16 98 66 213 42 9 2 10 0 2 63 82 51 17 247 541 763 694 875 1090 1106 1074 1550 1586 1537 1557 1627 1584 1605 1429 1413 1348 1433 1664 1451 1695 1678 1776 1804 1676 1523 1144 1162 1087
110 68 41 147 174 144 157 120 38 51 40 19 3 0 18 50 121 206 355 233 364 340 704 739 967 862 857 946 1142 1171 1339 828 694 638 875 1165 1259 944 1226 1110 1557 1675 1424 1313 1485 1135 1227 1651 1404
138 21 2 0 219 234 213 195 107 79 28 31 0 0 3 12 43 71 114 159 214 319 462 688 842 890 659 885 1206 1207 1228 1255 345 0 506 1055 865 736 493 920 1079 1411 1149 455 724 0 362 851 1542
92 13 2 0 67 72 210 267 72 107 17 10 5 0 1 0 13 35 29 58 160 152 300 607 566 285 808 915 1221 987 891 748 926 657 946 825 40 0 0 491 471 869 141 0 540 356 625 1010 926
78 1 0 18 16 93 216 130 36 85 20 6 0 10 0 0 15 61 49 37 6 82 121 241 316 304 192 551 994 945 780 757 558 681 727 594 301 152 0 8 273 0 806 789 799 873 1146 1015 861
306 120 33 106 198 356 112 64 133 116 37 14 0 0 10 3 38 22 6 20 1 135 85 173 109 570 1050 639 881 698 702 396 21 370 601 611 654 718 261 13 394 302 465 853 844 816 953 876 575
233 274 287 294 337 136 148 88 79 69 46 2 0 0 7 12 25 25 2 0 97 139 94 10 6 312 715 405 323 395 648 837 553 0 51 314 1005 1169 806 848 768 731 1364 1388 1462 1491 1450 416 387
214 209 110 156 248 74 97 85 52 43 10 5 0 3 5 7 26 31 8 7 14 0 0 9 0 81 199 586 386 205 494 968 822 324 278 468 1275 1572 876 1129 963 1260 1370 1244 1146 1146 1344 558 610
66 50 0 5 76 9 81 19 26 71 22 17 0 12 5 20 31 25 12 0 0 0 0 19 38 1 47 209 444 596 497 297 789 1036 1388 1104 1153 1695 801 1187 1621 1669 1451 732 866 980 785 643 811
60 13 0 2 8 25 67 68 76 54 29 33 5 10 9 11 4 25 23 4 0 13 46 52 14 0 287 497 814 635 807 670 1041 1067 993 1262 962 1460 1421 1905 799 625 654 1518 1935 1426 1444 1533 1113
41 7 11 8 30 47 60 61 65 86 58 32 11 11 14 5 0 0 19 7 0 0 37 68 9 223 59 300 296 385 276 498 818 748 979 1098 1086 1204 1608 1589 0 229 701 1494 1890 1656 1794 1466 908
87 13 0 0 3 19 14 32 33 69 73 78 90 11 29 24 1 2 10 5 0 0 0 66 23 51 10 262 285 492 410 631 757 1112 1212 964 1356 1103 1429 1384 952 782 1380 1705 1727 1869 2167 1748 791
69 5 0 0 0 3 5 29 1 49 39 49 75 107 54 29 7 5 8 6 0 0 18 93 76 6 254 647 604 557 261 784 809 909 733 998 1124 869 1105 1557 1077 974 1042 1214 1911 2023 2022 1820 1871
103 2 33 1 0 0 7 1 0 19 19 45 53 47 47 62 37 21 9 0 12 0 166 45 48 24 443 467 440 354 236 281 436 533 810 739 927 1028 876 1260 1475 1134 1007 1070 1651 1727 1636 1896 1805
73 1 54 4 3 0 0 5 0 0 12 4 21 7 48 31 33 43 16 0 37 73 65 204 56 1 285 295 479 314 294 343 331 337 592 594 972 1080 939 885 998 1321 1216 1029 1521 1823 1384 1589 1720
130 183 64 48 0 0 0 6 0 0 0 0 0 0 27 30 27 29 26 33 33 29 86 211 160 60 68 235 394 450 343 270 86 197 210 387 523 768 888 1024 1198 1041 1020 1148 1025 1532 1141 1398 1310
189 78 18 29 2 14 14 2 42 11 0 0 0 0 0 7 16 24 27 37 80 66 121 406 249 191 87 188 260 324 455 96 1 42 11 248 90 417 453 700 958 1117 871 1049 1314 1274 874 1275 1075
85 112 96 25 10 24 69 25 16 30 41 3 0 0 3 34 41 24 42 40 80 99 286 461 453 261 128 279 393 315 460 396 267 139 10 23 0 133 288 598 841 782 1227 1021 1445 886 1329 999 943
0 68 28 18 0 0 20 2 0 48 71 42 5 0 0 3 37 57 46 53 68 69 426 654 476 326 331 547 785 481 554 393 258 222 196 61 0 14 359 496 670 822 1024 1003 1116 1125 853 991 703
27 12 0 5 7 3 26 3 50 15 22 47 61 0 0 0 5 16 61 61 85 113 426 913 571 379 267 745 712 544 567 593 274 93 2 0 0 0 71 424 570 922 730 477 971 840 674 1065 954
0 0 0 0 0 2 15 0 26 2 54 10 34 56 0 0 0 1 39 94 163 186 260 544 812 653 535 902 575 527 682 562 375 227 155 49 0 63 142 76 468 950 728 866 976 902 533 851 657
0 0 0 0 0 0 0 1 0 0 53 1 42 29 33 11 0 0 19 81 48 87 198 429 402 257 814 495 731 616 394 420 539 509 266 2 0 157 82 9 656 770 792 1010 707 734 1031 729 583

GFSSGP_con_mlcape_114.txt.gz
CAPE
12 26 23 110 112 101 24 53 43 57 27 27 25 55 3 13 0 0 0 5 1 200 589 1171 1607 1793 1923 1871 1802 1741 1641 1423 1469 1300 1288 1336 1573 1569 1455 1564 1562 984 805 1466 1397 1021 1346 1261 1074
0 45 54 320 75 2 43 65 32 37 63 35 52 63 68 90 39 49 32 145 396 640 803 1261 1411 1691 1815 1853 1938 1842 1718 1592 1395 1349 1395 1508 1659 1495 1433 1343 849 1239 1291 957 1005 1235 1326 1313 1213
0 130 246 75 64 9 10 90 6 0 22 51 34 47 61 105 98 126 243 523 532 709 1045 1212 1591 1666 1670 1816 1840 1818 1611 1624 1804 1621 1448 1368 1427 1634 1710 1468 1625 1408 1125 872 935 1160 1229 1280 976
0 150 14 48 30 34 13 36 15 22 36 85 90 47 94 138 222 287 464 503 682 950 1291 1461 1592 1767 1600 1763 1705 1770 1710 1877 1692 1661 1515 1459 1323 1314 1350 1504 1565 1584 1553 1655 910 991 965 858 962
0 38 15 61 50 4 19 7 0 0 58 114 62 96 120 324 281 266 442 742 701 966 1446 1784 1503 1694 1612 1761 1797 1751 1743 1904 1886 1866 1744 1664 1727 1881 1869 1682 1702 1725 1868 1787 829 746 503 553 861
14 0 19 36 16 17 21 0 6 10 74 125 65 80 115 243 354 500 638 727 538 404 829 1544 1680 1752 1769 1799 1804 1877 1888 1975 1931 1808 1758 1620 1664 1826 1716 1627 1667 1546 1578 1367 755 489 284 440 467
23 0 1 30 3 43 7 0 5 46 12 18 41 47 126 35 230 494 331 94 92 587 650 1192 1650 1599 1839 1796 1940 1865 1772 1922 1737 1922 1854 1877 1850 1783 1673 1744 1794 1734 1634 1434 858 395 268 340 359
40 6 13 54 39 102 127 10 6 21 27 42 51 86 31 166 396 52 67 470 691 839 1117 1044 1286 1603 1512 1671 1816 1820 1779 1913 2020 1949 1977 1832 1959 1883 1828 1847 1894 1874 1836 1731 1464 1050 756 802 512
97 0 18 104 112 109 73 18 20 27 37 2 48 74 91 97 58 51 353 415 577 666 567 683 1184 1248 1286 1551 1712 1703 1942 1961 2028 1954 2007 1504 1103 1383 1313 1587 1864 1777 1900 1782 1420 1028 645 533 785
101 29 35 76 119 112 41 50 25 0 6 18 3 59 79 36 25 194 323 350 479 595 654 713 828 832 1104 1531 1544 1357 1183 956 1084 1145 1176 846 895 1159 1108 1313 1935 1894 1577 1374 1392 1211 1100 1242 1070
91 17 0 1 26 92 68 34 36 2 26 0 0 7 48 29 11 182 283 333 376 533 697 728 791 709 884 1224 1153 1094 681 551 310 374 843 970 715 642 325 548 672 773 1165 370 937 732 301 873 1140
30 0 0 2 0 36 86 121 65 46 33 0 4 48 66 80 121 151 170 220 304 418 635 715 712 618 590 853 953 1004 1007 593 63 153 627 550 100 14 27 263 224 219 432 133 20 37 222 581 816
24 6 0 0 0 6 51 267 124 84 9 4 1 21 47 46 113 87 105 159 272 300 402 711 678 604 676 865 761 871 1036 699 826 712 497 199 0 0 0 150 27 235 63 673 469 620 741 1001 1195
92 0 0 1 9 236 204 150 59 34 7 3 0 0 1 6 19 17 105 87 113 210 240 398 295 425 665 713 778 682 657 578 548 559 524 428 463 259 59 0 0 8 268 665 957 954 845 859 576
66 13 8 34 60 153 196 84 50 30 3 0 0 0 0 29 35 31 20 0 43 87 135 102 408 657 557 538 671 709 465 25 113 136 297 476 601 854 535 266 285 719 694 1257 1276 1612 1399 1068 440
0 59 64 92 102 39 116 69 50 4 1 6 0 0 0 31 52 20 8 20 63 0 27 61 277 401 380 502 447 482 570 499 59 33 126 483 1182 1104 794 973 853 914 1031 1428 1061 1050 1130 665 423
4 0 0 5 13 1 17 52 102 52 12 26 0 0 1 24 19 6 9 57 56 0 0 0 48 161 247 303 200 247 578 687 498 319 491 752 1190 1306 1371 1420 864 837 927 1225 1726 1355 1009 805 601
20 27 5 4 1 10 1 26 62 54 43 23 0 4 2 26 13 1 45 31 0 3 0 0 0 0 31 238 719 303 496 468 672 834 1078 1234 1129 1675 1630 1619 755 268 1109 1626 1922 1788 1959 1402 939
39 22 2 14 0 12 12 30 31 71 58 33 2 11 17 20 9 11 6 0 0 0 0 0 0 14 80 346 473 365 454 597 793 1087 911 1277 931 1213 1393 942 0 698 1411 1714 1829 2027 1865 966 579
85 26 2 0 82 66 37 24 36 40 46 54 39 8 13 11 21 13 0 0 0 17 0 0 0 83 115 231 435 273 462 423 616 873 998 1177 1241 1239 1419 1109 867 822 1077 1326 1817 1758 1685 1802 1396
4 6 1 2 2 2 1 7 10 3 32 44 54 52 10 3 0 3 0 0 0 6 0 0 11 5 0 248 380 362 518 522 583 721 790 951 1117 909 1104 1193 943 983 836 1094 1485 1538 1702 1465 1466
36 37 37 8 0 0 13 0 0 0 0 38 45 37 24 11 13 5 0 0 0 0 35 53 0 0 227 422 421 305 302 465 377 429 599 759 1062 723 986 1255 931 1012 1076 1005 1586 1465 1512 1466 1497
40 135 76 1 0 0 0 0 0 0 0 22 33 33 44 4 0 0 0 0 0 0 0 0 29 29 202 339 353 289 237 196 289 317 374 550 702 1096 912 874 1216 1152 990 934 1206 1340 1374 1397 1344
78 138 41 24 2 1 0 0 0 0 2 4 35 37 36 13 0 0 0 8 5 3 0 0 0 75 127 191 363 254 212 247 253 192 315 305 295 495 757 906 966 812 822 1003 935 1123 1125 1303 1127
127 69 32 17 5 0 6 0 6 2 0 17 22 20 21 52 4 9 0 47 9 43 81 0 0 28 52 90 301 269 227 161 117 122 193 167 169 361 420 612 599 941 949 961 1236 1102 687 991 1060
199 35 7 2 0 1 66 0 0 6 0 1 0 16 20 72 56 6 0 62 49 61 133 100 0 3 45 60 191 206 268 234 98 80 0 61 139 194 225 446 550 838 912 680 1168 804 1047 840 736
329 109 34 26 9 0 64 12 5 1 4 5 0 1 6 0 29 32 26 50 62 79 144 117 56 40 55 38 103 105 325 260 245 91 58 14 29 14 187 458 410 718 690 906 944 942 922 874 668
66 71 19 1 33 8 38 59 5 9 29 0 4 11 0 0 43 92 71 54 54 81 165 192 159 114 110 45 182 123 244 226 223 125 140 120 3 0 61 319 338 462 763 861 820 814 625 665 729
0 0 0 0 0 0 0 3 17 5 54 104 61 37 0 2 42 86 81 96 63 107 239 268 275 216 183 126 376 266 279 312 256 211 69 0 0 0 0 55 269 465 769 625 728 829 504 535 780
0 0 0 0 0 0 0 0 10 28 29 143 133 124 17 1 7 41 102 112 97 160 282 339 372 301 229 274 375 372 250 319 198 232 94 101 0 0 24 68 239 354 772 727 581 610 912 325 397

GFSSGP_con_mlcape_117.txt.gz
CAPE
227 32 22 149 91 14 15 0 36 0 3 4 3 22 12 18 0 0 0 0 24 92 355 1361 1524 1503 1784 1830 1829 1711 1620 1024 1484 1404 1273 1479 1544 1589 1503 1600 1649 1555 1321 1098 1271 1293 1255 1237 1235
5 68 53 255 2 0 9 20 57 5 42 16 58 5 70 43 57 12 0 13 18 234 784 1327 1708 1806 1764 1835 1946 1755 1767 1170 1508 1428 1333 1585 1605 1437 1455 921 583 793 1383 1149 1510 1536 1431 1418 1357
0 279 162 41 17 3 7 11 55 67 57 65 70 58 88 61 24 11 8 126 311 504 898 1333 1603 1897 1852 2004 1912 1827 1582 1505 1528 1561 1508 1424 1320 1019 968 1925 1587 1198 970 1203 1435 1423 1452 1292 1498
3 164 25 24 2 9 17 9 49 74 75 62 39 61 104 102 77 214 276 359 443 690 1272 1617 1745 1714 1775 1951 1923 1806 1687 1858 1760 1568 1435 1478 1539 1749 1669 1767 1670 1725 1439 1110 1334 1485 1363 1299 1317
0 39 24 57 0 19 12 10 34 78 96 44 2 47 151 309 376 493 463 501 530 842 1252 1535 1780 1686 1917 1718 1880 1843 1803 1788 1618 1617 1695 1680 1674 1676 1610 1618 1766 1906 1996 1104 1085 1142 994 1208 1437
11 6 29 3 4 17 15 23 66 99 151 107 43 80 217 298 332 462 576 658 832 1147 1514 1586 1748 1704 1865 1905 1892 1869 1849 1988 1975 1916 1879 1933 1946 2045 2029 1844 1699 1740 1903 1171 1063 901 755 937 970
5 5 21 12 10 13 12 69 55 73 115 115 77 80 200 265 411 570 581 736 856 1135 1437 1619 1705 1869 1956 1924 1902 1965 1950 1849 1917 1981 1867 2005 1980 1748 1740 1777 1779 1714 1589 1351 1135 802 826 856 674
9 25 48 32 17 8 14 59 29 3 58 143 124 53 110 186 436 438 470 475 360 519 1194 1462 1489 1719 1713 1757 1979 1935 1989 1991 2068 2020 1991 1935 1825 1805 1922 1996 1956 1879 1820 1544 1049 604 792 889 974
60 4 8 50 48 31 6 23 9 41 51 68 130 64 121 270 189 236 119 275 519 773 696 1211 1416 1458 1282 1634 1873 1885 1971 2052 2021 1921 1648 1822 1677 1706 1633 1930 2025 1979 1965 1933 1679 1095 700 803 892
78 1 24 64 95 69 13 27 35 7 15 117 9 124 144 312 31 216 267 365 442 521 660 978 1144 1077 1292 1597 1531 1397 1923 1874 1840 1782 1500 996 1010 1262 1222 1647 1738 1676 1636 1384 1619 1289 1348 1232 1153
67 0 7 9 72 82 54 20 48 7 36 60 1 77 168 62 114 277 326 231 245 219 567 861 736 900 1076 968 981 1087 712 762 852 970 950 897 756 675 517 705 700 670 1007 714 151 347 105 285 664
71 32 12 23 29 77 82 101 21 7 41 0 66 71 114 47 169 217 305 334 402 486 622 703 690 571 704 809 602 771 577 250 223 430 699 713 297 175 133 275 287 9 366 376 88 217 223 470 728
88 7 7 17 33 77 53 91 31 23 4 22 58 50 65 66 195 228 206 308 352 479 553 572 504 484 340 623 851 858 873 232 226 406 595 321 29 10 0 131 68 99 64 400 736 814 880 827 734
75 4 2 6 18 69 139 151 249 35 13 17 0 10 28 79 163 162 190 219 356 380 474 562 491 488 651 644 708 781 812 701 680 567 386 266 93 2 43 117 103 207 488 730 1006 1102 842 800 735
106 24 2 47 20 48 130 86 63 17 11 44 25 35 62 101 97 133 186 185 269 235 450 609 515 512 524 513 599 645 525 505 478 532 459 507 595 730 624 477 618 771 872 1030 1065 880 1111 788 367
54 24 10 27 4 24 35 49 39 6 7 16 2 0 0 40 111 122 153 160 158 160 278 307 289 441 451 492 512 556 281 110 141 161 194 467 917 986 803 637 692 740 1147 1093 1348 1006 813 504 311
5 9 10 11 7 47 23 62 60 8 2 10 0 0 0 28 77 98 112 84 82 132 105 175 326 346 392 337 402 445 231 321 0 0 307 926 1292 1048 1020 1027 829 600 1178 1645 1687 1661 713 567 419
13 49 0 8 13 45 20 54 36 7 15 0 0 0 0 5 11 57 28 0 76 67 7 91 122 132 249 239 185 204 443 545 471 526 657 970 1246 1328 1429 1117 387 542 1374 1548 1884 1671 1391 722 579
9 48 36 16 22 29 1 47 31 28 42 13 2 0 0 8 14 35 9 52 67 0 0 0 43 89 163 390 295 301 367 472 520 828 943 1163 1031 1263 1329 119 132 1068 1241 1459 1778 1822 1609 1032 469
69 60 23 43 68 34 15 36 35 17 55 50 11 0 0 0 3 11 14 0 22 21 0 0 0 19 73 238 308 216 333 422 429 770 857 1024 1022 1276 1142 990 701 831 934 1313 1440 1562 1228 1006 757
63 0 3 7 4 11 36 14 44 25 28 53 12 0 0 7 0 0 2 4 0 0 0 0 0 0 62 177 394 232 417 456 580 692 740 798 1008 1047 1076 951 847 806 736 1112 1252 1389 1265 920 525
80 39 14 8 1 0 2 0 1 2 11 14 14 0 0 1 12 29 16 0 0 0 0 0 0 0 84 189 313 198 192 347 354 441 596 680 798 753 1040 982 833 839 912 1188 1343 1206 1200 1066 836
54 100 33 0 0 0 3 1 0 7 10 14 0 6 0 0 0 0 27 20 0 2 0 0 0 27 82 222 193 216 241 175 210 294 427 504 685 886 1027 953 995 946 831 890 1145 1078 993 1091 588
187 63 19 1 0 0 0 0 0 0 0 1 0 5 1 0 0 5 26 32 5 10 5 0 0 14 121 228 261 208 172 196 237 237 274 302 374 561 885 764 925 896 716 925 880 879 1027 868 1071
133 44 11 7 1 0 7 0 0 5 0 0 0 1 9 0 0 4 0 6 5 0 1 0 0 0 68 164 238 220 191 174 199 181 187 251 206 283 402 633 724 772 795 783 924 919 666 872 836
131 48 27 0 0 0 24 0 0 0 0 0 0 4 11 15 0 6 29 43 41 1 0 0 0 0 0 87 152 233 165 145 102 106 73 157 179 162 222 373 553 512 897 547 761 733 926 715 685
267 103 20 0 20 8 23 48 7 7 12 5 0 11 30 30 2 8 32 69 72 60 51 3 0 0 60 29 97 117 181 191 152 120 8 10 32 76 119 343 445 543 682 768 783 865 725 675 550
237 136 50 19 17 8 14 33 23 26 5 17 30 18 5 1 17 19 30 73 91 95 110 60 16 0 0 50 74 103 142 183 200 211 49 13 0 4 6 285 385 298 534 698 814 788 722 591 552
7 51 1 10 11 0 1 0 16 30 9 3 5 11 9 2 31 21 38 73 98 130 144 122 103 31 0 73 60 95 99 158 182 176 33 78 35 11 0 2 261 246 484 637 579 689 671 411 591
0 0 0 0 0 0 0 0 10 63 54 24 0 1 3 10 34 68 62 85 65 107 134 170 169 96 53 80 99 87 150 174 183 149 145 38 0 0 0 0 40 228 487 511 501 582 679 663 359

GFSSGP_con_mlcape_120.txt.gz
CAPE
82 49 80 250 25 0 0 0 12 0 0 2 9 2 35 32 0 0 0 2 10 60 500 1029 1183 1575 1484 1538 1754 1543 1416 1601 1478 1517 1565 1549 1567 1638 1743 1530 1176 1224 1124 1317 1423 1373 1364 1378 1449
102 36 105 233 0 0 0 9 0 8 0 1 23 33 62 12 15 0 0 4 21 178 884 1027 1171 1694 1700 1807 1720 1534 1311 1460 1316 1552 1632 1686 1708 1672 1242 679 1156 1328 1227 1385 1270 1151 939 833 912
0 157 217 37 0 0 23 26 5 14 22 49 59 115 101 20 0 3 4 54 180 421 919 1460 1412 1858 1834 1581 1582 1377 1597 1552 1707 1595 1715 1609 1624 1149 1676 1747 1283 1093 1392 1603 1531 1434 1021 996 1241
4 186 12 0 0 4 35 24 22 27 60 79 63 29 68 8 25 38 66 168 257 588 983 1693 1613 1715 1851 1680 1823 1579 1712 1701 1688 1734 1688 1675 1510 1610 1689 1516 1635 1197 1161 1352 1313 1169 1229 1424 1643
0 24 20 10 0 7 24 30 44 33 62 23 24 9 19 273 265 110 173 276 320 777 1150 1607 1747 1629 1829 1880 1932 1846 1908 1802 1616 1564 1535 1511 1551 1549 1595 1678 1690 1780 1150 1156 1208 1165 1302 1303 1713
3 6 7 0 0 1 23 25 41 46 15 14 0 0 138 424 233 195 341 354 535 437 1016 1510 1668 1770 1666 1902 1883 1950 1852 1847 1841 1761 1663 1506 1438 1599 1802 1622 1699 1740 1122 1059 1082 985 1075 1108 1543
22 21 1 0 0 2 14 45 58 70 11 0 41 16 172 334 376 460 468 532 611 1017 1208 1270 1647 1539 1661 1815 1965 1970 1982 1957 1743 1806 1692 1459 1690 1604 1654 1668 1587 1427 1214 1027 929 988 1073 1005 1047
3 23 2 10 0 0 14 35 133 83 12 22 31 6 81 243 538 444 455 557 992 1249 1383 1104 1565 1604 1584 1260 1860 1741 1970 1971 2018 1833 1612 1804 1732 1909 1950 1818 1790 1606 1468 1239 751 852 1058 1273 1188
46 26 8 18 1 0 28 50 106 134 41 1 112 40 136 304 253 280 478 523 575 749 1168 1071 1201 1160 1113 1237 1721 1848 1990 2133 2053 1687 1734 1679 1585 1557 1442 2023 1946 1967 2017 1569 748 874 869 1136 894
100 12 39 81 72 30 25 48 104 80 35 67 40 77 188 160 297 489 243 1 4 163 809 993 1068 1010 1189 1328 1637 1500 1832 1895 1624 1476 1006 986 1000 1264 1344 1679 1427 1292 1295 1031 629 914 575 395 539
104 7 26 39 71 80 79 16 59 53 15 17 1 61 145 137 327 69 0 0 69 294 497 836 946 1066 1066 940 1121 1173 1318 1341 1219 992 714 765 734 466 445 507 366 76 583 351 34 95 128 301 462
75 56 1 24 16 41 97 38 18 26 61 1 36 74 129 109 75 60 91 124 184 211 363 771 697 754 862 818 750 551 267 199 378 466 655 593 342 138 91 222 97 67 47 416 555 548 571 688 672
91 46 20 28 52 32 90 92 20 16 82 15 72 70 70 18 127 146 127 133 176 178 400 472 479 515 560 576 569 384 293 159 334 411 504 377 114 39 23 57 53 136 274 638 845 884 837 726 701
112 20 23 13 40 42 68 142 36 20 58 33 0 28 10 24 132 144 144 137 224 296 248 369 285 259 339 527 592 627 750 311 371 397 477 251 10 0 70 237 307 423 683 784 860 876 1054 742 723
74 69 30 0 20 34 58 103 42 33 30 17 0 12 1 12 127 143 109 92 77 172 237 244 350 348 342 484 634 719 620 525 595 476 351 376 527 537 576 573 595 741 964 1064 1175 937 759 634 339
68 24 12 6 10 31 19 29 76 26 18 6 34 21 0 29 92 123 121 117 90 152 226 307 384 361 372 418 389 513 348 476 411 352 401 320 774 851 733 667 719 964 1169 1570 1470 1119 642 268 288
12 0 0 17 0 26 18 50 37 9 20 16 33 31 0 0 21 94 127 95 110 79 229 330 343 303 360 340 406 393 263 123 151 22 80 579 1088 889 953 941 687 902 1374 1659 1726 1328 538 390 316
1 7 0 0 0 26 8 44 10 3 19 26 18 7 20 0 4 67 91 61 54 88 116 218 148 236 274 287 252 257 182 315 0 10 303 642 1123 1143 1334 778 424 1106 1366 1627 1559 1122 776 594 565
12 61 7 0 0 0 15 47 3 3 8 17 0 0 0 14 23 30 36 62 8 66 85 75 119 185 207 250 238 213 376 409 398 467 763 898 1014 1207 591 22 596 1070 1218 1363 1453 1471 1045 749 453
82 90 52 30 9 21 18 44 7 20 19 1 0 0 0 0 0 6 31 40 5 0 22 41 48 95 167 161 149 162 289 381 366 598 823 950 776 1042 919 547 691 793 1007 1172 1275 1187 992 642 616
134 68 32 14 38 17 28 3 25 29 27 18 1 0 0 0 0 1 13 14 0 0 0 0 0 49 95 195 200 194 315 394 422 622 733 775 952 986 910 659 583 598 790 1014 1072 1140 1093 601 429
22 50 58 26 6 16 17 7 2 23 15 2 0 0 0 0 0 35 31 6 0 0 0 0 0 0 0 168 251 171 157 269 323 416 497 571 801 763 953 816 693 729 688 1017 1036 1022 1017 899 532
123 119 73 10 0 0 0 13 0 9 9 7 0 0 0 0 0 3 16 24 0 0 0 0 0 0 15 155 225 165 180 170 262 308 401 513 505 689 832 859 810 752 650 822 949 843 887 661 524
195 128 40 5 0 0 0 0 0 0 1 5 7 0 0 0 0 1 20 31 12 0 0 0 0 0 24 106 139 161 155 137 186 177 187 309 414 585 756 764 804 782 622 783 740 735 816 734 777
95 76 24 3 0 0 0 0 0 0 0 5 1 0 0 0 0 0 5 19 15 0 0 0 0 0 14 64 127 151 169 179 218 195 187 205 220 366 445 643 560 647 619 652 783 697 622 680 629
202 92 29 8 4 0 30 6 3 0 0 13 27 4 0 2 0 5 0 0 3 0 0 0 0 0 35 110 180 184 183 186 177 152 175 147 173 166 227 332 526 551 596 651 659 642 671 497 652
240 96 5 0 0 0 11 31 12 20 11 12 38 20 14 15 3 11 0 0 8 0 27 0 0 0 0 85 173 180 182 165 166 117 75 90 79 98 95 134 330 472 476 668 589 600 607 567 479
266 31 21 20 0 6 0 17 15 2 4 0 0 0 0 2 0 21 28 5 10 35 35 27 0 25 0 33 81 150 190 175 146 130 110 42 17 15 93 85 290 368 444 561 558 650 671 556 463
182 203 10 9 3 4 1 0 26 41 2 0 0 0 0 20 35 33 33 35 29 59 74 44 35 25 23 37 39 77 105 149 168 168 159 106 0 0 5 16 76 221 230 412 540 648 618 495 416
33 1 1 0 0 0 0 0 77 137 118 7 0 0 0 13 44 59 63 73 71 74 98 94 60 51 34 31 44 37 44 109 134 123 145 82 0 0 0 0 0 31 138 413 464 401 547 549 436

GFSSGP_con_mlcape_123.txt.gz
CAPE
125 55 176 484 42 21 0 6 9 0 0 0 0 1 29 52 1 0 0 30 35 131 613 401 430 648 633 950 1484 1566 1460 1172 1578 1513 1524 1540 1511 1446 1337 1196 1187 1282 1464 1403 1306 1316 1045 1486 1599
215 72 253 282 0 6 10 19 6 0 0 0 3 29 56 0 0 0 13 77 91 424 773 846 819 1161 1232 1274 1238 1459 1475 1544 1638 1633 1710 1488 1481 956 1143 1388 1402 1484 1116 1106 989 830 899 903 1166
155 223 217 94 0 25 25 34 2 5 0 32 78 125 60 0 0 0 25 109 233 781 1080 1073 989 1364 1645 1471 1288 1598 1523 1684 1677 1757 1573 1521 1092 1743 1560 1096 1174 1632 1490 1319 877 962 1160 1340 1275
46 355 83 50 0 28 45 22 21 48 44 87 51 4 1 0 3 45 108 255 376 848 1453 1141 1536 1682 1733 1589 1369 1722 1651 1686 1728 1718 1538 1056 1665 1477 1467 1364 1047 1309 1381 1350 1241 1387 1618 1628 1567
0 48 64 36 23 29 39 29 43 85 84 83 36 0 6 343 188 119 254 362 652 881 1126 1392 1635 1841 1791 1486 1639 1640 1744 1627 1595 1516 1567 1615 1597 1555 1612 1586 1512 1067 1216 1284 1191 1379 1527 1588 1124
7 7 3 11 19 21 33 45 127 94 86 16 0 0 94 668 173 219 345 493 851 871 1069 1362 1609 1648 1823 1807 1816 1863 1696 1704 1630 1596 1583 1561 1595 1623 1594 1640 1452 1012 1128 1213 1041 1099 1230 1596 1199
10 27 6 6 15 10 25 50 42 34 50 0 0 12 136 575 339 460 533 659 616 559 910 1360 1072 1603 1592 1794 1931 1907 1729 1634 1575 1489 1500 1562 1523 1565 1587 1358 1158 1053 976 1093 1104 1161 1147 1184 1377
8 70 10 15 11 5 39 104 65 45 57 38 9 8 15 464 610 595 586 593 808 855 843 1245 1569 1450 1386 1674 1738 1939 1998 1838 1738 1615 1723 1787 1771 1743 1541 1487 1439 1240 1046 893 881 1059 1173 1285 1301
54 34 23 20 23 19 55 58 83 120 35 47 213 30 181 575 563 396 453 719 949 947 1053 1392 1532 1364 1018 1658 1744 1825 1916 1799 1720 1860 1663 1640 1500 1350 1382 1907 1878 1939 1729 1473 1288 1081 1208 887 834
39 18 38 102 110 25 46 48 77 36 27 59 73 280 382 436 349 379 485 510 488 490 991 1315 1371 1170 1458 1556 1931 1979 2055 2046 2015 1693 1676 1550 1558 1801 1848 1408 951 1195 952 818 425 681 440 458 804
92 30 86 118 143 149 57 45 66 41 16 49 7 129 238 237 338 675 527 185 50 180 763 1033 1278 1210 1458 1774 1847 1814 1851 1625 1670 1291 1205 1332 1173 747 922 1009 609 796 381 636 499 445 570 777 949
141 99 76 76 91 156 113 105 58 19 42 49 90 179 219 270 472 475 64 43 143 312 606 952 1096 1296 1371 1344 1493 1309 1087 1062 951 1138 1180 1009 698 375 396 641 264 517 871 1213 1235 1205 1275 1401 1407
172 93 48 25 74 148 161 123 55 45 63 42 115 147 156 289 257 74 95 231 316 331 560 812 934 1116 1214 1021 1116 741 565 636 859 939 1029 866 480 204 221 205 445 783 1102 1362 1623 1722 1733 1502 1387
106 75 25 74 93 141 150 208 55 83 47 52 61 37 110 166 190 263 339 300 279 270 470 638 716 965 924 789 779 870 865 554 907 945 1119 692 265 57 452 791 897 1138 1456 1693 1709 1537 1597 1338 982
145 77 74 48 51 98 144 179 115 72 47 44 72 89 98 80 274 276 303 346 338 290 454 537 515 625 738 913 1173 1239 1309 1173 1169 1119 965 964 1148 1102 1153 1093 1198 1539 1716 2141 2008 1530 1416 882 649
85 44 94 9 41 57 110 60 267 94 54 27 70 57 39 76 176 307 261 254 346 193 416 644 390 528 703 878 1086 1132 982 1117 1142 977 957 935 1329 1382 1194 1159 1514 1729 2311 2481 2203 1388 1047 758 962
75 15 26 7 13 33 90 53 121 101 63 41 23 55 54 82 106 227 241 231 198 276 354 534 749 714 696 796 868 1009 802 963 822 661 766 1154 1639 1405 1519 1473 1180 1710 2316 2494 2269 1436 1141 775 835
6 33 6 4 0 3 39 38 100 99 38 18 35 55 55 24 66 135 234 180 264 308 453 592 706 743 825 776 789 804 710 549 371 331 660 1051 1659 1734 1806 1177 1027 1948 2233 2443 1966 1503 1270 1291 1237
2 59 16 0 1 0 11 54 74 83 42 26 36 32 67 21 25 48 156 166 170 248 268 500 586 559 558 605 656 758 642 787 409 534 1016 1227 1482 1910 1481 859 1278 1792 1861 2094 2214 2000 1456 1195 1163
49 87 58 33 2 0 7 48 73 50 32 24 12 22 42 36 15 49 101 115 124 197 238 326 353 469 633 668 675 739 850 937 1042 1008 1317 1590 1317 1676 1626 931 1380 1357 1795 1916 1942 1834 1421 1172 1303
106 32 50 57 70 46 12 0 19 14 53 4 0 0 17 0 0 56 84 107 127 142 136 177 192 366 513 616 532 537 719 825 894 931 827 1476 1472 1568 1495 1168 1238 1193 1524 1803 1849 1924 1691 1058 848
59 105 44 25 35 8 13 4 0 16 13 20 0 0 0 0 2 36 29 70 125 80 131 130 115 194 331 506 369 424 446 514 468 560 893 1077 1479 1523 1571 1385 1295 1390 1426 1707 1700 1801 1683 1471 1009
114 173 136 67 6 5 13 1 0 1 10 11 8 8 0 0 0 0 16 79 114 49 73 82 69 93 228 339 458 285 350 296 432 824 682 660 929 1358 1368 1327 1343 1280 1305 1545 1581 1566 1639 1341 1190
308 188 130 52 18 1 0 4 0 0 3 21 33 13 0 0 0 0 25 91 107 0 20 63 8 0 76 173 451 502 501 281 484 653 670 796 859 1142 1429 1369 1535 1213 1274 1187 1370 1389 1464 1432 1446
248 128 26 79 43 19 0 0 2 0 0 13 7 46 26 0 0 0 14 63 105 57 37 72 56 0 0 78 300 463 475 443 442 523 518 558 693 741 1006 1063 1091 911 1265 1172 1282 1358 1319 1352 1266
183 14 39 42 27 31 33 5 27 10 0 0 15 25 76 11 0 0 0 59 92 76 103 79 46 25 47 78 232 398 489 509 533 624 581 584 633 729 829 808 712 758 828 1317 1420 1336 1271 1117 1201
300 5 49 37 0 6 2 43 23 12 10 3 0 11 33 45 9 1 24 66 81 97 115 104 67 53 64 136 209 248 387 461 426 484 478 459 455 483 486 545 705 988 1104 748 1134 983 1079 1182 1237
487 242 97 59 7 0 4 32 47 19 36 17 46 27 49 48 19 27 25 56 73 100 128 125 111 50 28 120 221 276 383 439 491 485 431 376 372 267 274 389 502 778 1051 1184 1166 1126 1258 1235 1193
395 348 74 18 29 19 15 1 83 105 80 32 27 84 109 63 74 50 24 56 100 93 90 113 152 142 58 71 154 288 346 346 372 385 439 486 392 203 48 224 380 533 783 969 856 747 959 1114 1014
221 256 235 83 20 15 9 0 162 186 149 94 65 63 53 93 103 74 41 77 98 93 94 80 147 189 129 181 161 117 209 280 294 307 335 437 407 259 254 112 89 115 443 740 690 626 802 790 925